[[{"header":{"parameterUnit":"m.s-1","parameterCategory":1,"la1":30.6,"la2":29.2853,"lo1":-89.7004,"lo2":-87.6739,"dx":0.0162,"dy":0.0183,"nx":112,"ny":82,"refTime":"2022-11-25T06:00:00:Z","depth":0,"parameterNumber":2,"parameterNumberName":"U-component_of_WINDS"},"data":[0.0,0.0,0.0,0.0,0.0,0.0,0.0,0.0,0.0,0.0,0.0,0.0,0.0,0.0,0.0,0.0,0.0,0.0,0.0,0.0,0.0,0.0,0.0,0.0,0.0,0.0,0.0,0.0,0.0,0.0,0.0,0.0,0.0,0.0,0.0,0.0,0.0,0.0,0.0,0.0,0.0,0.0,0.0,0.0,0.0,0.0,0.0,0.0,0.0,0.0,0.0,0.0,0.0,0.0,0.0,0.0,0.0,0.0,0.0,0.0,0.0,0.0,0.0,0.0,0.0,0.0,0.0,0.0,0.0,0.0,0.0,0.0,0.0,0.0,0.0,0.0,0.0,0.0,0.0,0.0,0.0,0.0,0.0,0.0,0.0,0.0,0.0,0.0,0.0,0.0,0.0,-0.9704,-0.9672,-0.9456,-0.9152,-0.8649,-0.7967,-0.7068,0.0,0.0,0.0,0.0,0.0,0.0,0.0,0.0,0.0,0.0,0.0,0.0,0.0,0.0,0.0,0.0,0.0,0.0,0.0,0.0,0.0,0.0,0.0,0.0,0.0,0.0,0.0,0.0,0.0,0.0,0.0,0.0,0.0,0.0,0.0,0.0,0.0,0.0,0.0,0.0,0.0,0.0,0.0,0.0,0.0,0.0,0.0,0.0,0.0,0.0,0.0,0.0,0.0,0.0,0.0,0.0,0.0,0.0,0.0,0.0,0.0,0.0,0.0,0.0,0.0,0.0,0.0,0.0,0.0,0.0,0.0,0.0,0.0,0.0,0.0,0.0,0.0,0.0,0.0,0.0,0.0,0.0,0.0,0.0,0.0,0.0,0.0,0.0,0.0,0.0,0.0,0.0,0.0,0.0,0.0,0.0,0.0,0.0,0.0,0.0,0.0,0.0,0.0,0.0,-0.8711,-0.9247,-0.9473,-0.9544,-0.9366,-0.9434,-0.8803,-0.7278,0.0,0.0,0.0,0.0,0.0,0.0,0.0,0.0,0.0,0.0,0.0,0.0,0.0,0.0,0.0,0.0,0.0,0.0,0.0,0.0,0.0,0.0,0.0,0.0,0.0,0.0,0.0,0.0,0.0,0.0,0.0,0.0,0.0,0.0,0.0,0.0,0.0,0.0,0.0,0.0,0.0,0.0,0.0,0.0,0.0,0.0,0.0,0.0,0.0,0.0,0.0,0.0,0.0,0.0,0.0,0.0,0.0,0.0,0.0,0.0,0.0,0.0,0.0,0.0,0.0,0.0,0.0,0.0,0.0,0.0,0.0,0.0,0.0,0.0,0.0,0.0,0.0,0.0,0.0,0.0,0.0,0.0,0.0,0.0,0.0,0.0,0.0,0.0,0.0,0.0,0.0,0.0,0.0,0.0,0.0,0.0,0.0,0.0,0.0,0.0,0.0,0.0,0.0,-0.9647,-0.9639,-0.9722,-1.0058,-1.0107,-0.9769,-0.9762,-0.9249,-0.7949,-0.7377,0.0,0.0,0.0,0.0,0.0,0.0,0.0,0.0,0.0,0.0,0.0,0.0,0.0,0.0,0.0,0.0,0.0,0.0,0.0,0.0,0.0,0.0,0.0,0.0,0.0,0.0,0.0,0.0,0.0,0.0,0.0,0.0,0.0,0.0,0.0,0.0,0.0,0.0,0.0,0.0,0.0,0.0,0.0,0.0,0.0,0.0,0.0,0.0,0.0,0.0,0.0,0.0,0.0,0.0,0.0,0.0,0.0,0.0,0.0,0.0,0.0,0.0,0.0,0.0,0.0,0.0,0.0,0.0,0.0,0.0,0.0,0.0,0.0,0.0,0.0,0.0,0.0,0.0,0.0,0.0,0.0,0.0,0.0,0.0,0.0,0.0,0.0,0.0,0.0,0.0,0.0,0.0,0.0,0.0,0.0,0.0,0.0,0.0,0.0,0.0,0.0,0.0,-1.0633,-1.0664,-1.0475,-1.0855,-1.0889,-1.0351,-1.0293,-0.977,-0.8463,-0.815,0.0,0.0,0.0,0.0,0.0,0.0,0.0,0.0,0.0,0.0,0.0,0.0,0.0,0.0,0.0,0.0,0.0,0.0,0.0,0.0,0.0,0.0,0.0,0.0,0.0,0.0,0.0,0.0,0.0,0.0,0.0,0.0,0.0,0.0,0.0,0.0,0.0,0.0,0.0,0.0,0.0,0.0,0.0,0.0,0.0,0.0,0.0,0.0,0.0,0.0,0.0,0.0,0.0,0.0,0.0,0.0,0.0,0.0,0.0,0.0,0.0,0.0,0.0,0.0,0.0,0.0,0.0,0.0,0.0,0.0,0.0,0.0,0.0,0.0,0.0,0.0,0.0,0.0,0.0,0.0,0.0,0.0,0.0,0.0,0.0,0.0,0.0,0.0,0.0,0.0,0.0,0.0,0.0,0.0,0.0,0.0,0.0,0.0,0.0,0.0,0.0,0.0,-1.1027,-1.1378,-1.1335,-1.1667,-1.1694,-1.1165,-1.1453,-1.0729,-0.8536,-0.8364,0.0,0.0,0.0,0.0,0.0,0.0,0.0,0.0,0.0,0.0,0.0,0.0,0.0,0.0,0.0,0.0,0.0,0.0,0.0,0.0,0.0,0.0,0.0,0.0,0.0,0.0,0.0,0.0,0.0,0.0,0.0,0.0,0.0,0.0,0.0,0.0,0.0,0.0,0.0,0.0,0.0,0.0,0.0,0.0,0.0,0.0,0.0,0.0,0.0,0.0,0.0,0.0,0.0,0.0,0.0,0.0,0.0,0.0,0.0,0.0,0.0,0.0,0.0,0.0,0.0,0.0,0.0,0.0,0.0,0.0,0.0,0.0,0.0,0.0,0.0,0.0,0.0,0.0,0.0,0.0,0.0,0.0,0.0,0.0,0.0,0.0,0.0,0.0,0.0,0.0,0.0,0.0,0.0,0.0,0.0,0.0,0.0,0.0,0.0,0.0,0.0,0.0,-1.1953,-1.2246,0.0,-1.2415,-1.2475,-1.2037,-1.1716,-1.0887,-0.931,0.0,0.0,0.0,0.0,0.0,0.0,0.0,0.0,0.0,0.0,0.0,0.0,0.0,0.0,0.0,0.0,0.0,0.0,0.0,0.0,0.0,0.0,0.0,0.0,0.0,0.0,0.0,0.0,0.0,0.0,0.0,0.0,0.0,0.0,0.0,0.0,0.0,0.0,0.0,0.0,0.0,0.0,0.0,0.0,0.0,0.0,0.0,0.0,0.0,0.0,0.0,0.0,0.0,0.0,0.0,0.0,0.0,0.0,0.0,0.0,0.0,0.0,0.0,0.0,0.0,0.0,0.0,0.0,0.0,0.0,0.0,0.0,0.0,0.0,0.0,0.0,0.0,0.0,0.0,0.0,0.0,0.0,0.0,0.0,0.0,0.0,0.0,0.0,0.0,0.0,0.0,0.0,0.0,0.0,0.0,0.0,0.0,0.0,0.0,0.0,0.0,0.0,-1.196,-1.2549,-1.2864,0.0,-1.3021,-1.3054,-1.2863,-1.2097,-1.1064,-0.9769,0.0,0.0,0.0,0.0,0.0,0.0,0.0,0.0,0.0,0.0,0.0,0.0,0.0,0.0,0.0,0.0,0.0,0.0,0.0,0.0,0.0,0.0,0.0,0.0,0.0,0.0,0.0,0.0,0.0,0.0,0.0,0.0,0.0,0.0,0.0,0.0,0.0,0.0,0.0,0.0,0.0,0.0,0.0,0.0,0.0,0.0,0.0,0.0,0.0,0.0,0.0,0.0,0.0,0.0,0.0,0.0,0.0,0.0,0.0,0.0,0.0,0.0,0.0,0.0,0.0,0.0,0.0,0.0,0.0,0.0,0.0,0.0,0.0,0.0,0.0,0.0,0.0,0.0,0.0,0.0,0.0,0.0,0.0,0.0,0.0,0.0,0.0,0.0,0.0,0.0,0.0,0.0,0.0,0.0,0.0,0.0,0.0,0.0,0.0,0.0,0.0,0.0,-1.2041,-1.2627,-1.3134,-1.3554,-1.3487,-1.3467,-1.3627,-1.2684,-1.1412,0.0,0.0,0.0,0.0,0.0,0.0,0.0,0.0,0.0,0.0,0.0,0.0,0.0,0.0,0.0,0.0,0.0,0.0,0.0,0.0,0.0,0.0,0.0,0.0,0.0,0.0,0.0,0.0,0.0,0.0,0.0,0.0,0.0,0.0,0.0,0.0,0.0,0.0,0.0,0.0,0.0,0.0,0.0,0.0,0.0,0.0,0.0,0.0,0.0,0.0,0.0,0.0,0.0,0.0,0.0,0.0,0.0,0.0,0.0,0.0,0.0,0.0,0.0,0.0,0.0,0.0,0.0,0.0,0.0,0.0,0.0,0.0,0.0,0.0,0.0,0.0,0.0,0.0,0.0,0.0,0.0,0.0,0.0,0.0,0.0,0.0,0.0,0.0,0.0,0.0,0.0,0.0,0.0,0.0,0.0,0.0,0.0,0.0,0.0,0.0,0.0,0.0,0.0,-1.2045,-1.2319,-1.3033,-1.4631,-1.3661,-1.3292,-1.4233,-1.2345,-1.0639,-0.9537,0.0,0.0,0.0,0.0,0.0,0.0,0.0,0.0,0.0,0.0,0.0,0.0,0.0,0.0,0.0,0.0,0.0,0.0,0.0,0.0,0.0,0.0,0.0,0.0,0.0,0.0,0.0,0.0,0.0,0.0,0.0,0.0,0.0,0.0,0.0,0.0,0.0,0.0,0.0,0.0,0.0,0.0,0.0,0.0,0.0,0.0,0.0,0.0,0.0,0.0,0.0,0.0,0.0,0.0,0.0,0.0,0.0,0.0,0.0,0.0,0.0,0.0,0.0,0.0,0.0,0.0,0.0,0.0,0.0,0.0,0.0,0.0,0.0,0.0,0.0,0.0,0.0,0.0,0.0,0.0,0.0,0.0,0.0,0.0,0.0,0.0,0.0,0.0,0.0,0.0,0.0,0.0,0.0,0.0,0.0,0.0,0.0,0.0,0.0,0.0,0.0,0.0,-1.2045,-1.2102,-1.2871,-1.5077,-1.3787,-1.3211,-1.4372,-1.241,-1.0739,-0.9818,0.0,0.0,0.0,0.0,0.0,0.0,0.0,0.0,0.0,0.0,0.0,0.0,0.0,0.0,0.0,0.0,0.0,0.0,0.0,0.0,0.0,0.0,0.0,0.0,0.0,0.0,0.0,0.0,0.0,0.0,0.0,0.0,0.0,0.0,0.0,0.0,0.0,0.0,0.0,0.0,0.0,0.0,0.0,0.0,0.0,0.0,0.0,0.0,0.0,0.0,0.0,0.0,0.0,0.0,0.0,0.0,0.0,0.0,0.0,0.0,0.0,0.0,0.0,0.0,0.0,0.0,0.0,0.0,0.0,0.0,0.0,0.0,0.0,0.0,0.0,0.0,0.0,0.0,0.0,0.0,0.0,0.0,0.0,0.0,0.0,0.0,0.0,0.0,0.0,0.0,0.0,0.0,0.0,0.0,0.0,0.0,0.0,0.0,0.0,0.0,0.0,0.0,-1.2045,-1.2058,-1.2842,-1.5127,-1.3955,-1.3334,-1.4189,-1.2551,-1.1149,-1.0311,0.0,0.0,0.0,0.0,0.0,0.0,0.0,0.0,0.0,0.0,0.0,0.0,0.0,0.0,0.0,0.0,0.0,0.0,0.0,0.0,0.0,0.0,0.0,0.0,0.0,0.0,0.0,0.0,0.0,0.0,0.0,0.0,0.0,0.0,0.0,0.0,0.0,0.0,0.0,0.0,0.0,0.0,0.0,0.0,0.0,0.0,0.0,0.0,0.0,0.0,0.0,0.0,0.0,0.0,0.0,0.0,0.0,0.0,0.0,0.0,-1.5165,0.0,0.0,0.0,0.0,0.0,0.0,0.0,0.0,0.0,0.0,0.0,0.0,0.0,0.0,0.0,0.0,0.0,0.0,0.0,0.0,0.0,0.0,0.0,0.0,0.0,0.0,0.0,0.0,0.0,0.0,0.0,0.0,0.0,0.0,0.0,0.0,0.0,0.0,0.0,0.0,0.0,-1.19,-1.2692,-1.3852,-1.5721,-1.4584,-1.3933,-1.4541,-1.1892,-1.0053,-0.9745,-0.7999,0.0,0.0,0.0,0.0,0.0,0.0,0.0,0.0,0.0,0.0,0.0,0.0,0.0,0.0,0.0,0.0,0.0,0.0,0.0,0.0,0.0,0.0,0.0,0.0,0.0,0.0,0.0,0.0,0.0,0.0,0.0,0.0,0.0,0.0,0.0,0.0,0.0,0.0,0.0,0.0,0.0,0.0,0.0,0.0,0.0,0.0,0.0,0.0,0.0,0.0,0.0,0.0,0.0,0.0,0.0,0.0,0.0,0.0,0.0,0.0,-1.5119,0.0,0.0,0.0,0.0,0.0,0.0,0.0,0.0,0.0,0.0,0.0,0.0,0.0,0.0,0.0,0.0,0.0,0.0,0.0,0.0,0.0,0.0,0.0,0.0,0.0,0.0,0.0,0.0,0.0,0.0,0.0,0.0,0.0,0.0,0.0,0.0,0.0,0.0,0.0,0.0,-1.2015,-1.2666,-1.3731,-1.5598,-1.4792,-1.4294,-1.462,-1.1901,-1.0081,-0.9854,-0.7877,0.0,0.0,0.0,0.0,0.0,0.0,0.0,0.0,0.0,0.0,0.0,0.0,0.0,0.0,0.0,0.0,0.0,0.0,0.0,0.0,0.0,0.0,0.0,0.0,0.0,0.0,0.0,0.0,0.0,0.0,0.0,0.0,0.0,0.0,0.0,0.0,0.0,0.0,0.0,0.0,0.0,0.0,0.0,0.0,0.0,0.0,0.0,0.0,0.0,0.0,0.0,0.0,0.0,-1.6367,-1.6552,-1.6622,-1.7079,-1.6532,-1.5237,-1.551,-1.5067,-1.4327,-1.5861,0.0,0.0,0.0,0.0,0.0,0.0,0.0,0.0,0.0,0.0,0.0,0.0,0.0,0.0,0.0,0.0,0.0,0.0,0.0,0.0,0.0,0.0,0.0,0.0,-1.3265,-1.3544,0.0,0.0,0.0,0.0,0.0,0.0,0.0,0.0,0.0,0.0,0.0,0.0,-1.2164,-1.2653,-1.3467,-1.511,-1.4886,-1.4513,-1.4257,-1.1975,-1.0409,-0.9952,-0.7875,-0.6773,0.0,0.0,0.0,0.0,0.0,0.0,0.0,0.0,0.0,0.0,0.0,0.0,0.0,0.0,0.0,0.0,0.0,0.0,0.0,0.0,0.0,0.0,0.0,0.0,0.0,0.0,0.0,0.0,0.0,0.0,0.0,0.0,-1.3497,-1.4338,0.0,0.0,0.0,0.0,0.0,0.0,0.0,0.0,0.0,0.0,0.0,0.0,0.0,-1.6294,-1.6973,-1.5966,-1.5794,-1.6413,-1.5738,-1.5421,-1.5421,-1.5567,-1.549,-1.5279,-1.528,0.0,-1.4213,-1.4478,0.0,0.0,0.0,0.0,0.0,0.0,0.0,0.0,0.0,0.0,0.0,0.0,0.0,0.0,0.0,0.0,0.0,0.0,0.0,0.0,0.0,0.0,-1.6285,-1.6424,-1.6404,-1.6419,0.0,-1.4321,-1.2112,-1.1749,-1.1743,0.0,0.0,0.0,0.0,0.0,0.0,0.0,-1.2163,-1.3402,-1.4256,-1.4379,-1.5008,-1.4677,-1.2865,-1.1353,-1.0129,-0.9211,-0.7576,-0.6646,-0.6795,-0.628,0.0,0.0,0.0,0.0,0.0,0.0,0.0,0.0,0.0,0.0,0.0,0.0,0.0,0.0,0.0,0.0,0.0,0.0,0.0,0.0,0.0,0.0,0.0,0.0,0.0,0.0,0.0,0.0,0.0,-1.3996,-1.4175,-1.4439,-1.5093,-1.5703,0.0,0.0,0.0,0.0,0.0,0.0,0.0,0.0,0.0,-1.5483,-1.5818,-1.5946,-1.5778,-1.5327,-1.5272,-1.5603,-1.5287,-1.5141,-1.5147,-1.5248,-1.5297,-1.5307,-1.528,-1.5072,-1.4806,-1.5251,-1.5688,-1.6098,0.0,0.0,0.0,0.0,-1.4669,-1.4139,-1.4287,-1.4576,0.0,-1.4651,0.0,0.0,0.0,0.0,0.0,0.0,0.0,0.0,0.0,0.0,-1.6045,-1.5663,-1.5819,-1.6086,-1.6222,-1.4943,-1.3576,0.0,-1.262,-1.2282,-1.1925,0.0,0.0,0.0,0.0,-1.1642,-1.235,-1.3261,-1.3822,-1.3782,-1.4208,-1.3954,-1.2445,-1.0922,-0.9516,-0.8204,-0.6921,-0.6018,-0.5665,-0.5445,-0.5297,0.0,0.0,0.0,0.0,0.0,0.0,0.0,0.0,0.0,0.0,0.0,0.0,0.0,0.0,0.0,0.0,0.0,0.0,0.0,0.0,0.0,0.0,0.0,0.0,0.0,0.0,0.0,0.0,-1.4185,-1.4361,-1.4563,-1.4972,-1.5452,0.0,0.0,0.0,0.0,0.0,0.0,-1.5661,-1.6122,-1.599,-1.5104,-1.5618,-1.5571,-1.485,-1.4929,-1.4942,-1.4927,-1.5031,-1.5072,-1.5044,-1.5174,-1.5223,-1.5224,-1.5236,-1.5255,-1.5284,-1.5856,-1.59,-1.5698,-1.6351,-1.6166,-1.5482,-1.5228,-1.483,-1.4477,-1.5013,-1.518,-1.5241,-1.552,-1.5719,-1.5797,-1.5417,0.0,0.0,0.0,0.0,-1.5778,-1.5314,-1.536,-1.5439,-1.511,-1.5325,-1.5624,-1.572,-1.5437,-1.4985,0.0,-1.3839,-1.3321,-1.2972,0.0,0.0,0.0,0.0,-1.1929,-1.282,-1.3218,-1.3382,-1.3252,-1.3477,-1.3124,-1.1942,-1.0639,-0.9151,-0.7545,-0.6531,-0.5654,-0.5058,-0.5011,-0.525,-0.5819,0.0,0.0,0.0,0.0,0.0,0.0,0.0,0.0,0.0,0.0,0.0,0.0,0.0,0.0,0.0,0.0,0.0,0.0,0.0,0.0,0.0,0.0,0.0,0.0,0.0,0.0,0.0,0.0,0.0,-1.4593,-1.4154,0.0,0.0,0.0,0.0,-1.6641,-1.6766,-1.6615,-1.6096,-1.6103,-1.5779,-1.5036,-1.5105,-1.5094,-1.4999,-1.5059,-1.5059,-1.4995,-1.5074,-1.5028,-1.4899,-1.4989,-1.5024,-1.5029,-1.5075,-1.5228,-1.5373,-1.5309,-1.5658,-1.626,-1.6359,-1.6388,-1.6222,-1.5327,-1.4524,-1.3898,-1.4241,-1.4361,-1.4598,-1.5976,-1.6652,-1.7019,-1.7555,-1.7356,0.0,0.0,-1.6133,-1.5675,-1.6341,-1.5908,-1.5545,-1.646,-1.6401,-1.621,-1.6402,-1.6136,-1.5879,0.0,-1.5537,-1.5255,-1.555,0.0,-1.4243,-1.5121,-1.3957,-1.3215,-1.3771,-1.3789,-1.3524,-1.2899,-1.3125,-1.2614,-1.0864,-1.0446,-0.9421,-0.7355,-0.668,-0.6206,-0.5766,-0.5488,-0.5329,-0.5318,-0.5261,0.0,0.0,0.0,0.0,0.0,0.0,0.0,0.0,0.0,0.0,0.0,0.0,0.0,0.0,0.0,0.0,0.0,0.0,0.0,0.0,0.0,0.0,0.0,0.0,0.0,0.0,0.0,0.0,-1.4154,-1.3823,0.0,-1.4522,-1.45,-1.4444,-1.4513,-1.4688,-1.4696,-1.4502,-1.4745,-1.4771,-1.4558,-1.4568,-1.4569,-1.455,-1.5093,-1.5353,-1.5337,-1.596,-1.5969,-1.542,-1.5522,-1.5331,-1.4864,-1.4908,-1.4697,-1.4411,-1.4924,-1.5321,-1.5597,-1.5619,-1.564,-1.5591,-1.5244,-1.4914,-1.4747,-1.5464,-1.5655,-1.5762,-1.6855,-1.6491,-1.5788,-1.662,-1.6719,-1.6442,-1.5865,-1.5891,-1.6035,-1.5814,-1.5824,-1.5866,-1.5849,-1.6024,-1.6267,-1.6451,-1.6054,-1.5876,-1.6705,-1.6166,-1.554,-1.5542,-1.4964,-1.4577,-1.484,-1.4231,-1.3871,-1.4249,-1.3878,-1.3517,-1.3262,-1.2766,-1.2028,-1.0872,-1.0305,-0.9176,-0.7049,-0.6494,-0.584,-0.5017,-0.5008,-0.5152,-0.5345,-0.4648,-0.4523,0.0,0.0,0.0,0.0,0.0,0.0,0.0,0.0,0.0,0.0,0.0,0.0,0.0,0.0,0.0,0.0,0.0,0.0,0.0,0.0,0.0,0.0,0.0,0.0,0.0,0.0,-1.4225,-1.4533,-1.3956,-1.368,-1.4092,-1.3859,-1.3663,-1.3621,-1.3634,-1.3661,-1.3627,-1.3733,-1.3908,-1.4108,-1.4391,-1.4588,-1.4751,-1.5585,-1.5991,-1.5978,-1.6877,-1.6991,-1.6454,-1.6519,-1.6299,-1.5822,-1.5581,-1.5126,-1.4598,-1.517,-1.5311,-1.5176,-1.4876,-1.4945,-1.5157,-1.4874,-1.4884,-1.5162,-1.5805,-1.6333,-1.6796,-1.7103,-1.6575,-1.5918,-1.6521,-1.6701,-1.6544,-1.5766,-1.5959,-1.6228,-1.5463,-1.5573,-1.5798,-1.5362,-1.5529,-1.5804,-1.5932,-1.5697,-1.5722,-1.6548,-1.6228,-1.5863,-1.5932,-1.536,-1.5039,-1.5397,-1.4912,-1.4617,-1.4906,-1.45,-1.3994,-1.3521,-1.2826,-1.2017,-1.1037,-1.0249,-0.8991,-0.7007,-0.6297,-0.5498,-0.4671,-0.4801,-0.5061,-0.5284,-0.4485,-0.4051,-0.4047,0.0,0.0,0.0,0.0,0.0,0.0,0.0,0.0,0.0,0.0,0.0,0.0,0.0,0.0,0.0,0.0,0.0,0.0,0.0,0.0,0.0,0.0,0.0,-1.4999,-1.4711,-1.4812,-1.5712,-1.4482,-1.3956,-1.4833,-1.4571,-1.4311,-1.417,-1.3928,-1.3759,-1.3704,-1.3251,-1.3259,-1.378,-1.453,-1.5142,-1.5574,-1.6476,-1.6943,-1.6922,-1.777,-1.803,-1.7855,-1.7884,-1.7848,-1.7739,-1.7032,-1.6405,-1.5926,-1.5945,-1.5637,-1.5075,-1.4265,-1.4458,-1.5108,-1.4255,-1.4399,-1.5015,-1.5075,-1.6168,-1.7394,-1.6644,-1.6905,-1.7516,-1.7472,-1.7456,-1.7273,-1.657,-1.6354,-1.6176,-1.5397,-1.525,-1.5274,-1.5226,-1.5057,-1.4908,-1.4908,-1.5173,-1.5416,-1.5563,-1.5854,-1.6259,-1.6865,-1.6057,-1.5738,-1.6899,-1.6088,0.0,-1.5762,-1.5606,-1.4914,-1.357,-1.3276,-1.26,-1.1251,-1.0244,-0.8969,-0.7178,-0.6199,-0.5408,-0.4818,-0.5042,-0.5152,-0.504,-0.4897,-0.4087,-0.2686,0.0,0.0,0.0,0.0,0.0,0.0,0.0,0.0,0.0,0.0,0.0,0.0,0.0,0.0,0.0,0.0,0.0,0.0,0.0,0.0,0.0,0.0,-1.3988,-1.4057,-1.4132,-1.4064,-1.3892,-1.3445,-1.327,-1.3529,-1.3365,-1.3214,-1.319,-1.3342,-1.3428,-1.3413,-1.3286,-1.3315,-1.3508,-1.3348,-1.3803,-1.4937,-1.5642,-1.6462,-1.7419,-1.8664,-1.8378,-1.6756,-1.7188,-1.6564,-1.5144,-1.4941,-1.4513,-1.4035,-1.4772,-1.4665,-1.4097,-1.4625,-1.5024,-1.5235,-1.4998,-1.5001,-1.5145,-1.5178,-1.5477,-1.5929,-1.6332,-1.6181,-1.5974,-1.6599,-1.6372,-1.5865,-1.565,-1.5562,-1.5488,-1.5254,-1.5204,-1.5212,-1.521,-1.5163,-1.5114,-1.5126,-1.503,-1.5075,-1.5458,-1.5329,-1.5465,-1.6399,-1.6248,-1.6136,-1.6464,-1.59,0.0,-1.5507,-1.4746,-1.409,-1.3846,-1.3035,-1.217,-1.138,-1.0517,-0.9055,-0.6976,-0.6703,-0.6177,-0.4896,-0.4629,-0.4437,-0.4327,-0.3313,-0.2599,0.0,0.0,0.0,0.0,0.0,0.0,0.0,0.0,0.0,0.0,0.0,0.0,0.0,0.0,0.0,0.0,0.0,0.0,0.0,0.0,0.0,0.0,-1.3679,-1.3666,-1.3662,-1.3778,-1.3702,-1.3409,-1.3327,-1.3302,-1.3365,-1.3391,-1.3388,-1.3418,-1.3346,-1.3304,-1.3304,-1.3023,-1.2856,-1.2931,-1.3173,-1.3717,-1.4584,-1.5532,-1.6399,-1.7167,-1.8543,-1.8364,-1.6846,-1.7404,-1.687,0.0,-1.5148,-1.4634,-1.4095,-1.4959,-1.4953,0.0,0.0,0.0,0.0,0.0,-1.5137,-1.5098,-1.5172,-1.5195,-1.5272,-1.5797,-1.5605,-1.5291,-1.5799,-1.5632,-1.5258,-1.5258,-1.5231,-1.5185,-1.5163,-1.5183,-1.5192,-1.5162,-1.5178,-1.5188,-1.5168,-1.5057,-1.5061,-1.5315,-1.5107,0.0,-1.5891,-1.5904,-1.5961,-1.6438,-1.6086,-1.5855,-1.6148,-1.5593,-1.5075,-1.4816,-1.3972,-1.3008,-1.2031,-1.0352,0.0,0.0,0.0,-0.5119,-0.4142,-0.3608,0.0,0.0,0.0,0.0,0.0,0.0,0.0,0.0,-0.3907,-0.477,0.0,0.0,0.0,0.0,0.0,0.0,0.0,0.0,0.0,0.0,0.0,0.0,0.0,0.0,0.0,0.0,-1.3549,-1.3541,-1.3498,-1.3474,-1.3545,-1.3662,-1.3655,-1.3692,-1.3791,-1.395,-1.406,-1.4152,-1.36,-1.3267,-1.3306,0.0,0.0,0.0,0.0,-1.4192,-1.4406,-1.5743,-1.6434,-1.6564,-1.7822,-1.8068,-1.7393,-1.7872,-1.7731,-1.7099,-1.6325,-1.5661,-1.5145,-1.5748,-1.5809,-1.5397,-1.4351,-1.4333,-1.49,-1.4961,-1.495,-1.4944,-1.5114,0.0,0.0,-1.5197,-1.5197,-1.5181,-1.5202,-1.5204,-1.5207,-1.5209,-1.521,-1.519,-1.5133,-1.5152,-1.5178,-1.5117,-1.5155,-1.5182,-1.5112,-1.5164,-1.5203,-1.5195,-1.5082,-1.5065,-1.5282,-1.5294,-1.5616,-1.6692,-1.6486,-1.6464,-1.7155,-1.707,-1.6668,-1.588,0.0,0.0,-1.2613,-1.0008,-0.7937,-0.6648,-0.4391,-0.2913,-0.2372,-0.1819,-0.1524,-0.1515,-0.1677,-0.148,-0.1029,-0.1317,-0.1457,-0.1529,-0.288,-0.4046,0.0,0.0,0.0,0.0,0.0,0.0,0.0,0.0,0.0,0.0,0.0,0.0,0.0,0.0,0.0,-1.3199,-1.3226,-1.3164,-1.2763,-1.2694,-1.2939,-1.3552,-1.3409,-1.3323,-1.3311,-1.3168,-1.3124,-1.3252,-1.3192,-1.3175,-1.3301,-1.2953,-1.2786,-1.2791,-1.2841,-1.3356,-1.447,-1.498,-1.5782,-1.6824,0.0,0.0,-1.6075,-1.6548,-1.6096,-1.4919,-1.4745,-1.4578,-1.4492,-1.4653,-1.5,-1.5415,-1.5395,-1.5185,-1.4891,-1.4855,-1.4903,-1.4975,-1.4967,-1.5036,-1.5117,-1.5125,-1.5115,-1.5131,-1.5187,-1.5204,0.0,-1.5207,-1.5209,-1.521,-1.5171,-1.5155,-1.5117,-1.5098,-1.5155,-1.52,-1.5177,-1.5192,-1.5199,-1.5199,-1.5095,-1.4825,-1.4297,-1.5386,-1.6486,-1.7027,-1.7011,-1.69,-1.6888,-1.6091,-1.5451,-1.5282,-1.4694,-1.3378,-1.1037,-0.9811,-0.8,-0.523,-0.292,-0.0741,0.137,0.1714,0.1743,0.144,0.1613,0.1306,0.0664,0.0578,-0.0082,-0.1398,-0.2498,-0.3149,0.0,0.0,0.0,0.0,0.0,0.0,0.0,0.0,0.0,0.0,0.0,-1.3213,0.0,0.0,-1.3227,-1.3062,-1.2535,-1.2121,-1.1986,-1.1977,-1.2214,-1.2983,-1.2976,-1.2947,-1.296,-1.2788,-1.262,-1.2535,-1.2611,-1.2662,-1.2754,-1.2622,-1.2475,-1.2298,-1.2664,-1.3078,-1.3539,-1.4298,-1.505,-1.5743,-1.622,-1.6022,-1.5205,-1.5655,-1.5348,-1.444,-1.434,-1.4302,-1.4333,-1.4734,-1.5143,-1.5537,-1.5976,-1.5735,-1.5075,-1.485,-1.4776,-1.4793,-1.4846,-1.4897,-1.4953,-1.4939,-1.4954,-1.496,-1.5024,-1.5056,-1.5062,-1.5132,-1.5144,-1.5121,-1.5071,-1.5032,-1.4967,-1.488,-1.4885,-1.4899,-1.4859,-1.4966,-1.5038,-1.5002,-1.5057,-1.4974,-1.4607,-1.5655,-1.6554,-1.6589,-1.6261,-1.6396,-1.7555,-1.6929,-1.6263,-1.5904,-1.5041,-1.3641,-1.1513,-0.8886,-0.6096,-0.3132,-0.1347,0.0225,0.1848,0.2364,0.2567,0.2516,0.2296,0.2073,0.1678,0.1428,0.0756,-0.0336,-0.0891,-0.1663,0.0,0.0,0.0,0.0,0.0,0.0,0.0,0.0,-1.2698,-1.3029,-1.3259,-1.3343,-1.3384,-1.3003,-1.2743,-1.2982,-1.2053,-1.1399,-1.1626,-1.1592,-1.1736,-1.2245,-1.2511,-1.265,-1.2677,-1.254,-1.2342,-1.2079,-1.2054,-1.2076,-1.2048,-1.1989,-1.191,-1.18,-1.2564,-1.2878,-1.2688,-1.3718,-1.4328,-1.4519,-1.4817,-1.4892,-1.486,-1.5129,-1.5032,-1.4662,-1.4479,-1.439,-1.4437,-1.4991,-1.5335,-1.5515,-1.5857,-1.5674,-1.5183,-1.4934,-1.4748,-1.4632,-1.4738,-1.4794,-1.4794,-1.4822,-1.4813,-1.4804,-1.4854,-1.4873,-1.4902,-1.4992,-1.5015,-1.4992,-1.4875,-1.4848,-1.4807,-1.4631,-1.459,-1.4593,-1.4526,-1.4695,-1.4824,-1.4804,-1.4973,-1.5101,-1.4945,-1.5515,-1.6021,-1.6094,-1.5679,-1.6115,-1.8208,-1.794,-1.7368,-1.6875,-1.5654,-1.3888,-1.1474,-0.7295,-0.3801,-0.1215,-0.0142,0.0742,0.1596,0.2426,0.3052,0.3284,0.2971,0.2833,0.2785,0.245,0.2023,0.1511,0.1686,0.0668,-0.9686,-0.9963,-1.025,-1.0992,-1.1095,-1.1117,0.0,0.0,-1.1807,-1.1747,-1.228,-1.2787,-1.2704,-1.2677,-1.2615,-1.266,-1.2411,-1.2263,-1.2206,-1.2121,-1.1877,-1.1578,-1.2131,-1.2522,-1.2522,-1.2281,-1.2063,-1.1957,-1.1689,-1.1548,-1.1497,-1.1253,-1.1443,-1.2102,-1.2132,-1.24,-1.2959,-1.3218,-1.363,-1.4237,-1.4351,-1.4713,-1.533,-1.5109,-1.4991,-1.4949,-1.4859,-1.4783,-1.4661,-1.4533,-1.4734,-1.5009,-1.4338,-1.4412,-1.4876,-1.5202,-1.5056,-1.4683,-1.4707,-1.4757,-1.4812,-1.4866,-1.4857,-1.4803,-1.4802,-1.4813,-1.4804,-1.4756,-1.4738,-1.4728,-1.4651,-1.4624,-1.4625,-1.4605,-1.4592,-1.4606,-1.4587,-1.4612,-1.4669,-1.4783,-1.4862,-1.4726,-1.4062,-1.4086,-1.4694,-1.6221,-1.6777,-1.7275,-1.7966,-1.7441,-1.7149,-1.7535,-1.5918,-1.285,-0.7935,-0.4908,-0.2427,-0.0418,0.0147,0.1066,0.257,0.3901,0.4789,0.524,0.5956,0.588,0.5011,0.5009,0.4879,0.4792,0.5403,0.4276,-0.905,-0.9715,0.0,0.0,-1.074,-1.1217,-1.1606,-1.1816,-1.1979,-1.2187,-1.2469,-1.2607,-1.256,-1.2424,-1.2316,0.0,-1.1933,-1.1557,-1.1592,-1.1263,-1.1005,-1.0917,-1.1259,-1.1603,-1.1814,-1.1556,-1.1488,-1.173,-1.1545,-1.1376,-1.1308,-1.148,-1.1693,-1.1903,-1.2484,-1.291,-1.3184,-1.3471,-1.3772,-1.4093,-1.384,-1.3914,-1.4319,-1.4568,-1.4797,-1.4935,-1.4749,-1.456,-1.4388,-1.4156,-1.4128,-1.4224,-1.405,-1.3924,-1.3919,-1.445,-1.4515,-1.4375,-1.4484,-1.4541,-1.4566,-1.4606,-1.4585,-1.4581,-1.4658,-1.4658,-1.4627,-1.4639,-1.4678,-1.4658,-1.4475,-1.4211,-1.4069,-1.4271,-1.4071,-1.3926,-1.419,-1.4344,-1.4463,-1.461,-1.4736,-1.4935,-1.5268,-1.5345,-1.5795,-1.7059,-1.6248,-1.6116,-1.7833,-1.6871,-1.5654,-1.4656,-1.254,-0.979,-0.6279,-0.39,-0.1673,0.035,0.1102,0.2075,0.343,0.4068,0.4846,0.5798,0.5854,0.5947,0.5895,0.5551,0.5494,0.5468,0.5774,0.5521,-0.8365,0.0,0.0,-0.9825,-1.0542,-1.136,-1.1713,-1.1937,-1.208,-1.2244,-1.2299,-1.2286,-1.2116,-1.2017,-1.1978,-1.218,-1.1636,-1.1248,-1.1353,-1.094,-1.0557,-1.0446,-1.0461,-1.0626,-1.1002,-1.0967,-1.1054,-1.1288,-1.1233,-1.1165,-1.0994,-1.1428,-1.1701,-1.1801,-1.2602,-1.3097,-1.3247,-1.3445,-1.3665,-1.3877,-1.3484,-1.339,-1.3629,-1.3888,-1.4109,-1.4219,-1.3998,-1.3848,-1.367,-1.3417,-1.3306,-1.3342,-1.3525,-1.3321,-1.3015,-1.3497,-1.3813,-1.402,-1.4172,-1.4302,-1.4368,-1.4246,-1.4295,-1.4411,-1.4517,-1.4522,-1.4462,-1.4336,-1.4329,-1.4301,-1.3958,-1.3611,-1.3444,-1.3795,-1.347,-1.3259,-1.3877,-1.4004,-1.4093,-1.4363,-1.4788,-1.5365,-1.6184,-1.6362,-1.6645,-1.7344,-1.5686,-1.5157,-1.7331,-1.622,-1.4476,-1.2443,-1.0113,-0.7852,-0.5637,-0.3204,-0.1052,0.0698,0.2212,0.3488,0.46,0.507,0.5865,0.7049,0.6711,0.6777,0.7172,0.6573,0.6251,0.6293,0.6086,0.6198,-0.7896,-0.8834,-0.9909,-1.0186,-1.072,-1.1306,-1.1713,-1.1864,-1.1687,-1.0997,-1.1305,-1.1619,-1.1217,-1.1344,-1.1602,-1.1853,-1.1977,-1.2044,-1.1972,-1.159,-1.1054,-1.0294,-0.994,-0.9803,0.0,-1.0602,-1.0906,-1.0669,-1.067,-1.066,-1.0542,-1.0767,-1.1254,-1.1972,-1.2091,-1.2441,-1.311,-1.2797,-1.296,-1.3587,-1.3351,-1.3447,-1.3858,-1.3169,-1.2761,-1.2575,-1.2506,-1.2448,-1.2448,-1.2236,-1.2229,-1.2348,-1.2271,-1.229,-1.2361,-1.2584,-1.3096,-1.3713,-1.3715,-1.4028,-1.432,-1.3872,-1.4028,-1.4392,-1.4405,-1.4411,-1.4281,-1.371,-1.3524,-1.3417,-1.2903,-1.2742,-1.2832,-1.3226,-1.2905,-1.2799,-1.378,-1.3659,-1.3498,-1.409,-1.5102,-1.592,-1.6074,-1.6278,-1.6422,-1.6526,-1.5536,-1.517,-1.6233,-1.547,-1.4084,-1.2206,-1.0249,-0.8234,-0.6067,-0.261,-0.0358,0.021,0.3205,0.5407,0.6188,0.7797,0.9007,0.9735,0.974,0.9733,0.9625,0.8696,0.8174,0.8004,0.7183,0.6665,-0.7637,-0.813,-0.8475,-0.9051,-0.9577,-0.9982,-0.995,-1.0031,-1.0101,-0.9978,-1.0,-1.0096,-1.0318,-1.0492,-1.0609,-1.06,-1.0872,-1.0802,-1.0214,-0.9735,-0.9305,-0.8807,-0.8385,0.0,0.0,0.0,0.0,-1.1074,-1.0899,-1.0789,-1.0893,-1.11,-1.1371,-1.1649,-1.1903,-1.2063,-1.21,-1.1593,-1.1351,-1.1431,-1.1332,-1.1754,-1.2615,-1.2102,-1.2034,-1.2342,-1.2236,-1.2188,-1.213,-1.193,-1.1828,-1.181,-1.1666,-1.1637,-1.1696,-1.2156,-1.2499,-1.2744,-1.3059,-1.3274,-1.3387,-1.3225,-1.3274,-1.3403,-1.3405,-1.3405,-1.3357,-1.3109,-1.3042,-1.2991,-1.276,-1.2444,-1.2274,-1.2796,-1.2501,-1.2431,-1.3606,-1.3565,-1.356,-1.4418,-1.4688,-1.4977,-1.5656,-1.5792,-1.5881,-1.6069,-1.5857,-1.5295,-1.4241,-1.3936,-1.269,-0.9797,-0.7656,-0.5515,-0.3268,-0.0913,0.0923,0.2149,0.4148,0.5774,0.7071,0.813,0.9029,0.9662,0.9492,0.9484,0.9466,0.9208,0.902,0.8982,0.8726,0.8176,-0.6675,-0.7078,-0.7315,-0.7829,-0.8466,-0.8985,-0.8875,-0.9039,-0.9328,-0.9584,-0.9466,-0.9428,-0.9835,-1.0043,-1.0123,-0.996,-1.0255,-1.0161,-0.9275,-0.8854,-0.8474,-0.7926,-0.7649,-0.7498,0.0,0.0,0.0,-1.0142,-1.028,-1.0344,-1.0327,-1.0776,-1.1085,-1.1191,-1.155,-1.1665,-1.1366,-1.1017,-1.0645,-1.0336,-1.0152,-1.0444,-1.1065,-1.0693,-1.0676,-1.1001,-1.1103,-1.11,-1.1117,-1.1176,-1.1228,-1.1271,-1.1229,-1.1213,-1.1303,-1.1693,-1.1853,-1.1947,-1.2466,-1.2758,-1.2866,-1.2704,-1.2758,-1.2902,-1.2902,-1.2857,-1.2786,-1.2622,-1.2549,-1.247,-1.2273,-1.1974,-1.1849,-1.2329,-1.1991,-1.1902,-1.3084,-1.2963,-1.2887,-1.377,-1.4024,-1.432,-1.4987,-1.502,-1.5026,-1.519,-1.4986,-1.4466,-1.3529,-1.2629,-1.1161,-0.8765,-0.5171,-0.228,-0.0644,0.2477,0.4804,0.5792,0.754,0.8983,0.9846,1.0585,1.1133,1.1381,1.1123,1.0973,1.1095,1.0752,1.071,1.0883,1.0143,0.9563,-0.5186,-0.5823,-0.6473,-0.6719,-0.7544,-0.83,-0.848,-0.8814,-0.9276,-0.965,-0.9511,-0.9405,0.0,0.0,-0.994,-0.9735,-1.0073,-1.0058,-0.9036,-0.8788,-0.841,0.0,0.0,0.0,0.0,0.0,0.0,-0.7728,0.0,-0.9295,-0.8922,-0.9799,-1.0364,-1.0509,-1.1007,-1.1166,-1.0914,-1.0914,-1.0704,-1.0332,-0.9878,-0.9568,-0.9407,-0.9041,-0.8851,-0.8743,-0.9165,-0.9417,-0.9504,-1.0059,-1.0409,-1.0675,-1.0897,-1.1041,-1.121,-1.1216,-1.1251,-1.1373,-1.1962,-1.2463,-1.2736,-1.23,-1.2459,-1.2806,-1.2806,-1.2713,-1.2556,-1.2236,-1.2067,-1.1856,-1.1474,-1.1402,-1.1465,-1.1873,-1.1474,-1.1282,-1.2247,-1.1931,-1.1626,-1.23,-1.3193,-1.3864,-1.3998,-1.3914,-1.3803,-1.3795,-1.255,-1.2226,-1.3829,-1.1191,-0.904,-0.8671,-0.2414,0.1777,0.182,0.7298,1.0715,1.0686,1.3086,1.4495,1.4472,1.4972,1.5159,1.4908,1.4503,1.4257,1.4166,1.33,1.3071,1.348,1.15,1.0829,-0.5147,-0.5466,-0.566,-0.6687,-0.713,-0.7341,-0.7394,-0.7183,-0.7133,-0.7687,-0.7219,-0.6926,0.0,0.0,0.0,-0.7203,-0.7985,0.0,-0.6501,-0.6384,0.0,-0.5433,0.0,-0.4598,-0.4329,-0.5193,0.0,0.0,-0.6165,-0.7416,-0.7511,-0.8153,-0.8783,-0.9297,-0.9688,-0.9917,-0.9961,-0.9562,-0.9446,-0.9646,-0.9343,-0.9275,-0.9377,-0.909,-0.8905,-0.8766,-0.9005,-0.914,-0.9215,-0.9476,-0.9862,-1.0339,-1.0459,-1.0783,-1.1197,-1.1259,-1.1285,-1.1311,-1.1473,-1.1599,-1.1675,-1.1509,-1.1533,-1.1629,-1.1629,-1.1613,-1.1553,-1.1475,-1.1428,-1.1386,-1.1334,-1.1241,-1.1229,-1.1382,-1.1196,-1.1213,-1.1951,-1.19,-1.1923,-1.2635,-1.2701,-1.2467,-1.1911,-1.1578,-1.1263,-1.0917,-0.4658,-0.3123,-1.1863,-0.5065,-0.0229,-0.2246,0.6355,1.1082,0.8134,0.9652,1.1922,1.4531,1.515,1.6607,1.9448,1.8953,1.8402,1.7828,1.7207,1.6284,1.5011,1.4986,1.4812,1.4569,1.397,1.3642,-0.4014,-0.4626,-0.5142,-0.6071,-0.6392,-0.6519,-0.6565,-0.6279,-0.616,-0.6557,-0.6193,0.0,-0.6549,-0.6692,0.0,0.0,0.0,0.0,-0.5247,-0.5092,-0.49,0.0,-0.3936,0.0,-0.3308,-0.3768,-0.3685,0.0,-0.477,-0.5982,-0.5892,-0.6301,-0.6965,-0.7782,-0.8059,-0.8231,-0.829,-0.8196,-0.8279,-0.8568,-0.8728,-0.8847,-0.8883,-0.8729,-0.8524,-0.8313,0.0,-0.8886,-0.9054,-0.9221,-0.9547,-0.9952,-0.9844,-1.0029,-1.0323,-1.028,-1.0296,-1.0333,-1.0225,-1.0234,-1.0336,-1.0991,-1.1204,-1.1204,-1.1204,-1.1159,-1.1133,-1.1174,-1.0935,-1.0642,-1.0758,-1.0708,-1.0682,-1.0697,-1.0857,-1.1048,-1.1437,-1.1135,-1.0796,-1.0822,-1.075,-1.0456,-0.9712,-0.7919,-0.6568,-0.6623,0.1771,0.567,-0.1155,0.5951,1.1043,0.958,1.6803,2.0768,1.8522,1.8988,2.0288,2.2252,2.0984,2.1168,2.334,2.2221,2.114,2.037,1.9841,1.8768,1.7338,1.7548,1.7493,1.7147,1.6647,1.6221,-0.2736,-0.367,-0.4797,-0.5362,-0.5651,-0.5767,-0.5901,-0.5791,-0.5719,-0.5854,0.0,-0.5649,-0.5729,-0.5946,-0.5944,-0.5495,0.0,-0.5568,-0.4697,-0.4513,-0.4206,-0.3574,-0.3589,-0.3444,-0.3077,-0.2622,-0.22,-0.1951,-0.3672,-0.4529,-0.4161,-0.4512,-0.5204,-0.6362,-0.6509,-0.6622,-0.6637,-0.7069,-0.7337,-0.7492,-0.8084,-0.8256,-0.8055,-0.8002,-0.7889,-0.7711,-0.814,0.0,-0.8905,-0.9051,-0.9283,-0.9544,-0.9225,-0.9142,-0.9188,-0.9069,-0.9035,-0.9078,-0.8915,-0.8872,-0.9095,-1.0431,-1.092,-1.0995,-1.0876,-1.0854,-1.0852,-1.0845,-1.0296,-0.9758,-0.9896,-0.9907,-0.9907,-0.9939,-1.023,-1.051,-1.051,-0.9715,-0.8734,-0.7994,-0.8084,-0.7929,-0.6768,-0.3639,-0.1283,-0.131,0.793,1.4642,1.3972,1.9311,2.3007,2.2629,2.7488,3.0438,2.9688,3.0379,3.0992,3.1287,2.8737,2.7332,2.746,2.588,2.4552,2.3499,2.3094,2.2244,2.1043,2.0894,2.0759,2.0517,1.9333,1.8584,-0.3003,-0.3459,-0.3864,-0.5761,-0.5816,-0.5444,-0.5711,-0.5176,0.0,0.0,-0.462,-0.431,-0.4801,-0.4926,-0.4714,-0.4206,-0.4793,-0.4928,-0.3887,-0.3706,-0.3403,0.0,-0.2281,-0.1775,-0.1163,0.0,0.0,0.0,0.0,-0.1896,-0.2794,-0.3442,-0.4585,-0.6195,-0.6455,-0.673,-0.7009,-0.7111,-0.7219,-0.7315,-0.7052,-0.7063,-0.73,-0.6869,-0.7079,-0.7717,-0.7558,0.0,-0.8495,-0.8235,-0.8426,-0.8846,-0.8663,-0.891,-0.9257,-0.9142,-0.9112,-0.909,-0.9058,-0.8961,-0.8844,-0.8984,-0.9506,-0.9915,-0.9267,-0.9485,-0.9868,-0.9246,-0.8924,-0.8841,-0.8976,-0.8958,-0.8891,-0.8984,-0.8796,-0.8581,-0.8533,-0.7237,-0.6089,-0.607,-0.6181,-0.4957,-0.0757,-0.0094,0.1091,0.4918,1.6494,2.5125,2.6255,3.0502,3.1806,2.7594,3.5133,3.8732,3.4399,3.3645,3.4239,3.6292,3.4596,3.4059,3.5265,3.3397,3.1496,2.9889,2.9387,2.8279,2.6439,2.5458,2.4284,2.2926,2.1569,2.0815,-0.1616,-0.2381,-0.3153,-0.4242,-0.4232,-0.4036,-0.442,0.0,0.0,0.0,-0.3738,-0.3479,-0.4009,-0.3921,-0.3652,-0.3243,-0.3611,-0.3638,-0.2759,-0.2643,-0.2364,-0.1644,-0.1215,-0.0683,0.0,0.0,0.0,0.0,0.0,-0.0184,-0.1322,-0.2299,-0.3125,-0.3866,-0.4545,-0.5012,-0.5253,-0.6131,-0.6573,-0.6735,-0.6945,-0.7004,-0.6966,-0.681,-0.681,-0.6912,-0.6858,0.0,-0.7439,-0.7241,-0.727,-0.7477,-0.7268,-0.7267,-0.7292,-0.7154,-0.7315,-0.7588,-0.7495,-0.7416,-0.733,-0.7201,-0.8063,-0.9116,-0.8804,-0.8924,-0.9116,-0.8795,-0.8269,-0.7604,-0.6917,-0.6532,-0.6393,-0.6441,-0.6563,-0.6592,-0.6169,-0.362,-0.1342,-0.1039,0.0149,0.1874,0.4323,0.7576,1.0685,1.2996,2.5195,3.4394,3.5144,4.0224,4.2864,4.0575,4.4135,4.5477,4.2559,4.0777,4.015,4.0847,3.8572,3.7551,3.847,3.6523,3.5025,3.4098,3.3046,3.1747,3.0329,2.908,2.7859,2.6633,2.6056,2.5041,-0.0244,-0.1186,-0.2186,-0.2493,-0.2527,-0.2623,-0.3,-0.2843,0.0,-0.319,-0.3037,-0.2946,-0.3217,-0.3061,-0.2813,-0.2511,-0.2595,-0.2552,-0.1958,-0.1761,-0.1487,0.0,-0.0411,0.0,0.0903,0.0,0.0,0.0,0.0,0.0,-0.0421,-0.14,-0.1878,-0.1818,-0.2595,-0.3145,-0.3317,-0.4629,-0.5378,-0.5549,-0.6207,-0.6313,-0.6041,-0.6161,-0.605,-0.5823,-0.5958,0.0,0.0,-0.6391,-0.6372,-0.6284,-0.6077,-0.5784,-0.5499,-0.5349,-0.5515,-0.5841,-0.5738,-0.5641,-0.5502,-0.5418,-0.6526,-0.7933,-0.7871,-0.7945,-0.7934,-0.7602,-0.6904,-0.5979,-0.4431,-0.3875,-0.3642,-0.3523,-0.3795,-0.383,-0.2693,0.0428,0.3362,0.4573,0.7048,0.9306,1.032,1.5722,2.0318,2.1716,3.2208,4.0184,4.0846,4.6433,5.0586,5.1224,5.0636,4.9946,4.9291,4.7308,4.5696,4.482,4.225,4.0717,4.0606,3.8989,3.7943,3.7582,3.631,3.5204,3.4311,3.2946,3.1861,3.0942,3.071,2.9431,-0.006,-0.0315,-0.0654,-0.1931,-0.2085,-0.1966,-0.2022,0.0,-0.2578,-0.2217,-0.2457,-0.2593,-0.2233,-0.2474,-0.2551,-0.204,-0.249,-0.2628,-0.2001,-0.1606,-0.12,-0.0868,0.0,0.0,0.108,0.0,0.0,0.0,0.0,0.0,-0.0766,-0.1373,-0.1698,-0.1818,-0.2052,-0.2293,-0.2392,-0.2883,-0.3166,-0.328,-0.3225,-0.3346,-0.3525,-0.3401,-0.3756,-0.4464,-0.4752,0.0,0.0,-0.628,-0.6268,-0.6013,-0.6025,-0.5784,-0.5499,-0.5349,-0.5065,-0.4751,-0.4751,-0.4402,-0.4007,-0.4007,-0.4747,-0.5576,-0.5053,-0.5442,-0.5656,-0.3812,-0.3671,-0.3681,-0.1975,-0.16,-0.151,-0.097,-0.0433,0.0652,0.3053,0.4731,0.6487,0.9166,1.1823,1.4984,1.9194,2.164,2.4931,3.0569,3.5202,3.9111,4.2032,4.5996,4.9155,5.0766,5.0699,5.0384,5.0029,4.9328,4.8544,4.7678,4.6721,4.5488,4.4028,4.314,4.2019,4.0595,4.0563,4.0313,3.9749,3.8042,3.6835,3.5869,3.4181,3.2343,0.1032,0.0764,0.053,-0.0067,-0.0196,-0.0375,-0.0856,0.0,-0.1521,-0.1859,-0.185,-0.1807,-0.1932,-0.185,-0.1669,-0.135,-0.1582,-0.1655,-0.114,-0.0882,-0.0559,0.0064,0.088,0.0,0.0,0.0,0.0,0.0,0.0,0.0,0.0923,0.0718,0.0639,0.0743,-0.0185,-0.0725,-0.0819,-0.2016,-0.2409,-0.1893,-0.2055,-0.2136,-0.2198,-0.2198,-0.2613,-0.3243,-0.3563,0.0,0.0,-0.4062,-0.4008,-0.3764,-0.3526,-0.315,-0.2709,-0.2456,-0.2351,-0.2454,-0.2873,-0.2547,-0.2009,-0.2438,-0.2121,-0.1824,-0.3155,-0.3627,-0.3447,-0.2334,-0.1949,-0.1362,0.0616,0.1594,0.2413,0.3997,0.4451,0.521,0.7557,1.0332,1.326,1.6033,1.8887,2.1904,2.5481,2.9237,3.2542,3.5047,4.0033,4.403,4.5421,4.7926,4.9877,5.0696,5.0969,5.0825,5.0144,4.9835,4.9183,4.8066,4.7464,4.6757,4.5954,4.5131,4.449,4.403,4.2692,4.2043,4.2043,4.0298,3.9237,3.8666,3.7727,3.636,0.1665,0.1453,0.113,0.1129,0.096,0.0546,0.0,0.0,-0.0866,-0.133,-0.1244,-0.1193,-0.1395,-0.1245,-0.1017,-0.0744,-0.0956,-0.1048,-0.0551,-0.0389,-0.0119,0.0546,0.0,0.2308,0.0,0.0,0.0,0.0,0.0,0.0,0.2751,0.2817,0.2715,0.2381,0.1332,0.0807,0.0843,-0.0485,-0.0803,-0.0254,-0.0454,-0.0526,-0.0464,-0.0922,-0.13,-0.1661,-0.2384,0.0,0.0,-0.2556,-0.2448,-0.2073,-0.1744,-0.1176,-0.0507,-0.0335,-0.011,0.0,-0.0869,-0.0498,0.0227,-0.0513,0.0473,0.1638,0.0,-0.091,-0.1241,-0.043,0.1119,0.2773,0.4259,0.59,0.7536,0.8896,0.9831,1.1066,1.3244,1.6534,1.9909,2.2667,2.5715,2.8581,3.1116,3.5534,3.9061,4.0032,4.4313,4.7605,4.8172,4.9567,5.0538,5.0675,5.1093,5.1092,5.0419,5.024,4.9697,4.8692,4.8163,4.7674,4.7281,4.6547,4.6059,4.5938,4.4316,4.3481,4.3539,4.2108,4.1358,4.1212,4.0868,3.989,0.1615,0.1387,0.1033,0.1225,0.082,0.0243,0.0114,-0.0465,-0.0885,-0.0429,-0.0609,-0.0786,-0.0393,-0.0652,-0.0755,-0.0295,-0.0872,-0.1199,-0.0599,-0.0312,-0.0109,0.0,0.0,0.254,0.0,0.0,0.0,0.0,0.0,0.0,0.43,0.4564,0.4038,0.2445,0.218,0.2182,0.2376,0.2175,0.2032,0.2089,0.2089,0.205,0.1959,0.0849,0.035,0.0,0.0,0.0,0.0,-0.2439,-0.2242,-0.1561,-0.1393,-0.068,0.029,0.0056,0.1098,0.2419,0.1179,0.1667,0.2624,0.1898,0.2855,0.4353,0.4925,0.3036,0.0989,0.2677,0.6146,0.9365,0.9294,1.1621,1.3869,1.3184,1.5601,1.8649,2.0743,2.318,2.5837,2.8587,3.1806,3.4722,3.6615,3.9949,4.3472,4.6709,4.7423,4.8116,4.9599,5.0306,5.0702,5.0702,5.1054,5.1222,5.1005,5.081,5.0522,5.0087,4.9513,4.8851,4.8142,4.7634,4.6883,4.5819,4.5529,4.5142,4.4691,4.3914,4.3638,4.3756,4.3279,4.2252,0.1126,0.1055,0.0914,0.0759,0.0664,0.0518,0.0304,-0.0047,-0.0299,-0.0195,-0.0264,-0.0299,-0.0187,-0.0272,-0.0284,-0.0084,-0.0262,-0.0362,-0.0186,0.0752,0.0,0.1879,0.3654,0.4936,0.0,0.0,0.0,0.0,0.0,0.0,0.5415,0.6071,0.565,0.3969,0.4181,0.4011,0.3471,0.3294,0.3289,0.3527,0.3386,0.3252,0.3119,0.2807,0.2296,0.0,0.0,0.0,0.0,0.089,0.1051,0.1527,0.1974,0.2448,0.2949,0.3332,0.396,0.4581,0.4661,0.5337,0.6205,0.6157,0.6902,0.8009,0.8854,0.7572,0.6262,0.8169,0.9516,1.0757,1.2213,1.4481,1.6692,1.7973,1.9772,2.1958,2.5028,2.6417,2.8176,3.202,3.3862,3.5684,3.8314,4.1661,4.4353,4.5421,4.7625,4.9435,5.0176,5.0526,5.0782,5.1021,5.1166,5.1156,5.0946,5.0658,5.0356,5.004,4.9636,4.9221,4.8788,4.8181,4.7593,4.7034,4.6213,4.5632,4.5302,4.4746,4.4259,4.3772,4.3654,4.3064,0.0703,0.0738,0.0655,0.0446,0.0466,0.0477,0.0143,0.0044,0.0,-0.0074,-0.0072,-0.0071,-0.0106,-0.0075,-0.004,0.0,0.0,0.0182,0.0654,0.1513,0.0,0.331,0.0,0.0,0.0,0.0,0.0,0.0,0.0,0.0,0.6396,0.7051,0.6854,0.5609,0.5834,0.5781,0.5206,0.5125,0.5199,0.5426,0.4971,0.4731,0.4563,0.4018,0.3503,0.0,0.0,0.0,0.0,0.3174,0.3566,0.3877,0.4374,0.5092,0.5876,0.5875,0.6515,0.7418,0.7487,0.8037,0.8748,0.9248,1.0447,1.2066,1.3312,1.1997,1.0457,1.1943,1.2833,1.3866,1.6062,1.8154,2.0258,2.2252,2.4554,2.68,2.8917,3.0739,3.2966,3.621,3.737,3.874,4.1725,4.4169,4.5938,4.6616,4.8607,5.0145,5.0547,5.0752,5.0953,5.1137,5.1177,5.1128,5.0951,5.072,5.049,5.0243,5.0019,4.9674,4.9215,4.8754,4.8274,4.7813,4.6874,4.6341,4.6213,4.5563,4.5001,4.4373,4.4276,4.3798,0.0,0.0355,0.0274,0.0274,0.0255,0.0189,-0.0188,-0.0125,0.0,-0.0073,-0.0035,-0.0034,-0.0068,-0.0037,0.0039,0.0039,0.0085,0.0508,0.1791,0.2106,0.2817,0.0,0.6424,0.0,0.0,0.0,0.0,0.0,0.0,0.0,0.7321,0.7637,0.7707,0.7377,0.7377,0.7312,0.7246,0.7381,0.748,0.7396,0.6724,0.6333,0.62,0.4714,0.4178,0.0,0.0,0.0,0.0,0.4769,0.5391,0.5716,0.6041,0.7283,0.8788,0.7711,0.8679,1.043,0.9831,1.0043,1.0635,1.1484,1.3663,1.6272,1.7917,1.6123,1.3643,1.4407,1.6156,1.8279,2.0435,2.248,2.4378,2.5988,2.9421,3.2382,3.2332,3.5707,3.9139,4.051,4.16,4.3164,4.5915,4.6836,4.7764,4.9505,5.0004,5.0297,5.0693,5.1005,5.1191,5.113,5.1171,5.1156,5.1011,5.0932,5.08,5.0619,5.0528,5.0178,4.9493,4.9246,4.8822,4.8162,4.7469,4.714,4.7176,4.6323,4.5734,4.5441,4.514,4.4519,0.0077,0.0,0.0086,0.0086,0.0084,0.0041,0.0,-0.0038,0.0,-0.0035,0.0,0.0,-0.0035,0.0151,0.0357,0.0493,0.0692,0.121,0.2271,0.3923,0.5447,0.6736,0.7903,0.0,0.0,0.0,0.0,0.0,0.0,0.8389,0.8361,0.9069,0.9402,0.921,0.9017,0.8431,0.7386,0.7972,0.7932,0.7391,0.7391,0.7292,0.7142,0.7337,0.7313,0.0,0.0,0.0,0.7744,0.8084,0.8397,0.8725,0.892,0.9319,0.9746,0.9737,1.0072,1.0748,1.2488,1.3146,1.3576,1.536,1.7529,1.9541,2.0315,1.8163,1.6178,1.9099,1.9565,1.9986,2.322,2.5834,2.7773,2.8182,3.0713,3.3341,3.4254,3.6572,3.8808,4.0167,4.167,4.3116,4.4379,4.5324,4.6504,4.8251,4.9221,5.0061,5.0981,5.1152,5.1218,5.1245,5.1215,5.1178,5.1147,5.0951,5.0764,5.0625,5.0488,5.0336,5.01,4.9636,4.9246,4.8855,4.7652,4.7044,4.7062,4.6116,4.5615,4.5529,4.5177,4.4742,0.0,0.0,0.0,0.0,0.0,0.0,0.0,0.0,0.0,0.0,0.0,0.0071,0.0299,0.0826,0.1181,0.1054,0.1861,0.2748,0.3521,0.4964,0.6368,0.7608,0.856,0.0,0.0,0.0,0.0,0.0,0.0,0.9268,0.9274,0.9664,1.0046,1.0361,1.0296,0.9651,0.8366,0.8759,0.8759,0.8366,0.8842,0.8887,0.8701,0.9251,0.9374,0.0,0.0,0.0,0.991,1.0766,1.1304,1.1575,1.1704,1.2217,1.2874,1.2561,1.2737,1.3415,1.4999,1.6239,1.7358,1.8854,2.0609,2.2143,2.236,2.159,2.0994,2.2781,2.2931,2.3201,2.6103,2.8135,2.9633,3.044,3.2338,3.4346,3.5811,3.7614,3.9656,4.1821,4.3105,4.4236,4.5319,4.594,4.6644,4.7734,4.8452,4.9129,4.9868,5.0391,5.0706,5.0703,5.1008,5.1199,5.1152,5.1009,5.0851,5.0663,5.0606,5.0507,5.0302,4.9943,4.9551,4.9034,4.8157,4.7591,4.736,4.6717,4.6376,4.6235,4.5684,4.5266,0.0067,0.0183,0.0237,0.0039,0.0,0.0,0.0,0.0071,0.0105,0.011,0.0147,0.0414,0.1088,0.1718,0.2098,0.1939,0.3361,0.4686,0.5325,0.6104,0.7069,0.8111,0.9066,0.0,0.0,0.0,0.0,0.0,0.0,0.0,0.0,1.0303,1.0607,1.13,1.1372,1.0929,0.9987,0.9987,0.9962,0.9982,1.0673,1.086,1.0649,1.0985,1.1085,1.0926,0.0,0.0,1.1381,1.2992,1.3763,1.4063,1.4179,1.5074,1.6342,1.5525,1.5765,1.6729,1.7378,1.8993,2.0974,2.1835,2.3079,2.4354,2.4659,2.5568,2.6453,2.6155,2.6246,2.6905,2.8824,2.9948,3.0983,3.2488,3.3914,3.5313,3.6767,3.8624,4.0775,4.344,4.4512,4.5447,4.6871,4.7008,4.7093,4.7661,4.781,4.8044,4.8487,4.936,4.9885,4.9804,5.0399,5.083,5.0901,5.0893,5.0855,5.0773,5.0789,5.0663,5.0325,5.0155,4.9711,4.894,4.866,4.8267,4.7793,4.7506,4.7222,4.6934,4.6284,4.5768,0.0336,0.1011,0.1329,0.0285,0.0,0.0,0.0,0.03,0.0578,0.0582,0.0892,0.1663,0.3268,0.2627,0.238,0.3995,0.5258,0.6533,0.0,0.0,0.9579,0.969,0.0,0.0,0.0,0.0,0.0,0.0,0.0,0.0,0.0,1.2424,1.2446,1.2431,1.2438,1.2349,1.2231,1.2231,1.2211,1.2296,1.2636,1.2721,1.2525,1.3393,1.3616,1.3201,0.0,1.4022,1.3983,1.4766,1.5109,1.5184,1.5696,1.6402,1.7133,1.6981,1.7367,1.8164,1.9317,2.0733,2.2283,2.3806,2.5181,2.6553,2.8236,2.9388,3.0253,3.0507,2.9812,2.9357,3.0798,3.1964,3.2935,3.3529,3.4697,3.5858,3.6474,3.8826,4.0961,4.1448,4.3371,4.5205,4.6138,4.5906,4.6129,4.7712,4.7586,4.7664,4.8636,4.8943,4.9041,4.8903,4.897,4.9264,4.9947,4.9951,5.0245,5.1,5.089,5.0681,5.0393,5.0155,4.9692,4.8996,4.873,4.8326,4.7793,4.7353,4.6972,4.6637,4.6186,4.5786,0.0202,0.0724,0.1164,0.0688,0.1146,0.1716,0.1579,0.1658,0.167,0.1408,0.1446,0.2024,0.372,0.3922,0.4685,0.7273,0.0,0.7623,0.8885,0.0,0.0,0.0,0.0,0.0,0.0,0.0,0.0,0.0,0.0,0.0,0.0,0.0,1.2991,1.3514,1.3974,1.4529,1.5087,1.5595,1.4889,1.3045,1.3991,1.4298,1.4127,1.559,1.5982,1.5575,0.0,1.6946,1.6896,1.7494,1.7917,1.8099,1.8435,1.8856,1.9334,1.9334,1.9647,2.0166,2.1632,2.3043,2.4582,2.6176,2.7621,2.8876,2.9754,3.0904,3.2077,3.274,3.245,3.1999,3.2639,3.3727,3.4734,3.4914,3.6011,3.7346,3.8431,4.0346,4.2132,4.3033,4.4184,4.5124,4.5499,4.5449,4.5627,4.6484,4.654,4.6683,4.7171,4.8183,4.884,4.8802,4.9539,4.9973,4.9906,4.977,5.009,5.1042,5.0906,5.0699,5.0464,5.0024,4.9485,4.881,4.8513,4.8151,4.7663,4.7493,4.7338,4.7187,4.6788,4.6507,0.0101,0.0611,0.1209,0.1382,0.2133,0.2793,0.2772,0.2722,0.2633,0.2624,0.2571,0.3041,0.4628,0.5607,0.6993,0.9384,0.8952,0.8794,0.0,0.0,0.0,0.0,0.0,0.0,0.0,0.0,0.0,0.0,0.0,0.0,0.0,0.0,1.4334,1.5086,1.5819,1.6582,1.7413,1.8277,1.7311,1.4626,1.5845,1.6344,1.6264,1.7718,1.8112,1.7782,1.8744,1.9149,1.9089,1.9675,2.0141,2.0438,2.0492,2.0966,2.1565,2.1871,2.2085,2.2408,2.3878,2.5246,2.6679,2.8254,2.9894,3.1303,3.1662,3.2786,3.4056,3.4808,3.5008,3.4992,3.4798,3.5566,3.641,3.6594,3.7481,3.8732,4.0245,4.1681,4.3098,4.4431,4.5106,4.5461,4.5461,4.5764,4.6042,4.6119,4.6338,4.6532,4.6571,4.7871,4.8814,4.8849,4.9909,5.0402,4.9973,4.9983,5.04,5.1291,5.0935,5.0739,5.0755,5.0241,4.9683,4.914,4.8973,4.8598,4.8052,4.8218,4.8127,4.7843,4.7527,4.7241,0.037,0.143,0.2466,0.249,0.2002,0.1685,0.2313,0.2616,0.3145,0.4417,0.5004,0.5766,0.7333,0.7767,0.8062,0.8436,0.9403,0.0,0.0,0.0,0.0,0.0,0.0,0.0,0.0,0.0,0.0,0.0,0.0,0.0,0.0,0.0,0.0,1.7881,1.7948,1.8113,1.8375,1.9079,1.92,1.8701,1.9017,1.9284,1.9456,1.9826,1.9841,1.9632,1.9726,1.9749,1.9783,2.0185,2.0392,2.0412,2.0882,2.1694,2.2823,2.4214,2.4714,2.4808,2.5962,2.689,2.7866,2.9678,3.182,3.4005,3.5382,3.6614,3.7523,3.7621,3.8156,3.8547,3.7789,3.7652,3.795,3.8677,3.9065,3.9494,4.0534,4.1932,4.3077,4.3366,4.514,4.6589,4.6589,4.7313,4.7976,4.8246,4.8308,4.8385,4.8563,4.8704,4.8771,4.871,4.8764,4.904,4.9672,5.0505,5.1296,5.1981,5.1086,5.0816,5.1497,5.1116,5.0861,5.0749,5.0842,5.0512,4.9757,4.9864,4.9334,4.8263,4.8217,4.7593,0.0561,0.1673,0.2755,0.2668,0.2672,0.295,0.379,0.4476,0.4748,0.45,0.5673,0.7058,0.7878,0.9508,1.0654,1.0157,1.1005,0.0,0.0,0.0,0.0,0.0,0.0,0.0,0.0,0.0,0.0,0.0,0.0,0.0,0.0,0.0,0.0,1.8355,1.8936,1.9201,1.9278,2.0333,2.0894,2.1024,2.0313,2.0104,2.0475,2.114,2.1458,2.1704,2.2837,2.3344,2.3382,2.393,2.3895,2.3564,2.3305,2.3637,2.4356,2.5084,2.5482,2.5886,2.74,2.9039,3.0731,3.2437,3.4562,3.6534,3.7093,3.754,3.8082,3.8958,3.944,3.9495,3.8841,3.8988,3.9451,3.9863,4.0691,4.1455,4.1927,4.3728,4.5265,4.535,4.6627,4.7681,4.7681,4.8048,4.8397,4.8542,4.8634,4.8708,4.8786,4.9267,4.9595,4.9562,4.9469,4.9496,4.9674,5.0037,5.0264,5.0296,5.0545,5.1125,5.2125,5.1444,5.1005,5.0837,5.0949,5.0714,5.0192,5.0071,4.9908,4.9694,4.9424,4.9081,0.0947,0.188,0.2786,0.2816,0.3182,0.3908,0.5126,0.5642,0.5903,0.5811,0.7206,0.8622,0.8899,1.0553,0.0,0.0,0.0,0.0,0.0,0.0,0.0,0.0,0.0,0.0,0.0,0.0,0.0,0.0,0.0,0.0,0.0,0.0,0.0,0.0,1.9824,2.0204,2.0268,2.1325,2.2037,2.2396,2.168,2.1416,2.1596,2.2322,2.2834,2.3205,2.4575,2.5242,2.5468,2.6223,2.662,2.6647,2.6022,2.6081,2.6567,2.6817,2.7059,2.7591,2.9131,3.1014,3.2872,3.4153,3.6252,3.8306,3.8306,3.8649,3.9233,4.02,4.0691,4.0919,4.0842,4.0831,4.0921,4.1323,4.2184,4.3118,4.3826,4.5398,4.678,4.7139,4.8067,4.8813,4.8813,4.9118,4.941,4.9464,4.9561,4.9628,4.9625,5.0145,5.0488,5.0438,5.0352,5.0219,5.0089,5.0055,5.0049,5.0048,5.0356,5.0979,5.1969,5.1499,5.1064,5.0756,5.1445,5.1474,5.0769,5.0889,5.1019,5.1055,5.061,5.028,0.1511,0.2057,0.2617,0.3027,0.3398,0.4181,0.5801,0.5928,0.6331,0.8732,1.0008,1.0704,1.0798,1.0872,0.0,0.0,0.0,0.0,0.0,0.0,0.0,0.0,0.0,0.0,0.0,0.0,0.0,0.0,0.0,0.0,0.0,0.0,0.0,0.0,2.0914,2.1042,2.1244,2.1886,2.242,2.2834,2.3505,2.359,2.3138,2.359,2.3813,2.3872,2.4363,2.4811,2.5336,2.6451,2.7864,2.9261,2.8741,2.8907,2.9523,2.9825,2.9933,3.0182,3.1241,3.2697,3.4052,3.4333,3.6602,3.9231,3.9231,4.0262,4.1472,4.1534,4.2157,4.3176,4.4218,4.3351,4.2444,4.3226,4.3509,4.4154,4.6082,4.6665,4.7133,4.8283,4.926,4.9897,4.9916,5.0672,5.1312,5.1396,5.1406,5.14,5.1398,5.1394,5.1347,5.121,5.1136,5.1056,5.0906,5.0844,5.1123,5.1837,5.0688,5.0252,5.0884,5.1256,5.125,5.0732,5.273,5.3038,5.1627,5.2729,5.2876,5.2085,5.1609,5.0947,0.1784,0.2781,0.3673,0.3542,0.4515,0.5712,0.6692,0.7016,0.7925,1.0587,1.0833,1.0635,1.1142,1.1901,0.0,0.0,0.0,0.0,0.0,0.0,0.0,0.0,0.0,0.0,0.0,0.0,0.0,0.0,0.0,0.0,0.0,0.0,0.0,0.0,2.2946,2.3409,2.3474,2.3976,2.4331,2.4431,2.5029,2.5037,2.4607,2.5065,2.5441,2.5799,2.6704,2.7644,2.8591,2.9714,3.0492,3.0845,2.9958,2.9973,3.0382,3.033,3.0556,3.0979,3.2091,3.38,3.5668,3.6357,3.8328,4.0401,4.0401,4.0926,4.1561,4.1906,4.2523,4.3249,4.3948,4.3947,4.3986,4.4934,4.4787,4.4638,4.5413,4.6259,4.7167,4.816,4.9225,5.0166,5.0789,5.1122,5.1312,5.1396,5.1406,5.14,5.1398,5.1352,5.131,5.1201,5.1136,5.1056,5.0906,5.0844,5.0683,5.0441,4.9967,5.0336,5.1684,5.1129,5.1115,5.1814,5.1934,5.2305,5.3034,5.2459,5.25,5.3154,5.243,5.2028,0.2959,0.3633,0.4184,0.4759,0.5681,0.6776,0.8331,0.8969,0.9768,1.1751,1.1965,1.1781,1.2087,1.2757,0.0,0.0,0.0,0.0,0.0,0.0,0.0,0.0,0.0,0.0,0.0,0.0,0.0,0.0,0.0,0.0,0.0,0.0,0.0,0.0,2.3579,2.3989,2.4144,2.4564,2.4937,2.5256,2.5959,2.6269,2.6299,2.6208,2.6326,2.6703,2.8144,2.9439,3.0573,3.1888,3.2742,3.3077,3.2658,3.2385,3.227,3.247,3.2648,3.2912,3.3857,3.5554,3.7434,3.8001,3.9382,4.0918,4.1088,4.1445,4.1864,4.2338,4.2978,4.3675,4.4449,4.4664,4.4833,4.5439,4.5228,4.5109,4.5856,4.6808,4.7824,4.8794,4.9809,5.0677,5.1203,5.1322,5.1346,5.1396,5.1406,5.1394,5.1398,5.1323,5.1209,5.1092,5.0998,5.0906,5.0754,5.0682,5.0425,4.9911,4.9692,4.9984,5.0867,5.0516,5.0449,5.0726,5.1435,5.2048,5.2582,5.2592,5.3022,5.3737,5.2944,5.2608,0.4453,0.4439,0.4394,0.6292,0.6894,0.7733,1.0388,1.1264,1.1715,1.2446,0.0,1.3556,1.3321,0.0,0.0,0.0,0.0,0.0,0.0,0.0,0.0,0.0,0.0,0.0,0.0,0.0,0.0,0.0,0.0,0.0,0.0,0.0,0.0,2.3372,2.3497,2.3689,2.4068,2.4452,2.496,2.5714,2.6633,2.7387,2.8078,2.7267,2.6959,2.7121,2.9094,3.0534,3.1637,3.322,3.4431,3.5364,3.5763,3.5303,3.4492,3.527,3.5381,3.5245,3.5975,3.7412,3.8999,3.918,4.0044,4.1088,4.1445,4.1906,4.2378,4.2788,4.3456,4.4244,4.5266,4.5325,4.5137,4.5161,4.5161,4.5514,4.6906,4.7818,4.8693,4.9796,5.0638,5.1203,5.13,5.1362,5.1398,5.1402,5.14,5.1394,5.1394,5.1277,5.1132,5.0914,5.0778,5.0644,5.0507,5.0399,5.024,4.9949,4.9637,4.9327,4.9071,4.9596,4.9473,4.8587,5.1064,5.1955,5.1137,5.2884,5.3796,5.3907,5.3133,5.2761,0.3488,0.4494,0.5395,0.6269,0.8054,0.9933,1.133,1.211,1.2628,1.3001,1.3021,1.3093,0.0,0.0,0.0,0.0,0.0,0.0,0.0,0.0,0.0,0.0,0.0,0.0,0.0,0.0,0.0,0.0,0.0,0.0,0.0,0.0,0.0,2.4917,2.5753,2.6244,2.6304,2.6814,2.7131,0.0,2.828,2.8844,2.9016,2.8947,2.9454,3.0406,3.2095,3.2713,3.262,3.4392,3.4775,3.4304,3.4647,3.4675,3.4562,3.4452,3.4644,3.5003,3.5906,3.7263,3.8711,3.9451,4.0674,4.1966,4.2032,4.2378,4.2788,4.3069,4.3638,4.4298,4.4884,4.5137,4.5321,4.5594,4.5563,4.5796,4.6952,4.7352,4.7975,4.9659,5.0151,5.0502,5.1183,5.1362,5.1404,5.1396,5.1402,5.1394,5.1394,5.1336,5.117,5.0926,5.0816,5.0677,5.0446,5.0159,4.9865,4.9551,4.9177,4.8903,4.8713,4.8935,4.9286,4.973,4.9726,5.0543,5.2252,5.2048,5.2493,5.344,5.3023,5.2608,0.4403,0.5061,0.5697,0.7517,0.9462,1.1229,1.2004,1.2426,1.2706,1.3199,1.3146,0.0,0.0,0.0,0.0,0.0,0.0,0.0,0.0,0.0,0.0,0.0,0.0,0.0,0.0,0.0,0.0,0.0,0.0,0.0,0.0,2.3708,2.4579,2.5611,2.6168,2.6608,2.6739,2.7066,2.7323,2.7656,2.8661,2.9656,3.0478,3.0012,3.0168,3.0797,3.2203,3.2639,3.242,3.394,3.4393,3.425,3.493,3.5077,3.4952,3.5527,3.5726,3.5874,3.6975,3.8242,3.9547,4.0358,4.1321,4.2279,4.2562,4.2847,4.3159,4.3652,4.4146,4.4599,4.4938,4.522,4.5495,4.5668,4.57,4.5989,4.7012,4.757,4.8292,4.9726,4.9995,5.0131,5.0599,5.0718,5.0917,5.1343,5.1394,5.1386,5.1302,5.1257,5.1113,5.0747,5.0656,5.0509,5.0245,5.0051,4.9749,4.9333,4.9099,4.8869,4.8569,4.8606,4.8936,4.9522,4.9858,5.0674,5.2029,5.2382,5.2901,5.3521,5.3023,5.2698,0.5321,0.5785,0.6218,0.9157,1.076,1.1712,1.2399,1.2459,1.2565,1.3379,0.0,0.0,0.0,0.0,0.0,0.0,0.0,0.0,0.0,0.0,0.0,0.0,0.0,0.0,0.0,0.0,0.0,0.0,0.0,0.0,2.3506,2.3922,2.4676,2.5949,2.6184,2.6518,2.6784,2.7058,2.7452,2.7987,2.8867,3.0194,3.1784,3.0851,3.0609,3.0947,3.1985,3.2524,3.269,3.3713,3.4344,3.4726,3.5722,3.5763,3.5399,3.6684,3.697,3.6831,3.8133,3.9329,4.0383,4.1374,4.1997,4.2501,4.3176,4.3385,4.352,4.4252,4.4657,4.4947,4.514,4.54,4.5616,4.5684,4.5771,4.6118,4.7077,4.7855,4.8651,4.9617,4.9917,5.0041,5.0199,5.0262,5.0566,5.1285,5.141,5.1352,5.1211,5.118,5.0991,5.0548,5.0429,5.0272,5.0012,4.9933,4.9703,4.9214,4.915,4.8937,4.8513,4.8457,4.8606,4.882,5.0249,5.1102,5.1361,5.2828,5.3626,5.3678,5.3048,5.2761,0.3757,0.5977,0.8359,1.0143,1.1004,1.1642,1.2111,1.2319,1.2594,0.0,0.0,0.0,0.0,0.0,0.0,0.0,0.0,0.0,0.0,0.0,0.0,0.0,0.0,0.0,0.0,0.0,0.0,0.0,0.0,0.0,2.5432,2.5571,2.5827,2.6408,2.7456,2.8069,2.816,2.9199,2.9776,2.9841,3.0467,3.1146,3.194,3.1811,3.2588,3.4109,3.471,3.5226,3.5875,3.6566,3.6109,3.511,3.5808,3.5893,3.5571,3.5768,3.6139,3.6723,3.8094,3.9007,3.9876,4.1751,4.2663,4.3176,4.3849,4.4053,4.4143,4.4546,4.4773,4.5006,4.5417,4.56,4.5738,4.5977,4.6056,4.626,4.7039,4.7356,4.7757,4.8779,4.9527,5.0245,5.1003,5.113,5.1191,5.1371,5.1411,5.1349,5.123,5.1103,5.0888,5.0548,5.039,5.0214,4.9933,4.9693,4.942,4.9118,4.8903,4.8695,4.8513,4.8401,4.842,4.8642,4.9639,5.0491,5.1232,5.2121,5.2876,5.3341,5.2857,5.2499,0.4624,0.6803,0.8904,1.0275,1.0893,1.1365,1.1721,1.25,1.3251,0.0,0.0,0.0,0.0,0.0,0.0,0.0,0.0,0.0,0.0,0.0,0.0,0.0,0.0,0.0,0.0,0.0,0.0,0.0,0.0,2.4542,2.5627,2.5849,2.6151,2.6589,2.7475,2.8075,2.8402,2.9179,2.9834,3.052,3.088,3.1422,3.2012,3.2645,3.3034,3.3223,3.4098,3.4607,3.4955,3.5859,3.5963,3.5462,3.584,3.5985,3.5975,3.6045,3.6259,3.6752,3.8457,3.9382,4.0131,4.2212,4.3211,4.3693,4.424,4.4448,4.4565,4.4929,4.5165,4.5358,4.5642,4.5769,4.5832,4.5958,4.6018,4.6124,4.6463,4.6999,4.7696,4.8625,4.9449,5.0122,5.0566,5.0621,5.0791,5.1318,5.14,5.1323,5.1113,5.1061,5.0893,5.0446,5.0361,5.0225,4.9933,4.9646,4.9389,4.9137,4.8834,4.8623,4.8401,4.8306,4.8344,4.842,4.9343,5.0268,5.1195,5.1952,5.2629,5.3198,5.2769,5.2408,0.5283,0.7058,0.859,1.0125,1.0876,1.1451,1.2031,0.0,1.3985,0.0,0.0,0.0,0.0,0.0,0.0,0.0,0.0,0.0,0.0,0.0,0.0,0.0,0.0,0.0,0.0,0.0,0.0,0.0,0.0,2.5443,2.5918,2.6126,2.6427,2.6714,2.7561,2.8239,2.8675,2.9458,3.0215,3.1087,3.1334,3.1652,3.2109,3.3259,3.3346,3.2609,3.4045,3.4778,3.5221,3.6062,3.6332,3.6256,3.6322,3.6354,3.6293,3.6461,3.6568,3.694,3.8731,3.958,4.0164,4.2432,4.3361,4.3677,4.4393,4.4674,4.4814,4.5213,4.5591,4.592,4.5833,4.6046,4.625,4.6037,4.5998,4.6113,4.6325,4.6792,4.756,4.888,4.9449,4.9854,5.0322,5.039,5.0637,5.1302,5.1388,5.13,5.1078,5.1005,5.0813,5.0377,5.0283,5.0163,4.9906,4.9722,4.9469,4.9137,4.8903,4.8641,4.8306,4.8306,4.8306,4.8306,4.8989,4.9821,5.0805,5.1782,5.2456,5.2886,5.2615,5.2361,0.4508,0.5867,0.7435,0.9826,1.1174,1.2297,0.0,0.0,0.0,0.0,0.0,0.0,0.0,0.0,0.0,0.0,0.0,0.0,0.0,0.0,0.0,0.0,0.0,0.0,0.0,0.0,0.0,0.0,0.0,2.6306,2.7159,2.7201,2.7066,2.6714,2.8545,2.952,2.9428,3.119,3.2049,3.2135,3.2135,3.2231,3.2413,3.356,3.4023,3.4125,3.6188,3.7861,3.8983,3.9086,3.8553,3.7675,3.7722,3.7212,3.6502,3.6502,3.6794,3.7379,3.8807,3.9128,3.9409,4.2196,4.2852,4.2823,4.4186,4.4738,4.4943,4.5213,4.6031,4.668,4.6054,4.6659,4.7203,4.6391,4.6189,4.6424,4.725,4.6819,4.7014,4.9536,4.9397,4.9365,5.0967,5.1232,5.1261,5.138,5.1349,5.1284,5.1191,5.0855,5.0567,5.0425,5.01,4.9925,4.9879,4.9898,4.9665,4.9118,4.9104,4.8834,4.8306,4.8306,4.8306,4.8306,4.8343,4.886,4.9765,5.1369,5.2201,5.2333,5.2253,5.2297,0.4759,0.5811,0.6898,0.8494,1.0144,1.1565,1.2359,1.386,0.0,0.0,0.0,0.0,0.0,0.0,0.0,0.0,0.0,0.0,0.0,0.0,0.0,0.0,0.0,0.0,0.0,0.0,0.0,0.0,0.0,0.0,2.7429,2.7335,2.7201,2.7066,2.8423,2.968,3.0783,3.2254,3.275,3.2342,3.2342,3.2302,3.2333,3.429,3.5125,3.522,3.7541,3.8459,3.8274,3.902,3.8705,3.779,3.779,3.7291,3.6502,3.6602,3.6873,3.7423,3.8772,3.9283,3.9667,4.1585,4.2519,4.3025,4.3702,4.4429,4.508,4.5254,4.5667,4.6182,4.6622,4.6679,4.6524,4.6254,4.6632,4.7274,4.8145,4.8088,4.8142,4.908,4.9883,5.0599,5.121,5.1291,5.1304,5.1328,5.1312,5.1211,5.0965,5.0816,5.0587,5.0221,5.0089,5.0005,4.9925,4.975,4.9558,4.9358,4.9038,4.8765,4.8569,4.8402,4.8306,4.8306,4.8306,4.8748,4.9691,5.026,5.093,5.1778,5.1814,5.1855,0.4734,0.5468,0.627,0.7891,0.9452,1.0901,1.2183,0.0,0.0,0.0,0.0,0.0,0.0,0.0,0.0,0.0,0.0,0.0,0.0,0.0,0.0,0.0,0.0,0.0,0.0,0.0,0.0,0.0,0.0,0.0,2.7361,2.7523,2.7776,2.8091,2.893,3.0092,3.1633,3.2646,3.2945,3.2553,3.2435,3.2342,3.2293,3.425,3.5338,3.568,3.7726,3.8459,3.8241,3.902,3.8756,3.7838,3.7838,3.7137,3.6244,3.6301,3.6605,3.7219,3.8366,3.9018,3.9593,4.107,4.2042,4.2707,4.309,4.4039,4.4995,4.5087,4.5573,4.6136,4.6584,4.6374,4.6102,4.6189,4.6638,4.7294,4.8189,4.8597,4.897,4.9568,5.0339,5.0984,5.1278,5.1316,5.1203,5.0906,5.0839,5.0722,5.0418,5.0325,5.0221,5.013,5.0063,5.0005,4.9925,4.9722,4.9558,4.9389,4.9038,4.8765,4.8569,4.8402,4.8306,4.8306,4.8306,4.862,4.9248,4.9483,5.0153,5.125,5.1183,5.114,0.0,0.0,0.0,0.7959,0.9147,0.0,1.3278,0.0,0.0,0.0,0.0,0.0,0.0,0.0,0.0,0.0,0.0,0.0,0.0,0.0,0.0,0.0,0.0,0.0,0.0,0.0,0.0,0.0,0.0,2.7367,2.7117,2.7842,2.8803,2.9747,3.0277,3.0968,3.1957,3.2303,3.2601,3.2834,3.2538,3.2342,3.2277,3.341,3.451,3.5632,3.6793,3.803,3.9239,3.9272,3.8756,3.7997,3.7838,3.698,3.5727,3.561,3.6072,3.6854,3.7664,3.8387,3.9176,4.067,4.1422,4.1845,4.2409,4.3587,4.4701,4.4776,4.5797,4.667,4.5901,4.5866,4.6056,4.6162,4.6215,4.6476,4.735,4.8211,4.9335,5.1034,5.0699,5.0403,5.1244,5.1323,5.0965,5.0127,4.9925,4.9779,4.9581,4.9332,4.9446,5.0073,4.9981,4.9898,4.9898,4.9898,4.9674,4.9169,4.9085,4.8869,4.8344,4.8306,4.8306,4.8306,4.8306,4.8306,4.8306,4.9132,4.9976,5.0765,5.0417,5.0308,0.4163,0.0,0.0,0.0,0.0,0.0,0.0,0.0,0.0,0.0,0.0,0.0,0.0,0.0,0.0,0.0,0.0,0.0,0.0,0.0,0.0,0.0,0.0,0.0,0.0,0.0,0.0,0.0,2.7169,2.7947,2.8457,2.8766,2.9135,2.9808,3.0369,3.0922,3.1294,3.208,3.2317,3.2053,3.2585,3.2711,3.2578,3.4224,3.5094,3.532,3.7183,3.8137,3.8543,3.9056,3.8653,3.7742,3.779,3.7325,3.6693,3.7312,3.7684,3.8034,3.8852,3.9374,3.978,4.0234,4.128,4.2384,4.2545,4.3401,4.4402,4.4701,4.516,4.5552,4.5665,4.6312,4.6785,4.6201,4.6612,4.7377,4.8248,4.9121,4.9877,5.037,5.077,5.1104,5.1284,5.0789,5.0263,4.9965,4.9332,4.8812,4.8616,4.895,4.9235,4.9262,4.9632,4.9898,4.9898,4.9898,4.975,4.942,4.9201,4.8937,4.8605,4.8402,4.8306,4.8306,4.8306,4.8306,4.8306,4.8545,4.9095,4.9939,5.0684,5.1456,0.4307,0.4728,0.5177,0.5855,0.0,0.0,0.0,1.2367,0.0,0.0,0.0,0.0,0.0,0.0,0.0,0.0,0.0,0.0,0.0,0.0,0.0,0.0,0.0,0.0,0.0,0.0,0.0,2.6625,2.7417,2.83,2.9338,2.9338,2.9574,3.0129,3.0759,3.1151,3.1202,3.2005,3.2243,3.1913,3.2616,3.2819,3.2656,3.3973,3.4743,3.5153,3.6394,3.7409,3.8245,3.8659,3.8502,3.8033,3.7554,3.71,3.6741,3.7214,3.7488,3.7736,3.8784,3.9507,4.0007,4.0111,4.12,4.2447,4.2396,4.3262,4.4337,4.4535,4.49,4.5323,4.5623,4.6151,4.6535,4.6105,4.6458,4.7131,4.8066,4.8944,4.9763,5.0507,5.1054,5.1386,5.1355,5.0587,4.9857,4.9421,4.8549,4.7876,4.7687,4.8007,4.8566,4.9377,4.9828,5.0342,5.0973,5.103,5.0903,5.0636,5.0341,5.0045,4.9785,4.9508,4.9352,4.9352,4.9352,4.9352,4.9352,4.9003,4.9279,5.0123,5.1511,5.2167,0.4646,0.4814,0.5068,0.6006,0.6308,0.0,0.9962,1.1067,0.0,0.0,0.0,0.0,0.0,0.0,0.0,0.0,0.0,0.0,0.0,0.0,0.0,0.0,0.0,0.0,0.0,2.4735,2.5363,2.6758,2.7552,2.8542,2.9808,2.9808,3.0007,3.0568,3.1119,3.1409,3.1409,3.1838,3.2079,3.2079,3.2588,3.2734,3.2695,3.323,3.4085,3.511,3.5175,3.6247,3.798,3.8146,3.8385,3.8555,3.7364,3.6666,3.6343,3.6327,3.647,3.689,3.8259,3.9337,4.0154,4.0351,4.1328,4.2399,4.2294,4.3237,4.4344,4.4363,4.4973,4.5601,4.5677,4.5781,4.591,4.6094,4.6154,4.645,4.742,4.8189,4.9179,5.092,5.1318,5.14,5.1396,5.0628,4.9701,4.8876,4.7947,4.7281,4.7108,4.7135,4.7971,4.9988,5.0268,5.087,5.2234,5.2348,5.2224,5.1935,5.1726,5.1488,5.1245,5.1006,5.0864,5.0864,5.0842,5.0879,5.093,5.0123,5.0086,5.0839,5.2362,5.2541,0.4958,0.5011,0.5322,0.5797,0.6261,0.0,0.7865,0.9879,0.0,0.0,0.0,0.0,0.0,0.0,0.0,0.0,0.0,0.0,0.0,0.0,0.0,0.0,0.0,0.0,0.0,2.4418,2.5217,2.641,2.8205,2.96,3.0418,3.0447,3.0447,3.0568,3.0684,3.0756,3.0756,3.1235,3.1427,3.1324,3.2318,3.2895,3.3093,3.3799,3.4415,3.4987,3.558,3.6059,3.6522,3.7715,3.8299,3.8387,3.7715,3.7416,3.7349,3.7551,3.7772,3.8143,3.9549,4.044,4.1043,4.1644,4.2438,4.3208,4.3358,4.3629,4.4046,4.4688,4.5222,4.5603,4.562,4.6259,4.692,4.6957,4.7097,4.745,4.8348,4.8135,4.8272,5.0018,5.0914,5.1391,5.14,5.0628,4.9921,4.9683,4.8884,4.8293,4.8192,4.8667,4.915,4.9618,5.0125,5.0542,5.0711,5.075,5.0607,5.0213,5.077,5.1028,5.074,5.1041,5.1232,5.136,5.1138,5.1316,5.1864,5.0971,5.0655,5.082,5.1793,5.2532,0.4967,0.5042,0.5435,0.5936,0.0,0.0,0.0,0.0,0.0,0.0,0.0,0.0,0.0,0.0,0.0,0.0,0.0,0.0,0.0,0.0,0.0,0.0,0.0,0.0,0.0,0.0,2.5192,2.6946,2.874,2.9857,3.0177,3.0453,3.0568,3.0568,3.0568,3.0568,3.0568,3.1248,3.1382,3.1087,3.2383,3.3061,3.3235,3.3917,3.4448,3.4916,3.5297,3.5661,3.6059,3.6804,3.7368,3.7752,3.7585,3.7597,3.7789,3.8579,3.8449,3.8231,4.0154,4.0991,4.1277,4.1636,4.2573,4.3582,4.3664,4.3992,4.4401,4.5033,4.54,4.5586,4.5586,4.6012,4.6424,4.6532,4.6627,4.6852,4.7392,4.7509,4.7771,4.8629,4.9859,5.0887,5.1333,5.0986,5.0638,5.0594,4.9829,4.9232,4.9193,4.9103,4.9368,5.0162,5.055,5.1035,5.1742,5.2143,5.2242,5.1999,5.256,5.2672,5.2137,5.2559,5.2713,5.2586,5.2456,5.2486,5.2647,5.222,5.2013,5.2013,5.2417,5.2863,0.5178,0.5222,0.5638,0.0,0.0,0.6762,0.0,0.0,0.0,0.0,0.0,0.0,0.0,0.0,0.0,0.0,0.0,0.0,0.0,0.0,0.0,0.0,0.0,0.0,0.0,0.0,2.5097,2.7526,2.8511,2.9229,2.9797,3.0207,3.0497,3.0568,3.0568,3.0568,3.0568,3.1404,3.1584,3.1264,3.2549,3.3228,3.3335,3.388,3.4399,3.4899,3.4899,3.5247,3.5794,3.5943,3.6357,3.6887,3.7184,3.7542,3.8069,3.8965,3.8803,3.8491,4.0613,4.1392,4.1461,4.1641,4.2659,4.3809,4.3809,4.4299,4.4962,4.5282,4.5476,4.5586,4.5586,4.5736,4.5899,4.6073,4.615,4.6208,4.6372,4.6989,4.7552,4.7725,4.9002,5.0307,5.1023,5.1238,5.1323,5.1316,5.081,5.0364,5.0179,4.9703,4.9809,5.0934,5.105,5.1547,5.2771,5.3412,5.3726,5.3624,5.4148,5.4173,5.3508,5.3943,5.3984,5.3628,5.3628,5.3497,5.3219,5.3304,5.3272,5.3206,5.3206,5.3206,0.0,0.0,0.0,0.0,0.6474,0.0,0.0,0.0,0.0,0.0,0.0,0.0,0.0,0.0,0.0,0.0,0.0,0.0,0.0,0.0,0.0,0.0,0.0,0.0,0.0,0.0,0.0,2.717,2.649,2.7079,2.9637,2.9827,3.009,3.0553,3.0568,3.0568,3.0568,3.1404,3.1743,3.1731,3.2804,3.346,3.3811,3.414,3.4497,3.4899,3.4899,3.4949,3.5081,3.5727,3.6059,3.6125,3.6272,3.7182,3.8343,3.7992,3.8883,4.0398,4.127,4.1882,4.2368,4.2986,4.3615,4.4132,4.4132,4.4662,4.5256,4.5298,4.5458,4.5586,4.5586,4.6227,4.6843,4.6873,4.7003,4.7145,4.7174,4.7353,4.7723,4.8504,4.9384,5.0051,5.0227,5.0887,5.1386,5.1394,5.1889,5.2012,5.1242,5.1721,5.1916,5.1323,5.1265,5.1297,5.1342,5.1367,5.1325,5.1203,5.2472,5.3165,5.3069,5.3529,5.3588,5.3273,5.3306,5.3306,5.3193,5.3626,5.36,5.3206,5.3206,5.3206,0.0,0.0,0.0,0.0,0.0,0.0,0.781,0.0,0.8353,0.0,0.0,0.0,0.0,0.0,0.0,0.0,0.0,0.0,0.0,0.0,0.0,0.0,0.0,0.0,0.0,0.0,0.0,0.0,0.0,2.8469,2.9354,3.0359,3.085,3.0628,3.2094,3.2124,3.0642,3.272,3.3291,3.2378,3.3536,3.4192,3.4494,3.4239,3.4448,3.4899,3.4899,3.4899,3.4916,3.523,3.5363,3.5396,3.5875,3.702,3.8373,3.8972,3.9682,4.0582,4.1701,4.22,4.2533,4.341,4.3846,4.4079,4.4345,4.4732,4.509,4.5256,4.5438,4.5586,4.5586,4.5888,4.632,4.6815,4.7004,4.7236,4.785,4.8039,4.8223,4.8711,4.9474,5.0067,5.0107,5.1248,5.2147,5.2144,5.2411,5.2473,5.2141,5.2402,5.2474,5.2141,5.2108,5.2064,5.1968,5.183,5.1716,5.1614,5.2124,5.2587,5.2984,5.2732,5.2615,5.2689,5.2689,5.2579,5.2339,5.2529,5.2524,5.2326,5.2438,5.2252,0.7399,0.0,0.0,0.0,0.0,0.0,0.0,0.0,0.0,0.0,0.0,0.0,0.0,0.0,1.0413,1.0468,0.0,1.2263,0.0,0.0,0.0,0.0,0.0,0.0,0.0,0.0,0.0,0.0,0.0,0.0,2.9057,3.0321,3.0991,3.0807,3.2853,3.3107,3.1353,3.388,3.4607,3.3558,3.4605,3.5093,3.5101,3.4751,3.4726,3.4899,3.4899,3.4899,3.4899,3.4899,3.5015,3.5247,3.5971,3.7202,3.8751,3.9887,4.0539,4.1052,4.2276,4.2684,4.2809,4.3531,4.3832,4.3961,4.4306,4.461,4.4891,4.5132,4.5361,4.5589,4.5856,4.5933,4.6144,4.6987,4.7214,4.7433,4.823,4.8638,4.8913,4.905,4.9822,5.0425,5.0425,5.1496,5.2342,5.2339,5.2518,5.2557,5.237,5.2513,5.2547,5.2351,5.2331,5.2416,5.261,5.226,5.2088,5.2186,5.2111,5.2356,5.3047,5.2298,5.1979,5.2222,5.2215,5.2064,5.1744,5.1862,5.1789,5.1538,5.1806,5.1577,0.0,0.0,0.0,0.8594,0.0,0.0,0.0,0.0,0.8712,0.0,0.0,0.0,0.0,0.9866,0.9931,0.9931,0.9993,0.0,0.0,0.0,0.0,0.0,0.0,0.0,0.0,0.0,0.0,0.0,0.0,0.0,2.8817,2.9101,2.9859,3.1248,3.2123,3.2732,3.3108,3.4528,3.5247,3.5306,3.6075,3.6126,3.5575,3.584,3.5578,3.4899,3.4899,3.4899,3.4899,3.4899,3.5313,3.6008,3.6535,3.7974,3.9703,4.0123,4.1156,4.2418,4.3212,4.3442,4.3461,4.3513,4.3701,4.3897,4.3929,4.4279,4.4745,4.4872,4.5159,4.5611,4.6532,4.6762,4.6954,4.7758,4.801,4.8064,4.8102,4.8982,4.9753,4.9765,5.0578,5.1261,5.1261,5.1367,5.1442,5.1444,5.2166,5.2394,5.1554,5.2175,5.237,5.1531,5.1433,5.1785,5.2624,5.1869,5.157,5.2167,5.221,5.2514,5.3262,5.2472,5.2009,5.201,5.201,5.1934,5.1811,5.2245,5.1996,5.1121,5.1519,5.1551,0.0,0.0,1.2422,1.0743,0.0,0.0,0.0,0.0,0.0,0.0,0.0,0.0,0.0,0.988,0.9905,0.9905,0.9704,0.9572,0.0,0.0,0.0,0.0,0.0,0.0,0.0,0.0,0.0,0.0,0.0,0.0,0.0,2.9535,3.0372,3.078,3.3571,3.4492,3.3211,3.5716,3.6699,3.6095,3.6644,3.698,3.7106,3.6271,3.586,3.5756,3.5563,3.5481,3.5514,3.586,3.6155,3.6469,3.7151,3.8321,3.9761,4.0412,4.1524,4.279,4.3321,4.3497,4.3589,4.4069,4.4094,4.4008,4.4655,4.4976,4.5255,4.5683,4.6225,4.6793,4.7373,4.7568,4.7817,4.8602,4.8774,4.8931,4.9606,5.0063,5.0356,5.0444,5.0848,5.1161,5.1161,5.1261,5.1342,5.1382,5.1641,5.1732,5.1437,5.2156,5.2585,5.2292,5.2253,5.2366,5.2601,5.1776,5.1327,5.1522,5.1528,5.1605,5.1776,5.1486,5.1283,5.114,5.114,5.114,5.1138,5.1298,5.1203,5.0914,5.1024,5.0679,1.3206,1.3965,0.0,1.2809,1.3216,0.0,1.1667,0.0,0.0,0.0,0.0,0.0,0.0,1.1283,1.0444,1.1257,1.0547,0.9917,0.0,1.0415,0.0,0.0,0.0,0.0,0.0,0.0,0.0,0.0,0.0,0.0,0.0,0.0,3.0253,3.0436,3.3433,3.4643,3.3924,3.619,3.7233,3.7125,3.74,3.7751,3.8014,3.7009,3.662,3.6738,3.6389,3.624,3.6273,3.6617,3.6946,3.7225,3.7878,3.8803,3.9935,4.0889,4.2323,4.3849,4.3888,4.4086,4.4433,4.4912,4.4923,4.4874,4.5472,4.5823,4.6026,4.6025,4.6733,4.7524,4.7704,4.8099,4.8659,4.9444,4.9592,4.9726,5.039,5.0586,5.0663,5.0745,5.0937,5.1081,5.1136,5.1201,5.1289,5.134,5.1359,5.1367,5.1394,5.1899,5.2244,5.2238,5.2234,5.2201,5.2142,5.1877,5.1561,5.1222,5.1202,5.1159,5.1075,5.1062,5.1015,5.0883,5.0883,5.0879,5.0884,5.0884,5.085,5.0835,5.0835,5.0471]},{"header":{"parameterUnit":"m.s-1","parameterCategory":1,"la1":30.6,"la2":29.2853,"lo1":-89.7004,"lo2":-87.6739,"dx":0.0162,"dy":0.0183,"nx":112,"ny":82,"refTime":"2022-11-25T06:00:00:Z","depth":0,"parameterNumber":3,"parameterNumberName":"V-component_of_WINDS"},"data":[0.0,0.0,0.0,0.0,0.0,0.0,0.0,0.0,0.0,0.0,0.0,0.0,0.0,0.0,0.0,0.0,0.0,0.0,0.0,0.0,0.0,0.0,0.0,0.0,0.0,0.0,0.0,0.0,0.0,0.0,0.0,0.0,0.0,0.0,0.0,0.0,0.0,0.0,0.0,0.0,0.0,0.0,0.0,0.0,0.0,0.0,0.0,0.0,0.0,0.0,0.0,0.0,0.0,0.0,0.0,0.0,0.0,0.0,0.0,0.0,0.0,0.0,0.0,0.0,0.0,0.0,0.0,0.0,0.0,0.0,0.0,0.0,0.0,0.0,0.0,0.0,0.0,0.0,0.0,0.0,0.0,0.0,0.0,0.0,0.0,0.0,0.0,0.0,0.0,0.0,0.0,-1.6724,-1.8481,-2.005,-2.1173,-2.1678,-2.1168,-1.9418,0.0,0.0,0.0,0.0,0.0,0.0,0.0,0.0,0.0,0.0,0.0,0.0,0.0,0.0,0.0,0.0,0.0,0.0,0.0,0.0,0.0,0.0,0.0,0.0,0.0,0.0,0.0,0.0,0.0,0.0,0.0,0.0,0.0,0.0,0.0,0.0,0.0,0.0,0.0,0.0,0.0,0.0,0.0,0.0,0.0,0.0,0.0,0.0,0.0,0.0,0.0,0.0,0.0,0.0,0.0,0.0,0.0,0.0,0.0,0.0,0.0,0.0,0.0,0.0,0.0,0.0,0.0,0.0,0.0,0.0,0.0,0.0,0.0,0.0,0.0,0.0,0.0,0.0,0.0,0.0,0.0,0.0,0.0,0.0,0.0,0.0,0.0,0.0,0.0,0.0,0.0,0.0,0.0,0.0,0.0,0.0,0.0,0.0,0.0,0.0,0.0,0.0,0.0,0.0,-1.6383,-1.7954,-1.9,-2.0008,-2.1036,-2.2497,-2.2205,-1.9465,0.0,0.0,0.0,0.0,0.0,0.0,0.0,0.0,0.0,0.0,0.0,0.0,0.0,0.0,0.0,0.0,0.0,0.0,0.0,0.0,0.0,0.0,0.0,0.0,0.0,0.0,0.0,0.0,0.0,0.0,0.0,0.0,0.0,0.0,0.0,0.0,0.0,0.0,0.0,0.0,0.0,0.0,0.0,0.0,0.0,0.0,0.0,0.0,0.0,0.0,0.0,0.0,0.0,0.0,0.0,0.0,0.0,0.0,0.0,0.0,0.0,0.0,0.0,0.0,0.0,0.0,0.0,0.0,0.0,0.0,0.0,0.0,0.0,0.0,0.0,0.0,0.0,0.0,0.0,0.0,0.0,0.0,0.0,0.0,0.0,0.0,0.0,0.0,0.0,0.0,0.0,0.0,0.0,0.0,0.0,0.0,0.0,0.0,0.0,0.0,0.0,0.0,0.0,-1.5666,-1.6695,-1.8676,-1.9117,-1.973,-2.0831,-2.2186,-2.179,-1.9074,-1.9219,0.0,0.0,0.0,0.0,0.0,0.0,0.0,0.0,0.0,0.0,0.0,0.0,0.0,0.0,0.0,0.0,0.0,0.0,0.0,0.0,0.0,0.0,0.0,0.0,0.0,0.0,0.0,0.0,0.0,0.0,0.0,0.0,0.0,0.0,0.0,0.0,0.0,0.0,0.0,0.0,0.0,0.0,0.0,0.0,0.0,0.0,0.0,0.0,0.0,0.0,0.0,0.0,0.0,0.0,0.0,0.0,0.0,0.0,0.0,0.0,0.0,0.0,0.0,0.0,0.0,0.0,0.0,0.0,0.0,0.0,0.0,0.0,0.0,0.0,0.0,0.0,0.0,0.0,0.0,0.0,0.0,0.0,0.0,0.0,0.0,0.0,0.0,0.0,0.0,0.0,0.0,0.0,0.0,0.0,0.0,0.0,0.0,0.0,0.0,0.0,0.0,0.0,-1.6453,-1.7402,-1.9293,-1.9284,-1.9645,-2.0875,-2.2074,-2.1562,-1.8787,-1.9921,0.0,0.0,0.0,0.0,0.0,0.0,0.0,0.0,0.0,0.0,0.0,0.0,0.0,0.0,0.0,0.0,0.0,0.0,0.0,0.0,0.0,0.0,0.0,0.0,0.0,0.0,0.0,0.0,0.0,0.0,0.0,0.0,0.0,0.0,0.0,0.0,0.0,0.0,0.0,0.0,0.0,0.0,0.0,0.0,0.0,0.0,0.0,0.0,0.0,0.0,0.0,0.0,0.0,0.0,0.0,0.0,0.0,0.0,0.0,0.0,0.0,0.0,0.0,0.0,0.0,0.0,0.0,0.0,0.0,0.0,0.0,0.0,0.0,0.0,0.0,0.0,0.0,0.0,0.0,0.0,0.0,0.0,0.0,0.0,0.0,0.0,0.0,0.0,0.0,0.0,0.0,0.0,0.0,0.0,0.0,0.0,0.0,0.0,0.0,0.0,0.0,0.0,-1.7476,-1.8843,-1.9932,-1.9807,-2.0154,-2.1448,-2.3098,-2.2494,-1.884,-2.0445,0.0,0.0,0.0,0.0,0.0,0.0,0.0,0.0,0.0,0.0,0.0,0.0,0.0,0.0,0.0,0.0,0.0,0.0,0.0,0.0,0.0,0.0,0.0,0.0,0.0,0.0,0.0,0.0,0.0,0.0,0.0,0.0,0.0,0.0,0.0,0.0,0.0,0.0,0.0,0.0,0.0,0.0,0.0,0.0,0.0,0.0,0.0,0.0,0.0,0.0,0.0,0.0,0.0,0.0,0.0,0.0,0.0,0.0,0.0,0.0,0.0,0.0,0.0,0.0,0.0,0.0,0.0,0.0,0.0,0.0,0.0,0.0,0.0,0.0,0.0,0.0,0.0,0.0,0.0,0.0,0.0,0.0,0.0,0.0,0.0,0.0,0.0,0.0,0.0,0.0,0.0,0.0,0.0,0.0,0.0,0.0,0.0,0.0,0.0,0.0,0.0,0.0,-1.6302,-1.7653,0.0,-1.9394,-1.9772,-2.1061,-2.3119,-2.257,-1.847,0.0,0.0,0.0,0.0,0.0,0.0,0.0,0.0,0.0,0.0,0.0,0.0,0.0,0.0,0.0,0.0,0.0,0.0,0.0,0.0,0.0,0.0,0.0,0.0,0.0,0.0,0.0,0.0,0.0,0.0,0.0,0.0,0.0,0.0,0.0,0.0,0.0,0.0,0.0,0.0,0.0,0.0,0.0,0.0,0.0,0.0,0.0,0.0,0.0,0.0,0.0,0.0,0.0,0.0,0.0,0.0,0.0,0.0,0.0,0.0,0.0,0.0,0.0,0.0,0.0,0.0,0.0,0.0,0.0,0.0,0.0,0.0,0.0,0.0,0.0,0.0,0.0,0.0,0.0,0.0,0.0,0.0,0.0,0.0,0.0,0.0,0.0,0.0,0.0,0.0,0.0,0.0,0.0,0.0,0.0,0.0,0.0,0.0,0.0,0.0,0.0,0.0,-1.4769,-1.5848,-1.7305,0.0,-1.9488,-1.9911,-2.1094,-2.3362,-2.281,-1.8276,0.0,0.0,0.0,0.0,0.0,0.0,0.0,0.0,0.0,0.0,0.0,0.0,0.0,0.0,0.0,0.0,0.0,0.0,0.0,0.0,0.0,0.0,0.0,0.0,0.0,0.0,0.0,0.0,0.0,0.0,0.0,0.0,0.0,0.0,0.0,0.0,0.0,0.0,0.0,0.0,0.0,0.0,0.0,0.0,0.0,0.0,0.0,0.0,0.0,0.0,0.0,0.0,0.0,0.0,0.0,0.0,0.0,0.0,0.0,0.0,0.0,0.0,0.0,0.0,0.0,0.0,0.0,0.0,0.0,0.0,0.0,0.0,0.0,0.0,0.0,0.0,0.0,0.0,0.0,0.0,0.0,0.0,0.0,0.0,0.0,0.0,0.0,0.0,0.0,0.0,0.0,0.0,0.0,0.0,0.0,0.0,0.0,0.0,0.0,0.0,0.0,0.0,-1.4803,-1.6456,-1.8245,-2.0,-2.028,-2.0737,-2.1702,-2.3981,-2.327,0.0,0.0,0.0,0.0,0.0,0.0,0.0,0.0,0.0,0.0,0.0,0.0,0.0,0.0,0.0,0.0,0.0,0.0,0.0,0.0,0.0,0.0,0.0,0.0,0.0,0.0,0.0,0.0,0.0,0.0,0.0,0.0,0.0,0.0,0.0,0.0,0.0,0.0,0.0,0.0,0.0,0.0,0.0,0.0,0.0,0.0,0.0,0.0,0.0,0.0,0.0,0.0,0.0,0.0,0.0,0.0,0.0,0.0,0.0,0.0,0.0,0.0,0.0,0.0,0.0,0.0,0.0,0.0,0.0,0.0,0.0,0.0,0.0,0.0,0.0,0.0,0.0,0.0,0.0,0.0,0.0,0.0,0.0,0.0,0.0,0.0,0.0,0.0,0.0,0.0,0.0,0.0,0.0,0.0,0.0,0.0,0.0,0.0,0.0,0.0,0.0,0.0,0.0,-1.3674,-1.4878,-1.6312,-1.7908,-1.8294,-1.9161,-2.1003,-2.2856,-2.2558,-1.9339,0.0,0.0,0.0,0.0,0.0,0.0,0.0,0.0,0.0,0.0,0.0,0.0,0.0,0.0,0.0,0.0,0.0,0.0,0.0,0.0,0.0,0.0,0.0,0.0,0.0,0.0,0.0,0.0,0.0,0.0,0.0,0.0,0.0,0.0,0.0,0.0,0.0,0.0,0.0,0.0,0.0,0.0,0.0,0.0,0.0,0.0,0.0,0.0,0.0,0.0,0.0,0.0,0.0,0.0,0.0,0.0,0.0,0.0,0.0,0.0,0.0,0.0,0.0,0.0,0.0,0.0,0.0,0.0,0.0,0.0,0.0,0.0,0.0,0.0,0.0,0.0,0.0,0.0,0.0,0.0,0.0,0.0,0.0,0.0,0.0,0.0,0.0,0.0,0.0,0.0,0.0,0.0,0.0,0.0,0.0,0.0,0.0,0.0,0.0,0.0,0.0,0.0,-1.3202,-1.4296,-1.5613,-1.7042,-1.7806,-1.8956,-2.0813,-2.262,-2.277,-2.07,0.0,0.0,0.0,0.0,0.0,0.0,0.0,0.0,0.0,0.0,0.0,0.0,0.0,0.0,0.0,0.0,0.0,0.0,0.0,0.0,0.0,0.0,0.0,0.0,0.0,0.0,0.0,0.0,0.0,0.0,0.0,0.0,0.0,0.0,0.0,0.0,0.0,0.0,0.0,0.0,0.0,0.0,0.0,0.0,0.0,0.0,0.0,0.0,0.0,0.0,0.0,0.0,0.0,0.0,0.0,0.0,0.0,0.0,0.0,0.0,0.0,0.0,0.0,0.0,0.0,0.0,0.0,0.0,0.0,0.0,0.0,0.0,0.0,0.0,0.0,0.0,0.0,0.0,0.0,0.0,0.0,0.0,0.0,0.0,0.0,0.0,0.0,0.0,0.0,0.0,0.0,0.0,0.0,0.0,0.0,0.0,0.0,0.0,0.0,0.0,0.0,0.0,-1.3202,-1.4435,-1.5788,-1.7023,-1.8268,-1.9583,-2.0938,-2.2877,-2.3506,-2.2238,0.0,0.0,0.0,0.0,0.0,0.0,0.0,0.0,0.0,0.0,0.0,0.0,0.0,0.0,0.0,0.0,0.0,0.0,0.0,0.0,0.0,0.0,0.0,0.0,0.0,0.0,0.0,0.0,0.0,0.0,0.0,0.0,0.0,0.0,0.0,0.0,0.0,0.0,0.0,0.0,0.0,0.0,0.0,0.0,0.0,0.0,0.0,0.0,0.0,0.0,0.0,0.0,0.0,0.0,0.0,0.0,0.0,0.0,0.0,0.0,-0.9157,0.0,0.0,0.0,0.0,0.0,0.0,0.0,0.0,0.0,0.0,0.0,0.0,0.0,0.0,0.0,0.0,0.0,0.0,0.0,0.0,0.0,0.0,0.0,0.0,0.0,0.0,0.0,0.0,0.0,0.0,0.0,0.0,0.0,0.0,0.0,0.0,0.0,0.0,0.0,0.0,0.0,-1.3333,-1.4536,-1.5726,-1.6639,-1.777,-1.9089,-2.0575,-2.1902,-2.2847,-2.3382,-2.3232,0.0,0.0,0.0,0.0,0.0,0.0,0.0,0.0,0.0,0.0,0.0,0.0,0.0,0.0,0.0,0.0,0.0,0.0,0.0,0.0,0.0,0.0,0.0,0.0,0.0,0.0,0.0,0.0,0.0,0.0,0.0,0.0,0.0,0.0,0.0,0.0,0.0,0.0,0.0,0.0,0.0,0.0,0.0,0.0,0.0,0.0,0.0,0.0,0.0,0.0,0.0,0.0,0.0,0.0,0.0,0.0,0.0,0.0,0.0,0.0,-0.8773,0.0,0.0,0.0,0.0,0.0,0.0,0.0,0.0,0.0,0.0,0.0,0.0,0.0,0.0,0.0,0.0,0.0,0.0,0.0,0.0,0.0,0.0,0.0,0.0,0.0,0.0,0.0,0.0,0.0,0.0,0.0,0.0,0.0,0.0,0.0,0.0,0.0,0.0,0.0,0.0,-1.3882,-1.4635,-1.552,-1.6727,-1.8104,-1.9405,-2.0591,-2.1919,-2.3325,-2.4856,-2.4425,0.0,0.0,0.0,0.0,0.0,0.0,0.0,0.0,0.0,0.0,0.0,0.0,0.0,0.0,0.0,0.0,0.0,0.0,0.0,0.0,0.0,0.0,0.0,0.0,0.0,0.0,0.0,0.0,0.0,0.0,0.0,0.0,0.0,0.0,0.0,0.0,0.0,0.0,0.0,0.0,0.0,0.0,0.0,0.0,0.0,0.0,0.0,0.0,0.0,0.0,0.0,0.0,0.0,-0.7416,-0.724,-0.6928,-0.7738,-0.689,-0.4804,-0.6188,-0.6087,-0.5179,-0.8567,0.0,0.0,0.0,0.0,0.0,0.0,0.0,0.0,0.0,0.0,0.0,0.0,0.0,0.0,0.0,0.0,0.0,0.0,0.0,0.0,0.0,0.0,0.0,0.0,-0.8905,-0.8837,0.0,0.0,0.0,0.0,0.0,0.0,0.0,0.0,0.0,0.0,0.0,0.0,-1.4243,-1.475,-1.5492,-1.6855,-1.8631,-2.0067,-2.0939,-2.2522,-2.4374,-2.6618,-2.5961,-2.5725,0.0,0.0,0.0,0.0,0.0,0.0,0.0,0.0,0.0,0.0,0.0,0.0,0.0,0.0,0.0,0.0,0.0,0.0,0.0,0.0,0.0,0.0,0.0,0.0,0.0,0.0,0.0,0.0,0.0,0.0,0.0,0.0,-0.5385,-0.5148,0.0,0.0,0.0,0.0,0.0,0.0,0.0,0.0,0.0,0.0,0.0,0.0,0.0,-0.734,-0.7735,-0.593,-0.5361,-0.6014,-0.3887,-0.2858,-0.2858,-0.271,-0.2453,-0.2147,-0.2867,0.0,-0.5033,-0.5557,0.0,0.0,0.0,0.0,0.0,0.0,0.0,0.0,0.0,0.0,0.0,0.0,0.0,0.0,0.0,0.0,0.0,0.0,0.0,0.0,0.0,0.0,-0.945,-0.8964,-0.9,-0.9054,0.0,-0.9036,-0.9336,-0.9728,-0.9766,0.0,0.0,0.0,0.0,0.0,0.0,0.0,-1.3332,-1.495,-1.6256,-1.6614,-1.8783,-2.0671,-2.1731,-2.3407,-2.5714,-2.8776,-2.8523,-2.7951,-2.7252,-2.6412,0.0,0.0,0.0,0.0,0.0,0.0,0.0,0.0,0.0,0.0,0.0,0.0,0.0,0.0,0.0,0.0,0.0,0.0,0.0,0.0,0.0,0.0,0.0,0.0,0.0,0.0,0.0,0.0,0.0,-0.0458,-0.1709,0.1454,0.0362,0.0,0.0,0.0,0.0,0.0,0.0,0.0,0.0,0.0,0.0,-0.386,-0.4128,-0.3939,-0.3174,-0.2086,-0.174,-0.2089,-0.1405,-0.1026,-0.0926,-0.1401,-0.1507,-0.1406,-0.1842,-0.259,-0.3589,-0.514,-0.6579,-0.7939,0.0,0.0,0.0,0.0,-1.0035,-1.0179,-0.9234,-0.9108,0.0,-1.0403,0.0,0.0,0.0,0.0,0.0,0.0,0.0,0.0,0.0,0.0,-0.8219,-0.6689,-0.6919,-0.7373,-0.697,-0.741,-0.8198,0.0,-0.986,-1.049,-1.1466,0.0,0.0,0.0,0.0,-1.243,-1.3716,-1.4472,-1.5623,-1.7562,-1.9201,-2.0884,-2.2801,-2.4106,-2.5968,-2.8612,-2.8829,-2.8931,-2.9142,-2.7374,-2.575,0.0,0.0,0.0,0.0,0.0,0.0,0.0,0.0,0.0,0.0,0.0,0.0,0.0,0.0,0.0,0.0,0.0,0.0,0.0,0.0,0.0,0.0,0.0,0.0,0.0,0.0,0.0,0.0,0.4101,0.2889,0.734,0.447,0.3109,0.0,0.0,0.0,0.0,0.0,0.0,-0.3257,-0.3796,-0.3108,-0.099,-0.1195,-0.068,0.0616,0.0978,0.1078,0.1011,0.0492,0.0428,0.0657,-0.0232,-0.0598,-0.0565,-0.1065,-0.1536,-0.2114,-0.4435,-0.5475,-0.5752,-0.7452,-0.8282,-0.8406,-0.7927,-0.8094,-0.8401,-0.7445,-0.7281,-0.7557,-0.8295,-0.8624,-0.8847,-0.9494,0.0,0.0,0.0,0.0,-0.8434,-0.6659,-0.6798,-0.6955,-0.5129,-0.5578,-0.6273,-0.5917,-0.6913,-0.8094,0.0,-0.969,-1.0549,-1.1276,0.0,0.0,0.0,0.0,-1.1825,-1.3869,-1.4113,-1.5125,-1.7746,-1.9247,-2.1002,-2.3311,-2.4615,-2.6388,-2.8915,-2.916,-2.978,-3.1056,-2.8786,-2.7651,-2.7975,0.0,0.0,0.0,0.0,0.0,0.0,0.0,0.0,0.0,0.0,0.0,0.0,0.0,0.0,0.0,0.0,0.0,0.0,0.0,0.0,0.0,0.0,0.0,0.0,0.0,0.0,0.0,0.0,0.0,1.0848,0.9682,0.0,0.0,0.0,0.0,0.3804,0.2994,0.1673,-0.0738,-0.1267,-0.0241,0.2449,0.2123,0.1753,0.1543,0.1882,0.1882,0.1576,0.1918,0.2246,0.256,0.2107,0.1679,0.1216,0.0296,-0.0432,-0.1075,-0.222,-0.4122,-0.6364,-0.6485,-0.7512,-0.8762,-0.7106,-0.6466,-0.6334,-0.5574,-0.5369,-0.5787,-0.7922,-0.9278,-0.9975,-0.9334,-0.962,0.0,0.0,-0.8044,-0.7603,-0.6478,-0.6027,-0.5773,-0.5588,-0.6378,-0.7048,-0.6794,-0.8716,-0.9971,0.0,-0.8791,-0.986,-1.0788,0.0,-1.1178,-1.1446,-1.1868,-1.2377,-1.3068,-1.4216,-1.5286,-1.6144,-1.8658,-2.0994,-2.2776,-2.491,-2.7555,-3.0934,-3.0448,-3.0847,-3.2699,-3.1121,-2.984,-2.9048,-2.8046,0.0,0.0,0.0,0.0,0.0,0.0,0.0,0.0,0.0,0.0,0.0,0.0,0.0,0.0,0.0,0.0,0.0,0.0,0.0,0.0,0.0,0.0,0.0,0.0,0.0,0.0,0.0,0.0,1.3373,1.1754,0.0,1.3781,1.2494,1.0688,0.8763,0.6578,0.4953,0.4056,0.3506,0.3649,0.4555,0.4523,0.4385,0.4172,0.4542,0.4694,0.4543,0.4351,0.4167,0.3952,0.3441,0.2807,0.2155,0.183,0.0931,-0.0283,-0.0717,-0.1983,-0.3637,-0.3714,-0.4264,-0.4916,-0.4156,-0.4031,-0.4194,-0.3856,-0.3976,-0.4408,-0.5193,-0.5678,-0.5903,-0.5601,-0.5675,-0.5702,-0.4888,-0.4669,-0.4522,-0.3651,-0.3945,-0.4251,-0.3405,-0.4032,-0.4703,-0.4254,-0.5803,-0.7361,-0.7569,-0.9146,-1.063,-1.1138,-1.0872,-1.0935,-1.1964,-1.1784,-1.1847,-1.2662,-1.352,-1.4687,-1.6378,-1.8575,-2.0728,-2.2794,-2.5032,-2.7226,-2.9361,-2.9909,-3.0759,-3.213,-3.1618,-3.1634,-3.2374,-3.11,-2.8965,0.0,0.0,0.0,0.0,0.0,0.0,0.0,0.0,0.0,0.0,0.0,0.0,0.0,0.0,0.0,0.0,0.0,0.0,0.0,0.0,0.0,0.0,0.0,0.0,0.0,0.0,1.2865,1.5315,1.3014,1.2156,1.4466,1.2424,1.0966,1.108,0.877,0.734,0.7361,0.6773,0.6265,0.5952,0.6035,0.5968,0.5662,0.5943,0.6138,0.6173,0.5935,0.5726,0.5545,0.509,0.452,0.3872,0.3705,0.2735,0.1213,0.1161,0.02,-0.1328,-0.1925,-0.2401,-0.2673,-0.2589,-0.2859,-0.3257,-0.3036,-0.3286,-0.3647,-0.3518,-0.3561,-0.3638,-0.3625,-0.3626,-0.3517,-0.3029,-0.2958,-0.2898,-0.2242,-0.2676,-0.3071,-0.2262,-0.2808,-0.3431,-0.3097,-0.4353,-0.58,-0.6644,-0.8995,-1.0953,-1.1365,-1.1057,-1.123,-1.258,-1.1968,-1.1837,-1.3188,-1.3404,-1.4179,-1.6114,-1.7817,-1.9803,-2.2258,-2.4293,-2.6298,-2.8366,-2.9312,-3.0405,-3.1728,-3.1195,-3.151,-3.2899,-3.1913,-3.0257,-2.7911,0.0,0.0,0.0,0.0,0.0,0.0,0.0,0.0,0.0,0.0,0.0,0.0,0.0,0.0,0.0,0.0,0.0,0.0,0.0,0.0,0.0,0.0,0.0,1.56,1.5035,1.5073,1.6485,1.3623,1.2078,1.3532,1.1487,1.0208,1.0533,0.9528,0.8935,0.8985,0.828,0.7502,0.6721,0.6737,0.6466,0.5862,0.5956,0.6042,0.6159,0.6512,0.6876,0.7214,0.709,0.6806,0.6369,0.5906,0.4859,0.3421,0.3426,0.2267,0.0329,-0.1217,-0.2096,-0.2494,-0.261,-0.2995,-0.3467,-0.3101,-0.3216,-0.346,-0.301,-0.321,-0.3643,-0.3754,-0.383,-0.375,-0.3296,-0.3179,-0.3071,-0.2542,-0.2347,-0.2317,-0.2377,-0.2995,-0.3579,-0.3579,-0.4748,-0.5726,-0.5435,-0.8078,-1.0609,-1.1322,-1.1559,-1.2022,-1.3203,-1.2401,0.0,-1.457,-1.3929,-1.3847,-1.5271,-1.6467,-1.8334,-2.116,-2.2741,-2.4982,-2.8263,-2.8853,-2.9906,-3.1765,-3.0128,-2.9594,-3.0524,-3.0488,-3.0528,-3.0703,0.0,0.0,0.0,0.0,0.0,0.0,0.0,0.0,0.0,0.0,0.0,0.0,0.0,0.0,0.0,0.0,0.0,0.0,0.0,0.0,0.0,0.0,1.6894,1.5543,1.4318,1.3581,1.3533,1.2759,1.2375,1.2783,1.2301,1.2003,1.2087,1.1445,1.1069,1.1057,0.9921,0.9109,0.8856,0.8382,0.7849,0.7245,0.7671,0.7676,0.7349,0.8261,0.8279,0.7504,0.8015,0.7549,0.6311,0.6189,0.5354,0.4124,0.3958,0.3151,0.1856,0.0351,-0.1018,-0.204,-0.1345,-0.1312,-0.1458,-0.0729,-0.098,-0.1464,-0.0713,-0.099,-0.1608,-0.1635,-0.2083,-0.2584,-0.2444,-0.25,-0.2592,-0.245,-0.251,-0.258,-0.2477,-0.2639,-0.2801,-0.2735,-0.3574,-0.4465,-0.4948,-0.6625,-0.8397,-0.9756,-1.0301,-1.1038,-1.252,-1.2036,0.0,-1.3599,-1.3453,-1.4029,-1.6069,-1.7858,-1.9571,-2.1179,-2.3902,-2.6111,-2.7468,-2.9622,-3.141,-3.2761,-3.2938,-3.3142,-3.3432,-3.2193,-3.1279,0.0,0.0,0.0,0.0,0.0,0.0,0.0,0.0,0.0,0.0,0.0,0.0,0.0,0.0,0.0,0.0,0.0,0.0,0.0,0.0,0.0,0.0,1.8402,1.8217,1.7408,1.6204,1.5285,1.4892,1.4544,1.4328,1.4269,1.3867,1.3624,1.3595,1.3058,1.2736,1.2736,1.1777,1.0931,1.0286,1.02,0.9694,0.872,0.9379,0.9564,0.9273,0.9807,0.956,0.8583,0.882,0.8228,0.0,0.6983,0.6363,0.5411,0.5556,0.4859,0.0,0.0,0.0,0.0,0.0,-0.0066,-0.0033,0.0331,0.0133,-0.0167,0.0345,0.017,-0.0267,-0.0241,-0.0614,-0.1033,-0.1033,-0.1132,-0.1228,-0.126,-0.1663,-0.2068,-0.1996,-0.2302,-0.261,-0.2606,-0.2995,-0.3442,-0.3889,-0.4763,0.0,-0.7284,-0.8816,-1.0315,-1.1563,-1.1316,-1.1572,-1.3018,-1.32,-1.3875,-1.5613,-1.7486,-1.9285,-2.0839,-2.3526,0.0,0.0,0.0,-3.1006,-3.1999,-3.2947,0.0,0.0,0.0,0.0,0.0,0.0,0.0,0.0,-2.8247,-2.7757,0.0,0.0,0.0,0.0,0.0,0.0,0.0,0.0,0.0,0.0,0.0,0.0,0.0,0.0,0.0,0.0,1.953,1.9249,2.0297,1.9605,1.8815,1.8464,1.7636,1.706,1.6955,1.5978,1.5276,1.511,1.4584,1.4227,1.4083,0.0,0.0,0.0,0.0,1.1647,1.0276,1.0921,1.1295,1.1278,1.1137,1.0696,0.9991,0.9653,0.9083,0.8293,0.8228,0.7808,0.7264,0.7766,0.7038,0.5377,0.3214,0.2142,0.1731,0.1079,0.0947,0.1045,0.0825,0.0,0.0,0.073,0.073,0.0663,0.063,0.0564,0.0498,0.0431,0.0398,0.0398,0.033,-0.0364,-0.1061,-0.109,-0.1894,-0.2643,-0.2699,-0.2742,-0.2749,-0.2679,-0.2966,-0.3513,-0.4454,-0.7132,-0.9429,-1.0179,-1.0252,-1.0794,-1.2407,-1.2981,-1.3679,-1.4873,0.0,0.0,-2.0583,-2.2611,-2.4796,-2.7167,-2.8946,-3.0251,-3.1003,-3.2038,-3.3246,-3.4693,-3.3395,-3.3893,-3.6274,-3.5503,-3.5126,-3.5025,-3.0607,-2.9726,0.0,0.0,0.0,0.0,0.0,0.0,0.0,0.0,0.0,0.0,0.0,0.0,0.0,0.0,0.0,2.0422,2.0961,2.1482,2.1995,2.1877,2.091,1.8738,1.8456,1.8422,1.8406,1.8292,1.7817,1.6886,1.6659,1.6197,1.5301,1.4513,1.3954,1.3656,1.3067,1.2454,1.177,1.1757,1.1572,1.1242,0.0,0.0,1.064,1.1267,1.0959,1.0015,0.9993,0.9926,0.9775,0.9745,0.9013,0.7602,0.427,0.2952,0.2928,0.2586,0.2294,0.2205,0.2842,0.2449,0.1722,0.226,0.2057,0.159,0.1429,0.0963,0.0,0.0498,0.0431,0.0398,0.0397,0.0198,0.0,0.0,-0.0794,-0.1497,-0.1528,-0.2068,-0.2543,-0.2543,-0.29,-0.3151,-0.3006,-0.4851,-0.6745,-0.7805,-0.8205,-0.8986,-1.0604,-1.2236,-1.4158,-1.646,-1.8309,-2.0212,-2.2258,-2.4284,-2.6372,-2.8568,-3.178,-3.3976,-3.4875,-3.5681,-3.6286,-3.6651,-3.6937,-3.7399,-3.8021,-3.7847,-3.7773,-3.7689,-3.4637,-3.3465,0.0,0.0,0.0,0.0,0.0,0.0,0.0,0.0,0.0,0.0,0.0,1.8524,0.0,0.0,2.1375,2.1955,2.273,2.3284,2.3398,2.3007,2.2148,2.0676,2.0078,1.956,1.9034,1.8607,1.7939,1.6941,1.6811,1.6576,1.6034,1.5109,1.4414,1.4024,1.3641,1.3135,1.2515,1.2988,1.3083,1.2805,1.296,1.2518,1.1562,1.1744,1.1305,1.0396,1.0467,1.0486,1.051,1.0656,1.0311,0.9521,0.7238,0.5766,0.4862,0.4118,0.3787,0.3723,0.3909,0.3542,0.311,0.3449,0.3384,0.3078,0.2751,0.2452,0.215,0.1925,0.1826,0.1857,0.2085,0.1779,0.1474,0.1728,0.1041,0.0325,0.0357,-0.0653,-0.1547,-0.1511,-0.2317,-0.2911,-0.2641,-0.3471,-0.4474,-0.551,-0.6777,-0.7997,-0.9041,-1.1365,-1.3586,-1.5358,-1.7847,-2.0224,-2.2235,-2.5446,-2.8076,-2.9797,-3.2472,-3.4394,-3.5264,-3.6075,-3.6707,-3.7141,-3.7547,-3.7971,-3.844,-3.8489,-3.8508,-3.8475,-3.7138,-3.627,0.0,0.0,0.0,0.0,0.0,0.0,0.0,0.0,1.8051,1.8869,1.9113,1.9506,2.0512,2.1535,2.2524,2.342,2.4043,2.4445,2.4512,2.39,2.3284,2.2909,2.1779,2.0744,1.9899,1.9127,1.8297,1.7412,1.7215,1.7008,1.6813,1.591,1.5108,1.4571,1.4517,1.424,1.3725,1.4393,1.4645,1.4456,1.4122,1.3467,1.2524,1.2197,1.1691,1.1049,1.1161,1.1243,1.1279,1.1712,1.1714,1.1376,1.0545,0.9141,0.7364,0.5732,0.5042,0.4896,0.4436,0.4242,0.4172,0.4145,0.4248,0.428,0.3876,0.3881,0.3923,0.3565,0.3467,0.3565,0.3951,0.3496,0.3046,0.3479,0.2836,0.2116,0.2171,0.0963,-0.0129,-0.0161,-0.1178,-0.2156,-0.2401,-0.2423,-0.2717,-0.3568,-0.5399,-0.6923,-0.7589,-1.0254,-1.2446,-1.3423,-1.6568,-1.965,-2.2277,-2.6758,-2.9876,-3.0914,-3.2656,-3.4015,-3.4807,-3.5816,-3.6729,-3.7532,-3.7754,-3.8117,-3.8611,-3.8672,-3.8599,-3.8466,-3.8615,-3.8256,1.7654,1.7432,1.7401,1.8026,1.7756,1.7535,0.0,0.0,1.8623,1.9647,2.0237,2.0866,2.1894,2.218,2.2641,2.3684,2.3969,2.433,2.5165,2.5271,2.5041,2.4275,2.3058,2.2245,2.2133,2.2156,2.1763,2.0814,2.0044,1.9219,1.8311,1.7494,1.7207,1.7609,1.6776,1.653,1.6965,1.6035,1.5271,1.4679,1.454,1.4146,1.3444,1.3664,1.3677,1.3579,1.3735,1.3845,1.3974,1.4219,1.3982,1.3396,1.2797,1.1933,1.066,0.7415,0.5629,0.4806,0.4602,0.4371,0.4108,0.3983,0.4016,0.414,0.407,0.4178,0.435,0.4441,0.4436,0.4468,0.4584,0.4541,0.4471,0.4535,0.3876,0.3238,0.3234,0.238,0.1509,0.1099,0.0779,0.0129,-0.1292,-0.1449,-0.1642,-0.246,-0.3643,-0.4872,-0.6011,-0.8791,-1.1031,-1.2108,-1.5372,-1.9414,-2.4242,-2.8942,-3.1724,-3.1931,-3.3593,-3.4886,-3.563,-3.712,-3.8315,-3.9143,-3.985,-3.994,-3.9389,-3.937,-3.9032,-3.8334,-3.9062,-3.9044,1.6844,1.7616,0.0,0.0,1.8697,1.9234,2.0002,2.006,2.0236,2.1109,2.1488,2.1837,2.2313,2.3367,2.4303,0.0,2.5446,2.6111,2.6501,2.575,2.501,2.4665,2.3605,2.265,2.1988,2.2081,2.1719,2.0628,1.9698,1.9026,1.8634,1.751,1.7014,1.7319,1.7027,1.6977,1.7259,1.6561,1.6054,1.5721,1.5371,1.4986,1.4571,1.4379,1.4227,1.4111,1.4305,1.4497,1.4641,1.4156,1.3823,1.3498,1.2268,1.1326,1.0347,0.8134,0.704,0.6513,0.5487,0.5042,0.4909,0.4852,0.4915,0.4985,0.4692,0.4692,0.4788,0.4686,0.4628,0.4692,0.5055,0.5491,0.5792,0.5658,0.5685,0.5626,0.527,0.4113,0.2975,0.251,0.1614,0.0424,-0.1168,-0.141,-0.1625,-0.2397,-0.3938,-0.5198,-0.5665,-0.8047,-1.0809,-1.3667,-1.7661,-2.1359,-2.4501,-2.9135,-3.1929,-3.2049,-3.3673,-3.5193,-3.646,-3.7141,-3.8091,-3.938,-3.9767,-3.9792,-3.9445,-3.9495,-3.9088,-3.8303,-3.8633,-3.867,1.7151,0.0,0.0,1.9282,1.9723,2.0389,2.1131,2.1207,2.1351,2.1975,2.2302,2.251,2.2668,2.3842,2.4971,2.5394,2.629,2.6988,2.7241,2.6249,2.533,2.491,2.4203,2.3318,2.2188,2.2118,2.1812,2.1007,2.0057,1.9534,1.9631,1.8377,1.7762,1.8,1.7832,1.7861,1.8066,1.7601,1.7256,1.7061,1.6651,1.6172,1.561,1.509,1.4803,1.4724,1.488,1.5047,1.5182,1.4514,1.4083,1.3696,1.2502,1.1529,1.0587,0.919,0.8259,0.7455,0.6199,0.5634,0.5515,0.572,0.5703,0.5568,0.5284,0.5214,0.5264,0.5324,0.5286,0.5418,0.6105,0.6712,0.6998,0.6691,0.72,0.7502,0.6656,0.5694,0.4784,0.4118,0.2942,0.1412,-0.0494,-0.0893,-0.1347,-0.2476,-0.4093,-0.5293,-0.5631,-0.7823,-1.081,-1.4698,-1.9221,-2.2642,-2.4416,-2.9259,-3.2131,-3.2004,-3.3756,-3.5414,-3.6803,-3.7254,-3.8106,-3.9473,-3.9572,-3.9441,-3.9173,-3.9278,-3.8915,-3.8117,-3.8427,-3.8587,1.9918,1.9841,1.9874,2.1476,2.104,2.0396,2.1131,2.1293,2.1413,2.1819,2.2429,2.2927,2.3126,2.313,2.3656,2.5419,2.5685,2.5976,2.6889,2.714,2.6688,2.5163,2.5074,2.4729,0.0,2.3264,2.3124,2.3277,2.2371,2.1855,2.1978,2.0906,2.0514,2.1053,2.0123,1.9909,2.048,1.9705,1.9034,1.8446,1.8546,1.7844,1.6443,1.5975,1.5829,1.5952,1.6006,1.6076,1.6076,1.6238,1.5652,1.4651,1.4689,1.3953,1.2689,1.1036,0.8875,0.6725,0.6542,0.5991,0.5533,0.6249,0.5991,0.5453,0.5638,0.5676,0.5842,0.6687,0.6928,0.7134,0.8063,0.8314,0.8175,0.7521,0.7986,0.8154,0.6721,0.6922,0.7064,0.5945,0.5274,0.4043,0.1371,0.0604,-0.0358,-0.2396,-0.3373,-0.435,-0.5708,-0.8096,-1.0905,-1.4104,-1.8682,-2.2319,-2.4333,-2.9827,-3.283,-3.205,-3.4068,-3.5647,-3.6491,-3.7898,-3.9013,-3.9783,-3.9802,-3.9402,-3.8603,-3.8823,-3.8457,-3.7655,-3.8754,-3.9302,2.029,2.1043,2.1935,2.2401,2.2563,2.2686,2.302,2.307,2.3231,2.3941,2.3847,2.3786,2.4307,2.4869,2.5456,2.6072,2.7079,2.7778,2.7688,2.7301,2.6645,2.5577,2.506,0.0,0.0,0.0,0.0,2.3087,2.2347,2.1879,2.1849,2.1437,2.1273,2.1455,2.1584,2.1763,2.2055,2.1352,2.0906,2.0729,1.9529,1.81,1.6514,1.6581,1.6412,1.6084,1.6238,1.6322,1.6318,1.576,1.5345,1.4914,1.3538,1.2755,1.2164,1.0337,0.9081,0.8276,0.7731,0.7396,0.7231,0.7483,0.7396,0.7201,0.7279,0.7279,0.7366,0.7761,0.7836,0.7883,0.8287,0.8754,0.8958,0.8231,0.8672,0.9074,0.8338,0.7832,0.7362,0.6838,0.6084,0.4975,0.3185,0.2784,0.1915,-0.0421,-0.2512,-0.4749,-0.7413,-0.9094,-1.1679,-1.5987,-2.0074,-2.3422,-2.5691,-2.9888,-3.2526,-3.2781,-3.4399,-3.5945,-3.7245,-3.8247,-3.9108,-3.9861,-3.9922,-3.9502,-3.8683,-3.8725,-3.8308,-3.7413,-3.7795,-3.8057,2.1834,2.2794,2.3742,2.4276,2.4414,2.4519,2.4891,2.4666,2.462,2.5463,2.4986,2.4561,2.4969,2.5496,2.5863,2.5947,2.7068,2.7728,2.713,2.6654,2.608,2.5332,2.4825,2.4912,0.0,0.0,0.0,2.3894,2.3088,2.2567,2.2531,2.2341,2.2233,2.2202,2.2546,2.2772,2.2923,2.2463,2.2318,2.242,2.093,1.9642,1.8598,1.8521,1.8306,1.7952,1.7682,1.7592,1.7535,1.6492,1.5814,1.5301,1.3928,1.3129,1.2609,1.1341,1.0625,1.007,0.8892,0.8325,0.8157,0.8408,0.8325,0.8101,0.8101,0.8389,0.8706,0.8634,0.891,0.9186,0.9123,0.9482,0.9638,0.8916,0.971,1.0392,0.9637,0.9505,0.9277,0.848,0.7734,0.6678,0.4942,0.4307,0.3331,0.1396,-0.0654,-0.324,-0.6745,-0.9431,-1.2395,-1.5976,-2.0933,-2.4817,-2.6828,-3.0623,-3.313,-3.3705,-3.5098,-3.6368,-3.7397,-3.8169,-3.8826,-3.9364,-3.9438,-3.9236,-3.8694,-3.8771,-3.862,-3.8268,-3.8188,-3.8357,2.4396,2.4975,2.5258,2.6948,2.6526,2.593,2.6693,2.6152,2.566,2.6334,2.5782,2.5155,0.0,0.0,2.5074,2.5196,2.5903,2.6202,2.5518,2.5522,2.5319,0.0,0.0,0.0,0.0,0.0,0.0,2.5679,0.0,2.3901,2.4022,2.3656,2.3414,2.3328,2.3076,2.3021,2.3141,2.3141,2.3218,2.3343,2.2583,2.227,2.2296,2.156,2.1237,2.1239,2.0228,1.9744,1.9594,1.843,1.7238,1.6052,1.5855,1.5058,1.3968,1.3913,1.3173,1.1933,1.0082,0.8931,0.843,0.9185,0.8969,0.8396,0.8396,0.9152,0.9943,0.956,1.0261,1.1056,1.0606,1.054,1.0414,0.9701,1.1033,1.2099,1.074,1.1879,1.2632,1.0739,1.0078,0.9133,0.6941,0.5446,0.422,0.328,0.2157,-0.0053,-0.4064,-0.9022,-1.2792,-1.4431,-2.1191,-2.6229,-2.7772,-3.193,-3.4507,-3.468,-3.5954,-3.6799,-3.6976,-3.7766,-3.8238,-3.8336,-3.8533,-3.8645,-3.8658,-3.8902,-3.9351,-3.9997,-3.9777,-4.0066,2.4744,2.5994,2.7211,2.8122,2.8597,2.8906,2.9115,2.8544,2.7831,2.7257,2.6029,2.4975,0.0,0.0,0.0,2.6884,2.8553,0.0,2.7343,2.7651,0.0,2.6121,0.0,2.7113,2.7335,2.6408,0.0,0.0,2.5194,2.4447,2.4377,2.419,2.3969,2.3753,2.3681,2.3649,2.361,2.3816,2.3526,2.2725,2.2556,2.2118,2.1437,2.1285,2.1236,2.1294,2.096,2.0773,2.0697,2.0321,1.946,1.8274,1.7321,1.6214,1.5064,1.4154,1.363,1.3302,1.2798,1.1959,1.1275,1.2342,1.2586,1.2416,1.2416,1.2618,1.2831,1.2744,1.2917,1.2927,1.1943,1.2375,1.2805,1.1735,1.26,1.3664,1.3627,1.3333,1.273,1.168,1.0992,1.0695,1.1254,1.0199,0.9243,0.9201,0.5576,0.0793,-0.4944,-0.6845,-1.0505,-1.7966,-2.1115,-2.489,-3.0355,-3.2585,-3.3902,-3.4443,-3.5262,-3.6024,-3.6577,-3.7603,-3.794,-3.7588,-3.8647,-3.8833,-3.8107,-3.8787,-3.9355,-3.9758,-3.9725,-4.0189,2.608,2.7643,2.9159,2.9838,3.007,3.0023,2.9613,2.8616,2.7502,2.6546,2.5308,0.0,2.4228,2.5645,0.0,0.0,0.0,0.0,2.7969,2.8157,2.8151,0.0,2.7572,0.0,2.848,2.7241,2.6641,0.0,2.6051,2.5158,2.4778,2.504,2.4904,2.4312,2.4263,2.4247,2.4247,2.432,2.4044,2.3382,2.3344,2.3048,2.2552,2.2591,2.2648,2.2685,0.0,2.1856,2.1724,2.1207,2.059,1.9852,1.881,1.8,1.7266,1.6215,1.5483,1.5105,1.567,1.5101,1.4097,1.3942,1.3898,1.3898,1.3898,1.4283,1.4574,1.4047,1.4381,1.4648,1.3404,1.3644,1.3984,1.3328,1.4022,1.4931,1.5177,1.5255,1.5066,1.4296,1.3335,1.3145,1.4604,1.4435,1.4005,1.3654,0.9326,0.4449,-0.0196,-0.4304,-0.8863,-1.427,-1.8826,-2.3167,-2.7203,-3.0535,-3.2785,-3.3779,-3.458,-3.5404,-3.6286,-3.6982,-3.7364,-3.7322,-3.8114,-3.848,-3.8267,-3.8729,-3.9289,-3.991,-3.9698,-4.0148,2.7776,2.9361,3.0721,3.1619,3.1251,3.0375,2.9334,2.7842,2.6339,2.5108,0.0,2.3531,2.3411,2.4765,2.5748,2.5309,0.0,2.8644,2.8067,2.8097,2.8144,2.8094,2.821,2.8563,2.9272,2.7865,2.7196,2.7901,2.6978,2.6015,2.5206,2.5919,2.5868,2.4823,2.4724,2.4714,2.4771,2.4651,2.4572,2.4505,2.4337,2.4321,2.4429,2.4446,2.4462,2.4458,2.3472,0.0,2.2753,2.1852,2.135,2.1064,2.0243,1.983,1.9593,1.8698,1.7733,1.6984,1.8078,1.7794,1.6664,1.5037,1.4491,1.4459,1.4499,1.5217,1.579,1.479,1.5483,1.6239,1.5022,1.4827,1.4897,1.4735,1.5456,1.6184,1.6184,1.7348,1.8209,1.7542,1.6484,1.6168,1.7632,1.8294,1.8354,1.7627,1.3599,0.9691,0.7081,-0.1308,-0.7309,-0.8125,-1.5552,-2.0919,-2.2069,-2.7353,-3.1128,-3.2398,-3.3351,-3.4361,-3.5625,-3.595,-3.64,-3.7065,-3.7319,-3.7764,-3.8357,-3.8482,-3.9043,-4.0051,-3.9638,-4.0081,2.8573,2.978,3.0912,3.2263,3.2571,3.21,3.0445,2.9352,0.0,0.0,2.3495,2.27,2.1882,2.3174,2.483,2.6188,2.7892,2.9058,2.9038,2.9652,2.9865,0.0,2.9815,3.0104,2.9606,0.0,0.0,0.0,0.0,2.7121,2.5511,2.6142,2.6005,2.4845,2.4738,2.4685,2.4648,2.4598,2.4567,2.4498,2.4595,2.4632,2.4645,2.4768,2.4689,2.4476,2.4342,0.0,2.3989,2.3915,2.3309,2.2314,2.1441,2.0491,1.9517,1.8641,1.8176,1.8034,1.8268,1.8272,1.8134,1.7825,1.7508,1.7347,1.7613,1.7652,1.762,1.7668,1.7899,1.7831,1.6618,1.7026,1.7544,1.6546,1.7263,1.8195,1.8196,1.8854,1.946,1.9548,1.9165,1.9517,2.1686,2.1601,2.173,2.3135,1.9227,1.48,1.1077,0.2736,-0.4682,-0.9367,-1.3223,-1.7447,-2.2446,-2.5934,-2.835,-2.9389,-3.0074,-3.1347,-3.3319,-3.4133,-3.498,-3.5779,-3.6945,-3.7188,-3.6558,-3.739,-3.8302,-3.9311,-3.9316,-3.9985,2.845,3.0258,3.2013,3.2222,3.2696,3.2288,2.9139,0.0,0.0,0.0,2.1751,2.1359,2.0868,2.2235,2.3724,2.4631,2.6533,2.8105,2.8656,2.9471,3.0044,3.0111,3.0933,3.1321,0.0,0.0,0.0,0.0,0.0,2.8105,2.6314,2.6953,2.6909,2.5865,2.5774,2.5488,2.4981,2.482,2.4747,2.4704,2.4625,2.4629,2.47,2.4764,2.4764,2.4716,2.4731,0.0,2.4522,2.4642,2.4348,2.3712,2.2877,2.22,2.1636,2.0776,2.0097,1.964,1.9654,1.9705,1.9737,1.9785,1.9111,1.8283,1.8457,1.8399,1.8283,1.8439,1.8681,1.8941,1.9265,1.981,2.0122,1.9532,1.9759,2.014,2.0335,2.1633,2.2753,2.2671,2.2792,2.3166,2.3909,2.3845,2.3998,2.4964,2.0312,1.6038,1.411,0.5832,-0.1497,-0.5432,-0.8579,-1.2292,-1.6872,-2.0553,-2.3887,-2.7036,-2.8153,-2.947,-3.1013,-3.2171,-3.2804,-3.2928,-3.4824,-3.5726,-3.551,-3.6888,-3.7649,-3.786,-3.8448,-3.8931,2.8007,3.0191,3.227,3.1679,3.2108,3.1571,2.7395,2.5958,0.0,2.1029,2.0321,2.0315,2.0313,2.1443,2.2501,2.2929,2.4688,2.6498,2.7998,2.8794,2.9611,0.0,3.1384,0.0,3.1823,0.0,0.0,0.0,0.0,0.0,2.7536,2.7875,2.7729,2.6833,2.6946,2.6572,2.5626,2.56,2.5573,2.5557,2.5365,2.5319,2.5405,2.5416,2.5443,2.5476,2.5304,0.0,0.0,2.4936,2.4861,2.4742,2.3928,2.3638,2.3586,2.2718,2.1914,2.1243,2.123,2.1236,2.1273,2.1334,2.0387,1.9271,1.936,1.9181,1.9038,1.9299,1.9497,2.0025,2.178,2.2263,2.2362,2.2559,2.2376,2.229,2.2751,2.4547,2.5975,2.561,2.5853,2.5919,2.5384,2.516,2.509,2.5091,2.0618,1.6851,1.5782,0.8292,0.1988,-0.0782,-0.4541,-0.8022,-1.0928,-1.4803,-1.9162,-2.3831,-2.5512,-2.695,-2.8432,-2.9782,-3.0453,-3.0433,-3.2265,-3.3553,-3.4162,-3.564,-3.6172,-3.591,-3.6925,-3.7333,2.7637,2.8904,2.9973,3.0486,3.0789,2.9994,2.6427,0.0,2.4533,2.1095,2.038,2.0383,2.0386,2.0515,2.1155,2.2741,2.3207,2.4488,2.774,2.8275,2.894,3.0593,0.0,0.0,3.0919,0.0,0.0,0.0,0.0,0.0,2.9267,2.858,2.7761,2.6833,2.7619,2.76,2.667,2.7427,2.7789,2.7717,2.7763,2.7748,2.7706,2.7702,2.7597,2.7412,2.661,0.0,0.0,2.5186,2.4907,2.4809,2.3941,2.3638,2.3586,2.2718,2.2383,2.2352,2.2352,2.2384,2.2438,2.2438,2.2093,2.1758,2.2106,2.1429,2.0747,2.1897,2.1644,2.1424,2.3158,2.3618,2.3839,2.4688,2.4781,2.4913,2.5796,2.6832,2.7547,2.7394,2.6869,2.6485,2.654,2.5337,2.4286,2.4099,2.2534,1.9606,1.4884,1.0092,0.56,0.1884,-0.3212,-0.7081,-0.8934,-1.1729,-1.4841,-1.8421,-2.0194,-2.2309,-2.491,-2.6566,-2.8342,-3.0313,-3.029,-3.0655,-3.1477,-3.2205,-3.2733,-3.3302,-3.4181,-3.5451,2.7813,2.9189,3.0347,3.0605,2.996,2.8611,2.6138,0.0,2.3212,2.0227,1.9659,1.9663,1.9612,1.9659,2.0087,2.1305,2.1935,2.2948,2.4857,2.6939,2.8491,2.916,3.1023,0.0,0.0,0.0,0.0,0.0,0.0,0.0,3.022,2.9894,2.929,2.8389,2.8222,2.7705,2.6804,2.7132,2.7531,2.7944,2.85,2.8749,2.8725,2.8725,2.8435,2.7918,2.7524,0.0,0.0,2.6388,2.6041,2.5959,2.5085,2.4761,2.4735,2.4388,2.3869,2.3348,2.3398,2.3731,2.4174,2.4213,2.4871,2.5286,2.3185,2.2582,2.2728,2.3183,2.3454,2.3985,2.5657,2.6065,2.6257,2.7149,2.6959,2.6803,2.7719,2.8975,2.9608,2.8629,2.8534,2.8417,2.7566,2.5192,2.3427,2.3307,2.0508,1.7455,1.4868,0.9642,0.5462,0.3545,-0.089,-0.523,-0.8842,-1.0252,-1.2949,-1.7613,-1.9177,-2.0696,-2.2289,-2.387,-2.5043,-2.5806,-2.7857,-2.8896,-2.8896,-3.0643,-3.1211,-3.0894,-3.2364,-3.3172,2.7215,2.8928,3.0448,3.0428,2.934,2.7827,0.0,0.0,2.2034,1.9642,1.8983,1.8829,1.8776,1.9002,1.9407,2.0045,2.0857,2.1811,2.2943,2.5446,2.7324,2.7788,0.0,3.2007,0.0,0.0,0.0,0.0,0.0,0.0,3.0678,3.0652,3.0269,2.9435,2.9051,2.8446,2.7585,2.7808,2.8309,2.9081,2.9703,3.0132,3.0407,3.0162,2.9776,2.925,2.869,0.0,0.0,2.7165,2.6645,2.6344,2.5742,2.5657,2.5835,2.5584,2.5312,2.5039,2.4887,2.5347,2.6015,2.6108,2.7105,2.7784,2.5137,2.4514,2.4715,2.4645,2.562,2.6947,2.8077,2.8677,2.9139,2.9794,2.9169,2.864,2.9572,3.0137,3.0223,2.9407,2.9066,2.8457,2.6812,2.4194,2.1987,2.1062,1.7904,1.5353,1.4384,0.874,0.4755,0.4322,0.0223,-0.4021,-0.7648,-0.852,-1.0904,-1.5352,-1.7055,-1.854,-1.9826,-2.1212,-2.234,-2.3029,-2.5586,-2.6907,-2.6812,-2.894,-2.95,-2.8723,-3.0241,-3.0886,2.5496,2.7621,2.9591,2.9525,2.8895,2.7831,2.6093,2.3687,2.1349,1.9644,1.8603,1.801,1.8003,1.866,1.9223,1.9295,1.9981,2.1118,2.2863,2.3865,2.5078,0.0,0.0,2.9775,0.0,0.0,0.0,0.0,0.0,0.0,3.0598,3.054,3.0161,2.943,3.0234,3.0253,2.9377,3.0156,3.1008,3.1865,3.1865,3.2357,3.3223,3.243,3.2068,0.0,0.0,0.0,0.0,2.7195,2.6291,2.5519,2.5509,2.5987,2.658,2.5781,2.6462,2.7648,2.7005,2.7254,2.7885,2.8022,2.8353,2.8695,2.8662,2.7725,2.6661,2.6584,2.8305,3.0161,3.0163,3.129,3.2475,3.2632,3.1462,3.0583,3.1638,3.0072,2.8695,2.9602,2.7893,2.5576,2.3551,2.1917,1.9811,1.6655,1.5409,1.4367,1.3058,0.7743,0.399,0.399,-0.0223,-0.3582,-0.4799,-0.6239,-0.8002,-1.019,-1.269,-1.5169,-1.7403,-1.8643,-2.0507,-2.322,-2.3827,-2.451,-2.5285,-2.6648,-2.7136,-2.6945,-2.7704,-2.9039,2.4564,2.5427,2.6175,2.6767,2.5362,2.3725,2.3221,2.1543,1.9607,1.789,1.7303,1.7107,1.7108,1.781,1.8572,1.9199,2.0018,2.0759,2.1308,2.4598,0.0,2.6868,2.9757,3.1609,0.0,0.0,0.0,0.0,0.0,0.0,3.0321,3.0177,3.0119,3.015,2.9747,2.9474,2.9326,2.9484,3.0035,3.0952,3.1557,3.2298,3.3154,3.2908,3.283,0.0,0.0,0.0,0.0,2.9127,2.832,2.7966,2.737,2.7293,2.7479,2.714,2.7312,2.7749,2.7855,2.8449,2.9192,2.9601,3.0198,3.0691,3.0377,2.9815,2.9459,3.0224,3.0646,3.102,3.1609,3.1412,3.1229,3.193,3.0592,2.9405,3.0093,2.8829,2.7448,2.7107,2.6101,2.487,2.3825,2.1228,1.8827,1.7435,1.4902,1.244,1.0437,0.7326,0.4443,0.2339,-0.0781,-0.3689,-0.5917,-0.7232,-0.8879,-1.0979,-1.2837,-1.4347,-1.55,-1.718,-1.8747,-2.0207,-2.2291,-2.3628,-2.4214,-2.5187,-2.6071,-2.6955,-2.7146,-2.7966,2.3017,2.4149,2.5011,2.5562,2.3745,2.185,2.1894,2.0039,1.8008,1.6914,1.6445,1.6211,1.6211,1.7187,1.8184,1.8711,1.9824,2.08,2.1396,2.4739,0.0,2.85,0.0,0.0,0.0,0.0,0.0,0.0,0.0,0.0,3.0089,2.9943,2.9988,3.0266,2.9666,2.9398,2.9525,2.944,2.9863,3.0775,3.1386,3.2134,3.2987,3.2723,3.2645,0.0,0.0,0.0,0.0,2.9576,2.904,2.896,2.8415,2.8514,2.8881,2.8243,2.8503,2.9209,2.9212,2.9734,3.0509,3.0973,3.1681,3.2271,3.2137,3.1253,3.0586,3.1942,3.1763,3.1326,3.2039,3.1602,3.1046,3.1485,3.0053,2.874,2.917,2.7799,2.6105,2.5003,2.4037,2.2934,2.149,1.9205,1.7061,1.5485,1.3138,1.0773,0.8459,0.6232,0.3786,0.1227,-0.1228,-0.3799,-0.6369,-0.7354,-0.8562,-1.0108,-1.1433,-1.2847,-1.4228,-1.5606,-1.6976,-1.8234,-2.0625,-2.1979,-2.2291,-2.3592,-2.4688,-2.5877,-2.6081,-2.6839,0.0,2.3259,2.5155,2.5155,2.3377,2.1601,2.1542,1.9023,0.0,1.6621,1.5957,1.543,1.5488,1.6875,1.8027,1.8086,1.9492,2.1146,2.2762,2.4695,2.7375,0.0,3.2297,0.0,0.0,0.0,0.0,0.0,0.0,0.0,2.9918,2.9799,2.9801,2.9864,2.9864,2.988,2.9896,2.9883,3.0281,3.1105,3.1298,3.1837,3.2659,3.2018,3.1738,0.0,0.0,0.0,0.0,2.8886,2.8737,2.8734,2.8727,2.9485,3.0396,2.9032,2.9776,3.1399,3.0711,3.0909,3.1557,3.1985,3.2583,3.3178,3.352,3.1987,3.0463,3.1983,3.1707,3.1032,3.1466,3.1515,3.1343,3.0971,2.955,2.8273,2.8479,2.6543,2.4457,2.3153,2.1771,2.0013,1.751,1.6356,1.4717,1.1657,1.0401,0.9208,0.7124,0.4799,0.2459,0.0558,-0.1452,-0.3689,-0.6038,-0.6818,-0.7479,-0.8017,-0.9137,-1.0895,-1.3378,-1.4121,-1.5394,-1.7292,-1.9058,-2.001,-2.0025,-2.1971,-2.3302,-2.4035,-2.4637,-2.5703,1.7734,0.0,1.9804,1.9804,1.9355,1.873,0.0,1.7285,1.6504,1.584,1.5547,1.5605,1.6269,1.7265,1.82,1.8822,1.9812,2.1313,2.3582,2.7475,3.0891,3.3111,3.3895,0.0,0.0,0.0,0.0,0.0,0.0,3.0508,2.9644,2.9435,2.9372,2.9433,2.9492,2.9645,2.9902,2.9751,2.9863,3.0203,3.0203,3.0668,3.1565,3.1159,3.1366,0.0,0.0,0.0,3.0215,2.9397,2.9045,2.8989,2.895,2.9111,2.9342,2.8892,2.9045,2.9531,2.9963,3.0234,3.0493,3.1319,3.1462,3.1272,3.0985,3.1145,3.1411,3.1475,3.0563,2.9491,2.9322,2.8566,2.7773,2.7694,2.6232,2.4783,2.4659,2.2631,2.0743,2.0246,1.8771,1.7529,1.7258,1.4727,1.2461,1.1695,0.9012,0.6702,0.5246,0.47,0.3357,0.0671,-0.19,-0.3916,-0.515,-0.6369,-0.7587,-0.8585,-0.9357,-1.0241,-1.1337,-1.2837,-1.4121,-1.5287,-1.8651,-2.0333,-2.0341,-2.2492,-2.3619,-2.3827,-2.4529,-2.5314,1.6094,1.7031,1.8008,1.8008,1.7695,1.7285,1.6816,1.6387,1.6074,1.6016,1.5996,1.6269,1.7146,1.8908,2.0024,1.9307,2.1815,2.4593,2.6742,2.927,3.1651,3.3623,3.4017,0.0,0.0,0.0,0.0,0.0,0.0,3.0314,2.9412,2.9307,2.9385,2.9669,2.9691,2.9702,2.9663,2.957,2.957,2.9663,2.9851,3.0001,3.0096,3.0258,3.0424,0.0,0.0,0.0,2.9617,2.8795,2.8882,2.9573,2.9522,2.9863,3.033,2.9953,3.0006,3.0308,3.0582,3.0541,3.037,3.0617,3.0554,3.0337,3.008,2.999,2.9982,2.9959,2.8828,2.7649,2.7627,2.6816,2.5987,2.5769,2.4814,2.3716,2.2705,2.1173,1.9341,1.7644,1.6438,1.5448,1.5054,1.339,1.1846,1.0911,0.8543,0.6141,0.4363,0.3966,0.2768,-0.0221,-0.167,-0.3356,-0.5489,-0.6376,-0.726,-0.8592,-0.8809,-0.9361,-1.0692,-1.176,-1.3161,-1.5108,-1.7647,-1.9228,-1.9738,-2.1167,-2.1996,-2.2426,-2.3529,-2.4322,1.539,1.6757,1.8084,1.7695,1.7148,1.6699,1.6699,1.623,1.6015,1.6757,1.6894,1.7241,1.8444,2.0671,2.1794,2.0141,2.43,2.8385,3.0198,3.0688,3.1562,3.3464,3.3542,0.0,0.0,0.0,0.0,0.0,0.0,0.0,0.0,2.9503,2.9747,3.0222,3.0216,3.0026,2.9632,2.9632,2.9558,2.9407,2.9931,2.9635,2.8672,2.9381,2.9259,2.8463,0.0,0.0,2.8347,2.7862,2.8534,2.9819,2.9894,3.0567,3.1392,3.0801,3.0942,3.1298,3.1031,3.0692,3.0234,2.9643,2.9408,2.9282,2.9128,2.8148,2.7155,2.7442,2.6592,2.5643,2.584,2.5353,2.4645,2.426,2.3857,2.3152,2.155,2.0214,1.8475,1.5704,1.457,1.3678,1.2449,1.2157,1.1415,0.9372,0.7893,0.6005,0.3497,0.2695,0.1306,-0.1413,-0.176,-0.2998,-0.6137,-0.6362,-0.6808,-0.8042,-0.7817,-0.8478,-1.0582,-1.1004,-1.2625,-1.5666,-1.6636,-1.7687,-1.8826,-1.9435,-2.0166,-2.1019,-2.2325,-2.332,1.5406,1.7138,1.8429,1.6326,1.625,1.6699,1.6699,1.7165,1.7647,1.7764,1.7771,1.8539,2.1234,2.0654,2.0487,2.2658,2.5558,2.8299,0.0,0.0,3.3684,3.3245,0.0,0.0,0.0,0.0,0.0,0.0,0.0,0.0,0.0,3.0559,3.0613,3.0767,3.0785,3.0758,3.0658,3.0658,3.0224,2.9323,3.0134,2.9609,2.7968,2.8558,2.8388,2.7677,0.0,2.7226,2.7444,2.7917,2.8266,2.8558,2.9059,2.9138,2.8942,2.8827,2.8619,2.8375,2.8505,2.8537,2.8394,2.775,2.6885,2.598,2.5091,2.4226,2.3424,2.3093,2.3608,2.3986,2.2998,2.259,2.2319,2.167,2.1055,2.0391,1.9598,1.7286,1.5315,1.4779,1.3053,1.1796,1.1932,1.0493,0.8862,0.7131,0.5212,0.3229,0.1274,0.0427,-0.0428,-0.1494,-0.3317,-0.4744,-0.536,-0.6023,-0.6503,-0.6601,-0.7265,-0.8367,-1.0253,-1.1004,-1.262,-1.5097,-1.6187,-1.747,-1.8826,-1.9857,-2.079,-2.1623,-2.2526,-2.3329,1.5409,1.6586,1.7755,1.7506,1.8734,2.0122,2.0643,2.1068,2.1223,2.0792,2.0672,2.1016,2.223,2.3127,2.4974,2.8903,0.0,2.8955,3.1769,0.0,0.0,0.0,0.0,0.0,0.0,0.0,0.0,0.0,0.0,0.0,0.0,0.0,3.098,3.1267,3.1021,3.0981,3.1278,3.094,3.0527,3.0001,3.0004,2.9316,2.8028,2.8271,2.7962,2.725,0.0,2.7251,2.7304,2.746,2.7722,2.8139,2.8387,2.8625,2.8799,2.8799,2.8587,2.8271,2.7564,2.722,2.6827,2.5723,2.487,2.423,2.3774,2.3182,2.2565,2.2397,2.2302,2.2199,2.1603,2.1177,2.0767,2.0463,1.9552,1.8417,1.7211,1.5286,1.3487,1.2543,1.153,1.0833,1.1028,0.9661,0.8251,0.7155,0.4892,0.2651,0.1235,0.0105,-0.0853,-0.1598,-0.3573,-0.4922,-0.4805,-0.5891,-0.6483,-0.6267,-0.7154,-0.8257,-0.9695,-1.1319,-1.3259,-1.5624,-1.6823,-1.8003,-1.9257,-1.9672,-2.0094,-2.0395,-2.12,-2.181,1.539,1.6453,1.785,1.9169,2.073,2.2346,2.3863,2.3888,2.3564,2.3487,2.3473,2.3495,2.3534,2.5824,2.8852,3.246,3.0714,2.9926,0.0,0.0,0.0,0.0,0.0,0.0,0.0,0.0,0.0,0.0,0.0,0.0,0.0,0.0,3.1093,3.1452,3.1046,3.1022,3.1414,3.0874,3.0442,3.0156,2.9799,2.9036,2.7889,2.8081,2.7758,2.6994,2.7146,2.7221,2.7262,2.7205,2.7469,2.8002,2.8205,2.8463,2.8748,2.8762,2.8523,2.8046,2.6989,2.6258,2.554,2.4238,2.3567,2.3269,2.311,2.2744,2.2434,2.2389,2.1558,2.0715,2.1116,2.0741,2.0286,1.9869,1.8892,1.7447,1.5549,1.4047,1.246,1.0872,1.031,0.9975,0.9975,0.8999,0.7808,0.6687,0.4564,0.254,0.1016,-0.0209,-0.1172,-0.1919,-0.3599,-0.4742,-0.4922,-0.5916,-0.6523,-0.6639,-0.7499,-0.8377,-0.9521,-1.1599,-1.4012,-1.6561,-1.7342,-1.8533,-1.9904,-1.9604,-1.9567,-1.9695,-2.0297,-2.0664,1.5406,1.7677,2.0084,2.0277,1.988,2.0282,2.348,2.2957,2.2378,2.4428,2.4873,2.5228,2.6443,2.7539,2.8349,2.8708,2.9597,0.0,0.0,0.0,0.0,0.0,0.0,0.0,0.0,0.0,0.0,0.0,0.0,0.0,0.0,0.0,0.0,3.097,3.0931,3.0903,3.0885,3.0385,2.9707,2.8936,2.9708,2.8997,2.7026,2.7794,2.7688,2.6898,2.6902,2.6934,2.6981,2.7655,2.7939,2.8094,2.8742,2.8529,2.781,2.7733,2.6971,2.6028,2.6076,2.5517,2.4654,2.3713,2.3225,2.2829,2.2324,2.2,2.1883,2.183,2.0717,1.9853,2.138,2.1738,2.1253,1.9813,1.8948,1.7895,1.556,1.3726,1.225,1.1417,0.9801,0.8635,0.8635,0.8024,0.6529,0.3585,0.2955,0.1795,-0.106,-0.1594,-0.1916,-0.2766,-0.3731,-0.483,-0.6209,-0.6313,-0.6753,-0.7769,-0.8434,-0.9189,-1.001,-1.1801,-1.4224,-1.735,-1.7258,-1.826,-2.0483,-2.0273,-2.0435,-2.086,-2.0965,-2.1315,1.6064,1.8205,2.0578,2.1731,2.2164,2.3192,2.6547,2.7113,2.6928,2.6892,2.7886,2.8575,2.7934,2.9481,3.0725,3.0357,3.1513,0.0,0.0,0.0,0.0,0.0,0.0,0.0,0.0,0.0,0.0,0.0,0.0,0.0,0.0,0.0,0.0,3.0851,3.0452,3.0285,3.026,2.9585,2.9023,2.8542,2.8742,2.8315,2.7295,2.718,2.6855,2.6329,2.6857,2.7092,2.7136,2.7772,2.7854,2.7469,2.7408,2.7432,2.753,2.7374,2.7326,2.7159,2.6001,2.5243,2.4554,2.3137,2.2445,2.2169,2.1959,2.1892,2.1655,2.1042,2.0422,2.0015,2.0219,1.9545,1.8501,1.7644,1.6544,1.5499,1.4232,1.2024,1.0139,0.9846,0.8431,0.7339,0.7339,0.6432,0.498,0.2969,0.1911,0.0531,-0.1491,-0.172,-0.184,-0.2164,-0.3459,-0.4984,-0.665,-0.6587,-0.6952,-0.8304,-0.8232,-0.913,-1.1317,-1.2114,-1.4145,-1.7753,-1.7668,-1.8333,-1.9771,-2.023,-2.0164,-1.97,-2.0472,-2.0834,1.7337,1.9087,2.1165,2.2933,2.3772,2.5029,2.8349,2.9027,2.9015,2.9213,3.0307,3.0829,2.9569,3.109,0.0,0.0,0.0,0.0,0.0,0.0,0.0,0.0,0.0,0.0,0.0,0.0,0.0,0.0,0.0,0.0,0.0,0.0,0.0,0.0,2.9951,2.9673,2.9629,2.8951,2.8462,2.8155,2.7874,2.7659,2.7518,2.6958,2.65,2.6228,2.6701,2.7069,2.7311,2.7755,2.7808,2.7593,2.6947,2.689,2.7153,2.6934,2.6941,2.6761,2.5435,2.467,2.4103,2.2713,2.2107,2.1894,2.1894,2.1644,2.1191,2.0483,1.9847,1.919,1.8613,1.7966,1.7265,1.6173,1.5042,1.3802,1.2257,1.0169,0.8459,0.7994,0.6862,0.5993,0.5993,0.4838,0.3455,0.216,0.0973,-0.0325,-0.1516,-0.1751,-0.1984,-0.2643,-0.3963,-0.5389,-0.6928,-0.7035,-0.748,-0.8825,-0.8879,-0.9909,-1.2357,-1.3199,-1.5005,-1.8098,-1.7966,-1.8354,-1.9361,-1.9918,-1.9584,-1.8709,-1.9936,-2.0442,1.9198,2.0424,2.2111,2.3793,2.4176,2.4985,2.8198,2.7593,2.7423,3.1224,3.1741,3.1533,3.1584,3.226,0.0,0.0,0.0,0.0,0.0,0.0,0.0,0.0,0.0,0.0,0.0,0.0,0.0,0.0,0.0,0.0,0.0,0.0,0.0,0.0,2.9321,2.9229,2.9107,2.8652,2.8186,2.77,2.7159,2.7137,2.7575,2.7137,2.6916,2.6864,2.6472,2.6723,2.7408,2.7511,2.7986,2.863,2.7876,2.7193,2.6582,2.6271,2.534,2.4115,2.419,2.3647,2.2968,2.2617,2.232,2.2083,2.2083,2.1295,2.0339,2.0257,1.888,1.7116,1.6642,1.7625,1.8126,1.5947,1.4981,1.3499,0.969,0.8438,0.7676,0.6142,0.5177,0.4695,0.4696,0.3321,0.1904,0.1009,0.0112,-0.0785,-0.1683,-0.1795,-0.2466,-0.4255,-0.5262,-0.6156,-0.7154,-0.7712,-0.8326,-0.914,-1.0659,-1.2064,-1.316,-1.5183,-1.69,-1.834,-1.7771,-1.8262,-1.9689,-1.9192,-1.8724,-1.8444,-1.9682,-2.0197,1.8115,2.0772,2.3523,2.4057,2.6275,2.8715,3.0185,3.0091,3.037,3.2827,3.2376,3.1557,3.1464,3.2478,0.0,0.0,0.0,0.0,0.0,0.0,0.0,0.0,0.0,0.0,0.0,0.0,0.0,0.0,0.0,0.0,0.0,0.0,0.0,0.0,2.9635,2.9695,2.9644,2.9214,2.8868,2.8732,2.8291,2.7443,2.6272,2.6645,2.6693,2.6484,2.7293,2.7765,2.7974,2.8074,2.8186,2.8264,2.6974,2.6635,2.688,2.6019,2.5753,2.5765,2.4847,2.4221,2.3608,2.2718,2.2129,2.1822,2.1822,2.1078,2.0158,1.943,1.794,1.6278,1.5025,1.4598,1.4292,1.3417,1.2737,1.1648,0.9549,0.8157,0.6944,0.602,0.474,0.3838,0.3886,0.3015,0.1904,0.1009,0.0112,-0.0785,-0.1683,-0.2354,-0.3138,-0.4367,-0.5262,-0.6156,-0.7154,-0.7712,-0.8937,-1.1067,-1.1996,-1.2784,-1.3728,-1.4782,-1.6239,-1.8094,-1.7503,-1.7628,-1.8391,-1.8964,-1.8849,-1.8043,-1.9995,-2.0757,2.0727,2.2937,2.5004,2.6649,2.8561,3.0566,3.2504,3.2617,3.2713,3.4127,3.3556,3.2812,3.2763,3.3451,0.0,0.0,0.0,0.0,0.0,0.0,0.0,0.0,0.0,0.0,0.0,0.0,0.0,0.0,0.0,0.0,0.0,0.0,0.0,0.0,2.951,2.9757,3.0083,2.9666,2.9327,2.9053,2.8453,2.7441,2.607,2.6903,2.7143,2.6937,2.7899,2.8306,2.8385,2.8712,2.8841,2.8754,2.6921,2.6578,2.6839,2.5028,2.4826,2.5254,2.4039,2.3533,2.3278,2.2496,2.2055,2.1642,2.1275,2.0439,1.9521,1.8519,1.6821,1.5038,1.3802,1.2597,1.1595,1.1434,1.1067,1.0207,0.8189,0.71,0.619,0.5128,0.4139,0.3544,0.358,0.2577,0.1457,0.1009,-0.0112,-0.1121,-0.1683,-0.2914,-0.403,-0.492,-0.6149,-0.7154,-0.8039,-0.8595,-0.9688,-1.1638,-1.262,-1.351,-1.4346,-1.5203,-1.627,-1.7714,-1.721,-1.7163,-1.7721,-1.8237,-1.8128,-1.759,-1.9795,-2.0723,2.4937,2.5832,2.6612,3.0251,3.078,3.1305,3.4791,3.4928,3.4511,3.5146,0.0,3.4859,3.4929,0.0,0.0,0.0,0.0,0.0,0.0,0.0,0.0,0.0,0.0,0.0,0.0,0.0,0.0,0.0,0.0,0.0,0.0,0.0,0.0,2.9251,2.9276,2.9648,3.0394,3.0061,2.9615,2.8937,2.8066,2.7387,2.6762,2.7506,2.7917,2.8085,2.8466,2.8599,2.8612,2.9391,2.9667,2.9412,2.7442,2.6724,2.6467,2.3678,2.2977,2.3328,2.2371,2.2148,2.2177,2.2054,2.1742,2.1275,2.0439,1.943,1.8427,1.7505,1.5602,1.3738,1.298,1.1406,0.9903,0.9702,0.9702,0.9053,0.6279,0.5765,0.5333,0.381,0.3541,0.358,0.3587,0.213,0.0897,0.0673,-0.0785,-0.1795,-0.1795,-0.3361,-0.4698,-0.5688,-0.7362,-0.8702,-0.9361,-1.0025,-1.0794,-1.1647,-1.3068,-1.4261,-1.512,-1.6115,-1.6794,-1.7086,-1.6715,-1.6881,-1.7483,-1.7183,-1.7091,-1.7256,-1.9339,-2.0385,2.1417,2.4851,2.8418,2.9178,3.1426,3.3805,3.5132,3.5676,3.5911,3.5964,3.6019,3.5973,0.0,0.0,0.0,0.0,0.0,0.0,0.0,0.0,0.0,0.0,0.0,0.0,0.0,0.0,0.0,0.0,0.0,0.0,0.0,0.0,0.0,3.0362,3.0556,3.0728,3.0934,3.0441,3.0132,0.0,2.903,2.8469,2.8266,2.735,2.7466,2.8478,2.9153,2.9197,2.886,2.9503,2.905,2.7903,2.7191,2.613,2.4767,2.3457,2.2606,2.2192,2.2111,2.1514,2.08,2.0866,2.0279,1.9347,1.9155,1.8427,1.7505,1.664,1.5026,1.3227,1.1712,1.0524,0.9221,0.7528,0.7829,0.7972,0.6077,0.5709,0.5254,0.3799,0.3507,0.3531,0.3579,0.213,0.0449,-0.1009,-0.157,-0.1795,-0.1795,-0.269,-0.4027,-0.5577,-0.6803,-0.8026,-0.9578,-1.0891,-1.2087,-1.3161,-1.4567,-1.5654,-1.6299,-1.6373,-1.6371,-1.6519,-1.6157,-1.6423,-1.723,-1.6911,-1.731,-1.8532,-1.9693,-2.0723,2.2921,2.5738,2.8319,3.0433,3.3271,3.5615,3.5877,3.6869,3.7701,3.7532,3.6867,0.0,0.0,0.0,0.0,0.0,0.0,0.0,0.0,0.0,0.0,0.0,0.0,0.0,0.0,0.0,0.0,0.0,0.0,0.0,0.0,3.0897,3.0762,3.0522,3.0639,3.088,3.1307,3.0999,3.0747,3.0447,2.9421,2.839,2.7564,2.738,2.7644,2.8344,2.8742,2.875,2.8557,2.8859,2.8225,2.7001,2.6083,2.502,2.3798,2.2092,2.1467,2.1449,2.1348,2.0764,2.0042,2.0342,1.9709,1.8603,1.7848,1.7203,1.6459,1.4924,1.3392,1.195,1.0685,0.9612,0.8535,0.7437,0.7238,0.677,0.5252,0.5,0.465,0.3695,0.3496,0.3506,0.3538,0.2104,0.0222,-0.1569,-0.1795,-0.2019,-0.2576,-0.336,-0.4697,-0.7019,-0.791,-0.902,-1.068,-1.1555,-1.2635,-1.403,-1.4894,-1.5761,-1.6842,-1.6855,-1.6493,-1.6091,-1.632,-1.6587,-1.6905,-1.702,-1.7444,-1.8298,-1.9693,-2.0493,2.4767,2.6645,2.8049,3.22,3.4923,3.6589,3.6527,3.7784,3.8961,3.8855,0.0,0.0,0.0,0.0,0.0,0.0,0.0,0.0,0.0,0.0,0.0,0.0,0.0,0.0,0.0,0.0,0.0,0.0,0.0,0.0,3.1052,3.0757,3.0608,3.0517,3.0522,3.0776,3.1499,3.1265,3.0893,3.0409,2.9247,2.7789,2.6201,2.7175,2.7681,2.7743,2.7927,2.7901,2.7797,2.7914,2.7197,2.5931,2.4781,2.3783,2.2769,2.0755,2.0282,2.0732,2.0597,2.0039,1.9587,1.9735,1.9139,1.8041,1.625,1.5684,1.5305,1.3108,1.1653,1.048,0.9801,0.8619,0.7633,0.7338,0.6637,0.5663,0.4637,0.4292,0.415,0.3578,0.3491,0.339,0.307,0.1755,0.011,-0.1567,-0.1908,-0.2354,-0.3469,-0.414,-0.5697,-0.8572,-0.946,-1.0457,-1.1891,-1.2219,-1.297,-1.4578,-1.4793,-1.5547,-1.7179,-1.7279,-1.6855,-1.6099,-1.6691,-1.6975,-1.6812,-1.7292,-1.7554,-1.783,-1.957,-2.0385,2.0776,2.5139,2.9888,3.2415,3.4375,3.5832,3.6459,3.7357,3.8192,0.0,0.0,0.0,0.0,0.0,0.0,0.0,0.0,0.0,0.0,0.0,0.0,0.0,0.0,0.0,0.0,0.0,0.0,0.0,0.0,0.0,3.183,3.1718,3.1611,3.1332,3.1307,3.1311,3.1413,3.0369,2.9776,2.9711,2.804,2.6837,2.598,2.6107,2.639,2.6769,2.7363,2.7275,2.6546,2.7057,2.5994,2.4018,2.4381,2.2977,2.0848,2.0547,1.9929,1.9423,2.0255,1.9768,1.87,1.8154,1.7345,1.625,1.4459,1.389,1.3601,1.2145,1.0956,0.9772,0.8315,0.712,0.6022,0.4832,0.4435,0.4556,0.5359,0.4977,0.4283,0.3518,0.3463,0.2963,0.1113,0.0558,-0.0112,-0.1906,-0.2357,-0.2803,-0.347,-0.4359,-0.591,-0.8572,-0.9453,-1.0445,-1.2219,-1.3083,-1.3938,-1.49,-1.5654,-1.6411,-1.7179,-1.7378,-1.7265,-1.663,-1.673,-1.6894,-1.7018,-1.7439,-1.7949,-1.8758,-2.0026,-2.0945,2.2478,2.6544,3.0301,3.309,3.4288,3.4977,3.5806,3.6823,3.7679,0.0,0.0,0.0,0.0,0.0,0.0,0.0,0.0,0.0,0.0,0.0,0.0,0.0,0.0,0.0,0.0,0.0,0.0,0.0,0.0,3.3471,3.2074,3.1921,3.1724,3.1409,3.1055,3.1043,3.1406,2.9953,2.8937,2.8213,2.732,2.6483,2.5923,2.5851,2.5925,2.6191,2.6402,2.6316,2.5984,2.6173,2.4948,2.3139,2.3275,2.1944,1.9942,1.9775,1.9381,1.903,1.9384,1.8784,1.7763,1.7055,1.6156,1.5045,1.342,1.264,1.215,1.089,0.9497,0.8202,0.7229,0.6229,0.5425,0.483,0.4431,0.434,0.4883,0.4215,0.3335,0.2548,0.2483,0.186,-0.0221,-0.0663,-0.0997,-0.2241,-0.2581,-0.3251,-0.4697,-0.5029,-0.6362,-0.9578,-1.0017,-1.0676,-1.2219,-1.3186,-1.4046,-1.4905,-1.5867,-1.6624,-1.7378,-1.7582,-1.7477,-1.7265,-1.7231,-1.7186,-1.7129,-1.7635,-1.825,-1.91,-2.0256,-2.1174,2.3115,2.6114,2.854,3.2113,3.3226,3.3734,3.494,0.0,3.6912,0.0,0.0,0.0,0.0,0.0,0.0,0.0,0.0,0.0,0.0,0.0,0.0,0.0,0.0,0.0,0.0,0.0,0.0,0.0,0.0,3.3308,3.1864,3.1694,3.1495,3.1278,3.0744,3.0682,3.1157,2.9458,2.8053,2.6786,2.6526,2.6208,2.577,2.5636,2.5587,2.5707,2.5538,2.55,2.5355,2.5251,2.4162,2.2436,2.2367,2.1095,1.9399,1.9082,1.8834,1.8619,1.8786,1.8037,1.7049,1.6501,1.5461,1.4297,1.2834,1.197,1.1277,0.992,0.845,0.6965,0.6339,0.545,0.4657,0.4636,0.4429,0.4034,0.3849,0.3375,0.2701,0.16,0.1511,0.0979,-0.0988,-0.143,-0.1658,-0.2576,-0.2806,-0.3587,-0.5256,-0.5924,-0.7254,-1.0135,-1.0688,-1.1236,-1.2327,-1.2975,-1.3835,-1.4905,-1.5654,-1.6511,-1.7582,-1.7582,-1.7582,-1.7582,-1.7589,-1.752,-1.7246,-1.783,-1.8447,-1.8988,-2.0329,-2.1288,1.9525,2.1337,2.3582,2.8138,3.029,3.1828,0.0,0.0,0.0,0.0,0.0,0.0,0.0,0.0,0.0,0.0,0.0,0.0,0.0,0.0,0.0,0.0,0.0,0.0,0.0,0.0,0.0,0.0,0.0,3.2631,3.0969,3.0881,3.0999,3.1278,3.0611,3.0303,3.0474,2.8581,2.7012,2.5676,2.5676,2.5523,2.5324,2.5175,2.5175,2.5136,2.5104,2.4823,2.4596,2.4542,2.351,2.1971,2.1889,2.0733,1.9002,1.9002,1.8345,1.7629,1.8718,1.8038,1.6627,1.6515,1.5491,1.4017,1.2775,1.1883,1.0998,0.992,0.8324,0.6768,0.5859,0.4287,0.3094,0.3244,0.3331,0.3043,0.227,0.2659,0.267,0.1189,0.1294,0.0969,-0.1001,-0.1342,-0.1678,-0.258,-0.3141,-0.3811,-0.4479,-0.6808,-0.8689,-0.9688,-1.1337,-1.2332,-1.2436,-1.2441,-1.3192,-1.49,-1.5013,-1.5867,-1.7582,-1.7582,-1.7582,-1.7582,-1.7595,-1.7543,-1.7623,-1.8065,-1.823,-1.8148,-2.0452,-2.1395,1.9265,2.0603,2.2215,2.595,2.8254,2.9933,3.1175,3.3051,0.0,0.0,0.0,0.0,0.0,0.0,0.0,0.0,0.0,0.0,0.0,0.0,0.0,0.0,0.0,0.0,0.0,0.0,0.0,0.0,0.0,0.0,3.0731,3.0762,3.0881,3.0999,3.0083,2.9039,2.7839,2.7915,2.7117,2.5382,2.5382,2.5465,2.5489,2.5142,2.5054,2.5122,2.4848,2.4619,2.4619,2.4501,2.3487,2.1928,2.1928,2.0671,1.9002,1.8851,1.8184,1.7351,1.7262,1.6574,1.5526,1.4624,1.3815,1.3051,1.212,1.1284,1.0511,0.9826,0.8361,0.6799,0.5725,0.4495,0.3559,0.3234,0.2852,0.2167,0.1366,0.1889,0.1997,0.0428,-0.0109,-0.0773,-0.246,-0.28,-0.2913,-0.3477,-0.3701,-0.448,-0.6258,-0.7368,-0.8692,-1.0789,-1.1564,-1.2005,-1.2332,-1.2866,-1.3511,-1.4153,-1.5227,-1.608,-1.6723,-1.7259,-1.7582,-1.7582,-1.7582,-1.7623,-1.7597,-1.7921,-1.8537,-1.9231,-2.0019,-2.1082,1.8142,1.8913,2.0038,2.3413,2.545,2.7151,2.9053,0.0,0.0,0.0,0.0,0.0,0.0,0.0,0.0,0.0,0.0,0.0,0.0,0.0,0.0,0.0,0.0,0.0,0.0,0.0,0.0,0.0,0.0,0.0,3.0791,3.0568,3.0312,2.9993,2.9568,2.8556,2.6898,2.7515,2.7157,2.5778,2.5455,2.5382,2.5572,2.5228,2.509,2.5216,2.4852,2.4619,2.4597,2.4501,2.3402,2.1846,2.1846,2.0585,1.8567,1.8497,1.7755,1.6668,1.6286,1.5468,1.4509,1.3842,1.3256,1.2752,1.2559,1.1697,1.0699,1.0306,0.8755,0.7101,0.603,0.4976,0.3932,0.3331,0.275,0.2168,0.1157,0.1273,0.1175,-0.0433,-0.1098,-0.178,-0.3024,-0.3363,-0.358,-0.3895,-0.4001,-0.4884,-0.6974,-0.7746,-0.8968,-1.1114,-1.1673,-1.2005,-1.2332,-1.2975,-1.3511,-1.4046,-1.5227,-1.608,-1.6723,-1.7259,-1.7582,-1.7582,-1.7582,-1.7576,-1.7561,-1.7888,-1.8502,-1.9417,-1.9647,-2.0922,0.0,0.0,0.0,2.0334,2.1812,0.0,2.7683,0.0,0.0,0.0,0.0,0.0,0.0,0.0,0.0,0.0,0.0,0.0,0.0,0.0,0.0,0.0,0.0,0.0,0.0,0.0,0.0,0.0,0.0,3.1901,3.1058,3.0251,2.931,2.8352,2.8984,2.8878,2.778,2.7468,2.7114,2.6707,2.5766,2.5382,2.556,2.5406,2.5304,2.5182,2.5051,2.4815,2.4519,2.454,2.3402,2.1607,2.1846,2.0183,1.7813,1.8046,1.7013,1.5549,1.589,1.4831,1.3585,1.4402,1.396,1.3294,1.4087,1.3014,1.156,1.1268,0.9526,0.7601,0.6962,0.5632,0.4232,0.343,0.3232,0.2843,0.1757,0.1052,0.0215,-0.1448,-0.1549,-0.165,-0.2573,-0.2914,-0.334,-0.3835,-0.4148,-0.4903,-0.6307,-0.8145,-0.9611,-1.0643,-1.1769,-1.2441,-1.2441,-1.2441,-1.3078,-1.4798,-1.5007,-1.5761,-1.7477,-1.7582,-1.7582,-1.7582,-1.7582,-1.7582,-1.7582,-1.7883,-1.819,-1.8477,-1.9353,-2.0838,1.5141,0.0,0.0,0.0,0.0,0.0,0.0,0.0,0.0,0.0,0.0,0.0,0.0,0.0,0.0,0.0,0.0,0.0,0.0,0.0,0.0,0.0,0.0,0.0,0.0,0.0,0.0,0.0,3.1117,3.0499,2.9727,2.9401,2.9008,2.8287,2.8945,2.8584,2.7203,2.7278,2.6997,2.6305,2.523,2.4874,2.5111,2.4299,2.4007,2.4161,2.4147,2.4179,2.4084,2.4405,2.3571,2.2011,2.1928,2.0161,1.7797,1.7997,1.6778,1.4982,1.5304,1.4819,1.3989,1.405,1.4013,1.3976,1.4235,1.3684,1.2732,1.156,1.0426,0.9164,0.7335,0.5686,0.4402,0.4144,0.3157,0.2069,0.1158,0.0107,-0.0762,-0.1429,-0.1773,-0.2231,-0.2912,-0.3329,-0.3845,-0.4371,-0.4859,-0.5669,-0.7157,-0.8411,-0.957,-1.0696,-1.1801,-1.2441,-1.2441,-1.2441,-1.2866,-1.3938,-1.4691,-1.5547,-1.6617,-1.7259,-1.7582,-1.7582,-1.7582,-1.7582,-1.7582,-1.7669,-1.7869,-1.8176,-1.9583,-2.0399,1.4776,1.4995,1.5362,1.5556,0.0,0.0,0.0,2.5216,0.0,0.0,0.0,0.0,0.0,0.0,0.0,0.0,0.0,0.0,0.0,0.0,0.0,0.0,0.0,0.0,0.0,0.0,0.0,3.1174,3.0584,2.9822,2.883,2.883,2.856,2.7973,2.8558,2.842,2.7605,2.7456,2.7175,2.6779,2.5254,2.4731,2.4945,2.401,2.3655,2.3711,2.3748,2.3832,2.3898,2.4157,2.3594,2.2403,2.1791,2.0248,1.8318,1.775,1.6495,1.5151,1.4888,1.4575,1.4167,1.3811,1.4186,1.4823,1.4909,1.4057,1.2818,1.2037,1.0676,0.9015,0.7226,0.6178,0.5302,0.4541,0.3656,0.2676,0.1364,0.032,-0.0543,-0.1433,-0.2006,-0.2468,-0.2691,-0.3427,-0.4033,-0.4541,-0.521,-0.6091,-0.7553,-0.8249,-0.9221,-1.0721,-1.1389,-1.1854,-1.2238,-1.2251,-1.2691,-1.3568,-1.4554,-1.5539,-1.6417,-1.741,-1.7963,-1.7963,-1.7963,-1.7963,-1.7963,-1.7836,-1.7936,-1.8243,-1.9387,-2.0025,1.4734,1.4598,1.4718,1.5246,1.542,0.0,2.2375,2.4426,0.0,0.0,0.0,0.0,0.0,0.0,0.0,0.0,0.0,0.0,0.0,0.0,0.0,0.0,0.0,0.0,0.0,3.1659,3.0905,3.0646,3.0199,2.9428,2.8287,2.8287,2.8105,2.7523,2.802,2.8281,2.8281,2.7798,2.7519,2.7519,2.5575,2.4779,2.4862,2.4143,2.3646,2.346,2.3503,2.3652,2.3732,2.3836,2.3523,2.2824,2.1572,2.0429,1.9222,1.7522,1.6429,1.5564,1.4782,1.4415,1.4219,1.3894,1.4533,1.5537,1.5708,1.4257,1.2506,1.2512,1.028,0.7836,0.7132,0.6842,0.635,0.4845,0.4444,0.3758,0.1967,0.1157,0.0322,-0.1333,-0.2241,-0.2581,-0.2244,-0.3097,-0.4021,-0.4491,-0.5145,-0.612,-0.7461,-0.7782,-0.8459,-1.0284,-1.057,-1.0929,-1.1819,-1.1845,-1.2297,-1.331,-1.4466,-1.5496,-1.6281,-1.7563,-1.8262,-1.8262,-1.838,-1.8393,-1.8537,-1.8243,-1.823,-1.8504,-1.9058,-1.9644,1.5147,1.4552,1.4524,1.4531,1.4932,0.0,1.6676,1.9078,0.0,0.0,0.0,0.0,0.0,0.0,0.0,0.0,0.0,0.0,0.0,0.0,0.0,0.0,0.0,0.0,0.0,3.0289,2.9525,2.857,2.7838,2.7482,2.763,2.7656,2.7656,2.7523,2.7628,2.7693,2.7693,2.7152,2.696,2.7109,2.5477,2.4564,2.4264,2.3338,2.2671,2.2182,2.2558,2.2752,2.2822,2.3567,2.37,2.3294,2.2327,2.0847,1.9236,1.862,1.6916,1.5025,1.5878,1.5422,1.4635,1.5157,1.5656,1.594,1.5354,1.481,1.3782,1.1453,0.9509,0.7939,0.7839,0.681,0.5865,0.5558,0.4431,0.3214,0.2217,0.1681,0.0948,-0.0436,-0.1556,-0.2356,-0.2581,-0.3097,-0.371,-0.4237,-0.4815,-0.5396,-0.6238,-0.6948,-0.7675,-0.797,-0.8838,-0.9596,-1.0548,-1.0556,-1.1219,-1.2869,-1.3367,-1.3912,-1.4789,-1.6216,-1.6894,-1.6564,-1.7359,-1.792,-1.8366,-1.8426,-1.8437,-1.8497,-1.8851,-1.899,1.5287,1.4541,1.4441,1.4242,0.0,0.0,0.0,0.0,0.0,0.0,0.0,0.0,0.0,0.0,0.0,0.0,0.0,0.0,0.0,0.0,0.0,0.0,0.0,0.0,0.0,0.0,2.7857,2.7301,2.68,2.6648,2.6934,2.73,2.7523,2.7523,2.7523,2.7523,2.7523,2.7404,2.728,2.7024,2.599,2.5026,2.4036,2.3202,2.2478,2.1818,2.2056,2.2283,2.2532,2.2998,2.3237,2.3248,2.2583,2.1598,2.0411,1.892,1.7219,1.5543,1.5514,1.5122,1.4617,1.4949,1.5285,1.554,1.5248,1.4082,1.2522,1.019,0.8825,0.8038,0.8038,0.739,0.6628,0.5817,0.5004,0.4099,0.2899,0.2178,0.146,0.0637,-0.0653,-0.1777,-0.2353,-0.3007,-0.3541,-0.3871,-0.4579,-0.5066,-0.5062,-0.5703,-0.628,-0.6381,-0.6879,-0.7627,-0.8891,-0.9429,-1.0273,-1.1528,-1.274,-1.3499,-1.3848,-1.532,-1.6368,-1.6833,-1.7297,-1.7944,-1.8902,-1.8878,-1.8931,-1.8931,-1.9078,-1.911,1.5588,1.4747,1.4593,0.0,0.0,1.4669,0.0,0.0,0.0,0.0,0.0,0.0,0.0,0.0,0.0,0.0,0.0,0.0,0.0,0.0,0.0,0.0,0.0,0.0,0.0,0.0,2.6103,2.635,2.6011,2.5973,2.6362,2.696,2.7339,2.7523,2.7523,2.7523,2.7523,2.7906,2.7821,2.7178,2.6593,2.5612,2.433,2.3394,2.2553,2.1807,2.1807,2.2025,2.2366,2.2459,2.2718,2.3049,2.2453,2.2004,2.132,1.911,1.748,1.6141,1.5185,1.476,1.4682,1.4644,1.4689,1.4765,1.4765,1.3017,1.0587,0.9316,0.8531,0.8038,0.8038,0.7859,0.7475,0.6168,0.5564,0.5061,0.3751,0.2771,0.2076,0.1667,0.0428,-0.0768,-0.1782,-0.2685,-0.3251,-0.3363,-0.411,-0.4517,-0.417,-0.4458,-0.4796,-0.5129,-0.514,-0.5645,-0.7065,-0.8102,-0.887,-0.9576,-1.1757,-1.2881,-1.2723,-1.4202,-1.5735,-1.6909,-1.6909,-1.7382,-1.8455,-1.8745,-1.9127,-1.9366,-1.9366,-1.9366,0.0,0.0,0.0,0.0,1.3963,0.0,0.0,0.0,0.0,0.0,0.0,0.0,0.0,0.0,0.0,0.0,0.0,0.0,0.0,0.0,0.0,0.0,0.0,0.0,0.0,0.0,0.0,2.5448,2.4487,2.4596,2.6337,2.6505,2.6856,2.751,2.7523,2.7523,2.7523,2.7906,2.8084,2.795,2.6682,2.5791,2.5133,2.3464,2.2402,2.1807,2.1807,2.1838,2.1921,2.2325,2.2532,2.2573,2.2336,2.1575,2.0495,1.9567,1.7823,1.6015,1.657,1.5972,1.5107,1.5752,1.4912,1.3703,1.3703,1.1863,0.9723,0.9525,0.8733,0.8038,0.8038,0.7529,0.7001,0.6796,0.5667,0.454,0.4439,0.3727,0.2919,0.2224,0.1725,0.0874,-0.0877,-0.1777,-0.2468,-0.2693,-0.2946,-0.3181,-0.3583,-0.373,-0.3744,-0.3814,-0.381,-0.415,-0.517,-0.5853,-0.6529,-0.7424,-0.9252,-1.0334,-1.0316,-1.2112,-1.3859,-1.5025,-1.4908,-1.4908,-1.5378,-1.6651,-1.8064,-1.9366,-1.9366,-1.9366,0.0,0.0,0.0,0.0,0.0,0.0,1.3803,0.0,1.3112,0.0,0.0,0.0,0.0,0.0,0.0,0.0,0.0,0.0,0.0,0.0,0.0,0.0,0.0,0.0,0.0,0.0,0.0,0.0,0.0,2.5299,2.5743,2.6044,2.6582,2.7456,2.717,2.7195,2.7469,2.7822,2.7811,2.741,2.6676,2.5765,2.4491,2.3422,2.2478,2.1807,2.1807,2.1807,2.1818,2.2014,2.2097,2.2118,2.2309,2.1698,2.0727,1.975,1.8189,1.6293,1.6008,1.5568,1.5166,1.5266,1.4777,1.4004,1.3136,1.1673,1.0203,0.9723,0.8832,0.8038,0.8038,0.7782,0.744,0.731,0.6711,0.6009,0.5135,0.4626,0.4113,0.3086,0.2376,0.1748,0.0984,-0.0447,-0.1479,-0.1593,-0.2288,-0.2635,-0.2619,-0.2861,-0.298,-0.2619,-0.2503,-0.2956,-0.409,-0.4991,-0.5892,-0.7024,-0.8256,-0.9273,-0.982,-1.0609,-1.1906,-1.3749,-1.3749,-1.4088,-1.4884,-1.556,-1.6184,-1.6876,-1.8441,-1.9018,1.8665,0.0,0.0,0.0,0.0,0.0,0.0,0.0,0.0,0.0,0.0,0.0,0.0,0.0,1.2576,1.2531,0.0,1.5076,0.0,0.0,0.0,0.0,0.0,0.0,0.0,0.0,0.0,0.0,0.0,0.0,2.537,2.5668,2.6236,2.7255,2.6962,2.6929,2.7135,2.7681,2.7651,2.7054,2.6673,2.5731,2.4237,2.3329,2.2444,2.1807,2.1807,2.1807,2.1807,2.1807,2.188,2.2025,2.2043,2.1696,2.0931,1.9887,1.8475,1.6899,1.5701,1.5325,1.5265,1.5095,1.4879,1.4496,1.3335,1.2058,1.0881,1.0109,0.9126,0.8244,0.8189,0.8203,0.8136,0.8074,0.7901,0.7407,0.6243,0.5649,0.4925,0.4076,0.3156,0.2532,0.2532,0.0899,-0.0457,-0.0685,-0.149,-0.2065,-0.1829,-0.2178,-0.2294,-0.1828,-0.1827,-0.2174,-0.2987,-0.4113,-0.536,-0.687,-0.7556,-0.841,-0.9473,-0.9339,-0.9986,-1.1697,-1.1815,-1.2379,-1.3502,-1.3896,-1.4241,-1.4414,-1.6708,-1.7885,0.0,0.0,0.0,1.6422,0.0,0.0,0.0,0.0,1.2735,0.0,0.0,0.0,0.0,1.1863,1.1835,1.1835,1.191,0.0,0.0,0.0,0.0,0.0,0.0,0.0,0.0,0.0,0.0,0.0,0.0,0.0,2.5495,2.5409,2.5728,2.6688,2.6954,2.6863,2.6335,2.7342,2.7787,2.7584,2.6572,2.5769,2.5026,2.3275,2.2232,2.1807,2.1807,2.1807,2.1807,2.1807,2.2066,2.2391,2.1521,2.1049,2.0889,1.9896,1.8864,1.7787,1.6264,1.5812,1.5818,1.573,1.5261,1.4688,1.4592,1.3221,1.1468,1.0877,0.9805,0.8763,0.8729,0.8667,0.8808,0.9283,0.879,0.8151,0.8157,0.6666,0.5339,0.523,0.4314,0.3585,0.3585,0.2018,0.0561,-0.0337,-0.0455,-0.0915,-0.1688,-0.1822,-0.1829,-0.18,-0.1796,-0.1808,-0.1838,-0.2945,-0.4625,-0.6868,-0.6989,-0.7497,-0.8555,-0.8428,-0.8354,-0.847,-0.847,-0.8924,-0.972,-1.1224,-1.2243,-1.2864,-1.4409,-1.5761,0.0,0.0,2.4249,1.8988,0.0,0.0,0.0,0.0,0.0,0.0,0.0,0.0,0.0,1.1826,1.1805,1.1805,1.1362,1.1011,0.0,0.0,0.0,0.0,0.0,0.0,0.0,0.0,0.0,0.0,0.0,0.0,0.0,2.5114,2.5485,2.5942,2.6347,2.6467,2.6299,2.6792,2.6909,2.6709,2.6018,2.5297,2.4444,2.3219,2.2408,2.2019,2.233,2.2495,2.2516,2.2955,2.3256,2.3345,2.3327,2.314,2.2496,1.9929,1.8379,1.7397,1.6197,1.5832,1.5865,1.6258,1.5615,1.4725,1.4509,1.3751,1.2657,1.1179,1.0672,1.0374,0.9423,0.9139,0.9186,0.9447,0.9481,0.929,0.8747,0.8153,0.7413,0.6641,0.5569,0.4814,0.4814,0.3585,0.2129,0.0673,-0.0,-0.079,-0.1684,-0.1821,-0.1836,-0.1826,-0.1825,-0.1943,-0.2412,-0.3507,-0.4716,-0.587,-0.5985,-0.6336,-0.7277,-0.7236,-0.755,-0.81,-0.81,-0.81,-0.7985,-0.8469,-0.8798,-0.8977,-0.9572,-1.17,2.5779,2.6684,0.0,2.1424,2.1566,0.0,1.6818,0.0,0.0,0.0,0.0,0.0,0.0,1.281,1.1857,1.278,1.1713,1.0728,0.0,1.019,0.0,0.0,0.0,0.0,0.0,0.0,0.0,0.0,0.0,0.0,0.0,0.0,2.5385,2.5652,2.6239,2.6463,2.6149,2.6414,2.6436,2.6116,2.5824,2.5343,2.4804,2.3805,2.3217,2.2956,2.296,2.2977,2.2997,2.344,2.365,2.3829,2.3784,2.3662,2.3173,2.0722,1.8843,1.7273,1.6409,1.6155,1.6172,1.6569,1.5908,1.4906,1.4775,1.4119,1.3089,1.1903,1.1327,1.0863,1.014,0.9677,0.9458,0.9723,0.9977,1.0004,0.9453,0.9034,0.8478,0.7584,0.648,0.5594,0.5262,0.4592,0.3474,0.1681,0.0896,0.0112,-0.1121,-0.1246,-0.1482,-0.171,-0.1824,-0.2165,-0.2961,-0.3741,-0.4511,-0.5384,-0.5382,-0.5603,-0.6158,-0.627,-0.649,-0.7038,-0.7038,-0.6924,-0.6586,-0.6586,-0.6695,-0.6805,-0.6805,-0.8559]}]]